<?xml version="1.0" encoding="UTF-8" standalone="no" ?>
<gpx xmlns="http://www.topografix.com/GPX/1/1" xmlns:xsi="http://www.w3.org/2001/XMLSchema-instance" xsi:schemaLocation="http://www.topografix.com/GPX/1/1 http://www.topografix.com/GPX/1/1/gpx.xsd" version="1.1" creator="VisuGPX - https://www.visugpx.com">
  <metadata>
    <name>Joyeux Randonneurs à Villetoureix (2)</name>
    <desc><![CDATA[Randonnée accessible à tous. Il existe pratiquement toujours des possibilités  pour raccourcir le circuit à environ  6km. ]]></desc>
  </metadata>
  <trk>
    <name><![CDATA[Tracé 22 mars 2016 13:59:21 Villetoureix]]></name>
    <trkseg>
      <trkpt lat="45.26287" lon="0.3624">
        <ele>73</ele>
        <time>2016-03-22T13:07:54Z</time>
      </trkpt>
      <trkpt lat="45.26291" lon="0.36243">
        <ele>78</ele>
        <time>2016-03-22T13:11:58Z</time>
      </trkpt>
      <trkpt lat="45.26295" lon="0.36243">
        <ele>79</ele>
        <time>2016-03-22T13:12:03Z</time>
      </trkpt>
      <trkpt lat="45.26298" lon="0.36239">
        <ele>76</ele>
        <time>2016-03-22T13:12:14Z</time>
      </trkpt>
      <trkpt lat="45.26301" lon="0.36235">
        <ele>75</ele>
        <time>2016-03-22T13:12:21Z</time>
      </trkpt>
      <trkpt lat="45.26304" lon="0.36231">
        <ele>76</ele>
        <time>2016-03-22T13:12:26Z</time>
      </trkpt>
      <trkpt lat="45.26307" lon="0.36226">
        <ele>76</ele>
        <time>2016-03-22T13:12:34Z</time>
      </trkpt>
      <trkpt lat="45.2631" lon="0.36226">
        <ele>75</ele>
        <time>2016-03-22T13:12:41Z</time>
      </trkpt>
      <trkpt lat="45.26313" lon="0.36224">
        <ele>75</ele>
        <time>2016-03-22T13:12:46Z</time>
      </trkpt>
      <trkpt lat="45.26318" lon="0.36219">
        <ele>78</ele>
        <time>2016-03-22T13:12:51Z</time>
      </trkpt>
      <trkpt lat="45.26322" lon="0.3622">
        <ele>81</ele>
        <time>2016-03-22T13:12:56Z</time>
      </trkpt>
      <trkpt lat="45.26325" lon="0.36218">
        <ele>81</ele>
        <time>2016-03-22T13:13:01Z</time>
      </trkpt>
      <trkpt lat="45.26329" lon="0.36214">
        <ele>81</ele>
        <time>2016-03-22T13:13:06Z</time>
      </trkpt>
      <trkpt lat="45.26334" lon="0.36214">
        <ele>82</ele>
        <time>2016-03-22T13:13:10Z</time>
      </trkpt>
      <trkpt lat="45.26339" lon="0.36211">
        <ele>84</ele>
        <time>2016-03-22T13:13:14Z</time>
      </trkpt>
      <trkpt lat="45.26348" lon="0.36211">
        <ele>79</ele>
        <time>2016-03-22T13:13:18Z</time>
      </trkpt>
      <trkpt lat="45.26351" lon="0.3622">
        <ele>79</ele>
        <time>2016-03-22T13:13:22Z</time>
      </trkpt>
      <trkpt lat="45.26355" lon="0.36221">
        <ele>81</ele>
        <time>2016-03-22T13:13:26Z</time>
      </trkpt>
      <trkpt lat="45.26359" lon="0.36223">
        <ele>83</ele>
        <time>2016-03-22T13:13:33Z</time>
      </trkpt>
      <trkpt lat="45.26364" lon="0.36225">
        <ele>83</ele>
        <time>2016-03-22T13:13:37Z</time>
      </trkpt>
      <trkpt lat="45.26368" lon="0.36221">
        <ele>84</ele>
        <time>2016-03-22T13:13:41Z</time>
      </trkpt>
      <trkpt lat="45.26377" lon="0.3622">
        <ele>83</ele>
        <time>2016-03-22T13:13:46Z</time>
      </trkpt>
      <trkpt lat="45.26381" lon="0.36219">
        <ele>82</ele>
        <time>2016-03-22T13:13:50Z</time>
      </trkpt>
      <trkpt lat="45.26386" lon="0.36221">
        <ele>84</ele>
        <time>2016-03-22T13:13:55Z</time>
      </trkpt>
      <trkpt lat="45.2639" lon="0.36217">
        <ele>83</ele>
        <time>2016-03-22T13:14:02Z</time>
      </trkpt>
      <trkpt lat="45.26395" lon="0.36212">
        <ele>85</ele>
        <time>2016-03-22T13:14:07Z</time>
      </trkpt>
      <trkpt lat="45.26399" lon="0.36208">
        <ele>84</ele>
        <time>2016-03-22T13:14:11Z</time>
      </trkpt>
      <trkpt lat="45.26405" lon="0.36207">
        <ele>84</ele>
        <time>2016-03-22T13:14:16Z</time>
      </trkpt>
      <trkpt lat="45.26409" lon="0.36204">
        <ele>84</ele>
        <time>2016-03-22T13:14:20Z</time>
      </trkpt>
      <trkpt lat="45.26417" lon="0.36197">
        <ele>84</ele>
        <time>2016-03-22T13:14:25Z</time>
      </trkpt>
      <trkpt lat="45.26423" lon="0.36195">
        <ele>83</ele>
        <time>2016-03-22T13:14:29Z</time>
      </trkpt>
      <trkpt lat="45.26428" lon="0.36192">
        <ele>82</ele>
        <time>2016-03-22T13:14:33Z</time>
      </trkpt>
      <trkpt lat="45.26434" lon="0.36189">
        <ele>80</ele>
        <time>2016-03-22T13:14:37Z</time>
      </trkpt>
      <trkpt lat="45.2644" lon="0.36187">
        <ele>78</ele>
        <time>2016-03-22T13:14:42Z</time>
      </trkpt>
      <trkpt lat="45.26444" lon="0.36185">
        <ele>78</ele>
        <time>2016-03-22T13:14:47Z</time>
      </trkpt>
      <trkpt lat="45.26447" lon="0.36184">
        <ele>80</ele>
        <time>2016-03-22T13:14:53Z</time>
      </trkpt>
      <trkpt lat="45.26452" lon="0.36181">
        <ele>80</ele>
        <time>2016-03-22T13:14:57Z</time>
      </trkpt>
      <trkpt lat="45.26456" lon="0.36178">
        <ele>81</ele>
        <time>2016-03-22T13:15:01Z</time>
      </trkpt>
      <trkpt lat="45.26461" lon="0.36175">
        <ele>81</ele>
        <time>2016-03-22T13:15:06Z</time>
      </trkpt>
      <trkpt lat="45.26467" lon="0.36172">
        <ele>80</ele>
        <time>2016-03-22T13:15:11Z</time>
      </trkpt>
      <trkpt lat="45.26472" lon="0.36171">
        <ele>79</ele>
        <time>2016-03-22T13:15:15Z</time>
      </trkpt>
      <trkpt lat="45.26474" lon="0.36173">
        <ele>82</ele>
        <time>2016-03-22T13:15:20Z</time>
      </trkpt>
      <trkpt lat="45.26479" lon="0.36176">
        <ele>82</ele>
        <time>2016-03-22T13:15:24Z</time>
      </trkpt>
      <trkpt lat="45.26484" lon="0.36178">
        <ele>83</ele>
        <time>2016-03-22T13:15:28Z</time>
      </trkpt>
      <trkpt lat="45.2649" lon="0.36183">
        <ele>83</ele>
        <time>2016-03-22T13:15:33Z</time>
      </trkpt>
      <trkpt lat="45.26493" lon="0.36184">
        <ele>86</ele>
        <time>2016-03-22T13:15:37Z</time>
      </trkpt>
      <trkpt lat="45.26499" lon="0.36183">
        <ele>85</ele>
        <time>2016-03-22T13:15:42Z</time>
      </trkpt>
      <trkpt lat="45.26502" lon="0.36186">
        <ele>85</ele>
        <time>2016-03-22T13:15:46Z</time>
      </trkpt>
      <trkpt lat="45.26509" lon="0.36184">
        <ele>84</ele>
        <time>2016-03-22T13:15:51Z</time>
      </trkpt>
      <trkpt lat="45.26514" lon="0.36185">
        <ele>83</ele>
        <time>2016-03-22T13:15:55Z</time>
      </trkpt>
      <trkpt lat="45.2652" lon="0.36182">
        <ele>84</ele>
        <time>2016-03-22T13:15:59Z</time>
      </trkpt>
      <trkpt lat="45.26526" lon="0.36181">
        <ele>82</ele>
        <time>2016-03-22T13:16:04Z</time>
      </trkpt>
      <trkpt lat="45.2653" lon="0.36178">
        <ele>86</ele>
        <time>2016-03-22T13:16:09Z</time>
      </trkpt>
      <trkpt lat="45.26534" lon="0.36177">
        <ele>87</ele>
        <time>2016-03-22T13:16:13Z</time>
      </trkpt>
      <trkpt lat="45.2654" lon="0.36176">
        <ele>88</ele>
        <time>2016-03-22T13:16:17Z</time>
      </trkpt>
      <trkpt lat="45.26546" lon="0.36176">
        <ele>90</ele>
        <time>2016-03-22T13:16:22Z</time>
      </trkpt>
      <trkpt lat="45.26552" lon="0.36174">
        <ele>91</ele>
        <time>2016-03-22T13:16:27Z</time>
      </trkpt>
      <trkpt lat="45.26556" lon="0.36175">
        <ele>91</ele>
        <time>2016-03-22T13:16:31Z</time>
      </trkpt>
      <trkpt lat="45.26562" lon="0.36173">
        <ele>93</ele>
        <time>2016-03-22T13:16:36Z</time>
      </trkpt>
      <trkpt lat="45.26567" lon="0.36171">
        <ele>93</ele>
        <time>2016-03-22T13:16:40Z</time>
      </trkpt>
      <trkpt lat="45.26571" lon="0.36169">
        <ele>96</ele>
        <time>2016-03-22T13:16:45Z</time>
      </trkpt>
      <trkpt lat="45.26577" lon="0.36168">
        <ele>96</ele>
        <time>2016-03-22T13:16:50Z</time>
      </trkpt>
      <trkpt lat="45.26581" lon="0.36167">
        <ele>97</ele>
        <time>2016-03-22T13:16:55Z</time>
      </trkpt>
      <trkpt lat="45.26585" lon="0.36165">
        <ele>101</ele>
        <time>2016-03-22T13:17:01Z</time>
      </trkpt>
      <trkpt lat="45.2659" lon="0.36165">
        <ele>100</ele>
        <time>2016-03-22T13:17:05Z</time>
      </trkpt>
      <trkpt lat="45.26594" lon="0.36166">
        <ele>98</ele>
        <time>2016-03-22T13:17:10Z</time>
      </trkpt>
      <trkpt lat="45.26598" lon="0.36165">
        <ele>97</ele>
        <time>2016-03-22T13:17:14Z</time>
      </trkpt>
      <trkpt lat="45.26603" lon="0.36165">
        <ele>98</ele>
        <time>2016-03-22T13:17:19Z</time>
      </trkpt>
      <trkpt lat="45.26607" lon="0.36165">
        <ele>99</ele>
        <time>2016-03-22T13:17:23Z</time>
      </trkpt>
      <trkpt lat="45.26612" lon="0.36168">
        <ele>97</ele>
        <time>2016-03-22T13:17:28Z</time>
      </trkpt>
      <trkpt lat="45.26616" lon="0.3617">
        <ele>97</ele>
        <time>2016-03-22T13:17:32Z</time>
      </trkpt>
      <trkpt lat="45.2662" lon="0.36171">
        <ele>97</ele>
        <time>2016-03-22T13:17:37Z</time>
      </trkpt>
      <trkpt lat="45.26624" lon="0.36172">
        <ele>97</ele>
        <time>2016-03-22T13:17:41Z</time>
      </trkpt>
      <trkpt lat="45.26628" lon="0.36172">
        <ele>98</ele>
        <time>2016-03-22T13:17:45Z</time>
      </trkpt>
      <trkpt lat="45.26631" lon="0.36175">
        <ele>98</ele>
        <time>2016-03-22T13:17:50Z</time>
      </trkpt>
      <trkpt lat="45.26636" lon="0.36178">
        <ele>97</ele>
        <time>2016-03-22T13:17:55Z</time>
      </trkpt>
      <trkpt lat="45.2664" lon="0.3618">
        <ele>97</ele>
        <time>2016-03-22T13:18:01Z</time>
      </trkpt>
      <trkpt lat="45.26643" lon="0.36184">
        <ele>96</ele>
        <time>2016-03-22T13:18:06Z</time>
      </trkpt>
      <trkpt lat="45.26647" lon="0.36185">
        <ele>96</ele>
        <time>2016-03-22T13:18:11Z</time>
      </trkpt>
      <trkpt lat="45.26651" lon="0.36188">
        <ele>97</ele>
        <time>2016-03-22T13:18:16Z</time>
      </trkpt>
      <trkpt lat="45.26655" lon="0.3619">
        <ele>97</ele>
        <time>2016-03-22T13:18:21Z</time>
      </trkpt>
      <trkpt lat="45.26663" lon="0.36192">
        <ele>96</ele>
        <time>2016-03-22T13:18:26Z</time>
      </trkpt>
      <trkpt lat="45.26666" lon="0.36195">
        <ele>96</ele>
        <time>2016-03-22T13:18:31Z</time>
      </trkpt>
      <trkpt lat="45.26666" lon="0.362">
        <ele>94</ele>
        <time>2016-03-22T13:18:36Z</time>
      </trkpt>
      <trkpt lat="45.26674" lon="0.36202">
        <ele>93</ele>
        <time>2016-03-22T13:18:40Z</time>
      </trkpt>
      <trkpt lat="45.26677" lon="0.36201">
        <ele>94</ele>
        <time>2016-03-22T13:18:44Z</time>
      </trkpt>
      <trkpt lat="45.26681" lon="0.36204">
        <ele>94</ele>
        <time>2016-03-22T13:18:50Z</time>
      </trkpt>
      <trkpt lat="45.26686" lon="0.36206">
        <ele>94</ele>
        <time>2016-03-22T13:18:54Z</time>
      </trkpt>
      <trkpt lat="45.2669" lon="0.36208">
        <ele>94</ele>
        <time>2016-03-22T13:19:00Z</time>
      </trkpt>
      <trkpt lat="45.26695" lon="0.36205">
        <ele>93</ele>
        <time>2016-03-22T13:19:04Z</time>
      </trkpt>
      <trkpt lat="45.26699" lon="0.36207">
        <ele>92</ele>
        <time>2016-03-22T13:19:09Z</time>
      </trkpt>
      <trkpt lat="45.26703" lon="0.36209">
        <ele>92</ele>
        <time>2016-03-22T13:19:13Z</time>
      </trkpt>
      <trkpt lat="45.26706" lon="0.36211">
        <ele>93</ele>
        <time>2016-03-22T13:19:17Z</time>
      </trkpt>
      <trkpt lat="45.26711" lon="0.36214">
        <ele>94</ele>
        <time>2016-03-22T13:19:22Z</time>
      </trkpt>
      <trkpt lat="45.26718" lon="0.36213">
        <ele>95</ele>
        <time>2016-03-22T13:19:27Z</time>
      </trkpt>
      <trkpt lat="45.26722" lon="0.36216">
        <ele>94</ele>
        <time>2016-03-22T13:19:35Z</time>
      </trkpt>
      <trkpt lat="45.26727" lon="0.36214">
        <ele>94</ele>
        <time>2016-03-22T13:19:39Z</time>
      </trkpt>
      <trkpt lat="45.26733" lon="0.36216">
        <ele>94</ele>
        <time>2016-03-22T13:19:44Z</time>
      </trkpt>
      <trkpt lat="45.26737" lon="0.36219">
        <ele>94</ele>
        <time>2016-03-22T13:19:49Z</time>
      </trkpt>
      <trkpt lat="45.26741" lon="0.3622">
        <ele>94</ele>
        <time>2016-03-22T13:19:53Z</time>
      </trkpt>
      <trkpt lat="45.26745" lon="0.36223">
        <ele>93</ele>
        <time>2016-03-22T13:20:04Z</time>
      </trkpt>
      <trkpt lat="45.26749" lon="0.36224">
        <ele>94</ele>
        <time>2016-03-22T13:20:09Z</time>
      </trkpt>
      <trkpt lat="45.26753" lon="0.36227">
        <ele>96</ele>
        <time>2016-03-22T13:20:14Z</time>
      </trkpt>
      <trkpt lat="45.26758" lon="0.36228">
        <ele>97</ele>
        <time>2016-03-22T13:20:18Z</time>
      </trkpt>
      <trkpt lat="45.26762" lon="0.3623">
        <ele>97</ele>
        <time>2016-03-22T13:20:23Z</time>
      </trkpt>
      <trkpt lat="45.26767" lon="0.36233">
        <ele>97</ele>
        <time>2016-03-22T13:20:28Z</time>
      </trkpt>
      <trkpt lat="45.26771" lon="0.36234">
        <ele>97</ele>
        <time>2016-03-22T13:20:32Z</time>
      </trkpt>
      <trkpt lat="45.26776" lon="0.36235">
        <ele>97</ele>
        <time>2016-03-22T13:20:37Z</time>
      </trkpt>
      <trkpt lat="45.26781" lon="0.36234">
        <ele>98</ele>
        <time>2016-03-22T13:20:42Z</time>
      </trkpt>
      <trkpt lat="45.26785" lon="0.36233">
        <ele>98</ele>
        <time>2016-03-22T13:20:48Z</time>
      </trkpt>
      <trkpt lat="45.26789" lon="0.36236">
        <ele>97</ele>
        <time>2016-03-22T13:20:53Z</time>
      </trkpt>
      <trkpt lat="45.26793" lon="0.36237">
        <ele>98</ele>
        <time>2016-03-22T13:21:00Z</time>
      </trkpt>
      <trkpt lat="45.26799" lon="0.3624">
        <ele>98</ele>
        <time>2016-03-22T13:21:05Z</time>
      </trkpt>
      <trkpt lat="45.26805" lon="0.3624">
        <ele>98</ele>
        <time>2016-03-22T13:21:10Z</time>
      </trkpt>
      <trkpt lat="45.26809" lon="0.36242">
        <ele>99</ele>
        <time>2016-03-22T13:21:15Z</time>
      </trkpt>
      <trkpt lat="45.26814" lon="0.36245">
        <ele>99</ele>
        <time>2016-03-22T13:21:20Z</time>
      </trkpt>
      <trkpt lat="45.26818" lon="0.36246">
        <ele>100</ele>
        <time>2016-03-22T13:21:25Z</time>
      </trkpt>
      <trkpt lat="45.26823" lon="0.36247">
        <ele>101</ele>
        <time>2016-03-22T13:21:30Z</time>
      </trkpt>
      <trkpt lat="45.26827" lon="0.3625">
        <ele>101</ele>
        <time>2016-03-22T13:21:36Z</time>
      </trkpt>
      <trkpt lat="45.2683" lon="0.36254">
        <ele>100</ele>
        <time>2016-03-22T13:21:41Z</time>
      </trkpt>
      <trkpt lat="45.26833" lon="0.36258">
        <ele>99</ele>
        <time>2016-03-22T13:21:48Z</time>
      </trkpt>
      <trkpt lat="45.26833" lon="0.36264">
        <ele>98</ele>
        <time>2016-03-22T13:21:55Z</time>
      </trkpt>
      <trkpt lat="45.26833" lon="0.3627">
        <ele>98</ele>
        <time>2016-03-22T13:22:00Z</time>
      </trkpt>
      <trkpt lat="45.26833" lon="0.36276">
        <ele>96</ele>
        <time>2016-03-22T13:22:05Z</time>
      </trkpt>
      <trkpt lat="45.26834" lon="0.36284">
        <ele>97</ele>
        <time>2016-03-22T13:22:10Z</time>
      </trkpt>
      <trkpt lat="45.26837" lon="0.36287">
        <ele>100</ele>
        <time>2016-03-22T13:22:15Z</time>
      </trkpt>
      <trkpt lat="45.2684" lon="0.3629">
        <ele>101</ele>
        <time>2016-03-22T13:22:20Z</time>
      </trkpt>
      <trkpt lat="45.26844" lon="0.36293">
        <ele>102</ele>
        <time>2016-03-22T13:22:24Z</time>
      </trkpt>
      <trkpt lat="45.2685" lon="0.36295">
        <ele>103</ele>
        <time>2016-03-22T13:22:29Z</time>
      </trkpt>
      <trkpt lat="45.26854" lon="0.36297">
        <ele>103</ele>
        <time>2016-03-22T13:22:33Z</time>
      </trkpt>
      <trkpt lat="45.26858" lon="0.363">
        <ele>104</ele>
        <time>2016-03-22T13:22:39Z</time>
      </trkpt>
      <trkpt lat="45.26861" lon="0.36302">
        <ele>104</ele>
        <time>2016-03-22T13:22:44Z</time>
      </trkpt>
      <trkpt lat="45.26866" lon="0.36303">
        <ele>105</ele>
        <time>2016-03-22T13:22:49Z</time>
      </trkpt>
      <trkpt lat="45.26872" lon="0.36302">
        <ele>108</ele>
        <time>2016-03-22T13:22:53Z</time>
      </trkpt>
      <trkpt lat="45.26876" lon="0.36305">
        <ele>110</ele>
        <time>2016-03-22T13:23:00Z</time>
      </trkpt>
      <trkpt lat="45.2688" lon="0.36305">
        <ele>111</ele>
        <time>2016-03-22T13:23:05Z</time>
      </trkpt>
      <trkpt lat="45.26885" lon="0.36304">
        <ele>112</ele>
        <time>2016-03-22T13:23:09Z</time>
      </trkpt>
      <trkpt lat="45.26889" lon="0.36305">
        <ele>112</ele>
        <time>2016-03-22T13:23:13Z</time>
      </trkpt>
      <trkpt lat="45.26894" lon="0.36309">
        <ele>113</ele>
        <time>2016-03-22T13:23:17Z</time>
      </trkpt>
      <trkpt lat="45.26899" lon="0.36306">
        <ele>113</ele>
        <time>2016-03-22T13:23:22Z</time>
      </trkpt>
      <trkpt lat="45.26903" lon="0.36308">
        <ele>115</ele>
        <time>2016-03-22T13:23:26Z</time>
      </trkpt>
      <trkpt lat="45.26907" lon="0.3631">
        <ele>115</ele>
        <time>2016-03-22T13:23:30Z</time>
      </trkpt>
      <trkpt lat="45.26912" lon="0.36311">
        <ele>115</ele>
        <time>2016-03-22T13:23:35Z</time>
      </trkpt>
      <trkpt lat="45.26916" lon="0.36312">
        <ele>114</ele>
        <time>2016-03-22T13:23:40Z</time>
      </trkpt>
      <trkpt lat="45.26921" lon="0.36315">
        <ele>112</ele>
        <time>2016-03-22T13:23:45Z</time>
      </trkpt>
      <trkpt lat="45.26925" lon="0.36315">
        <ele>112</ele>
        <time>2016-03-22T13:23:50Z</time>
      </trkpt>
      <trkpt lat="45.26931" lon="0.36318">
        <ele>112</ele>
        <time>2016-03-22T13:23:55Z</time>
      </trkpt>
      <trkpt lat="45.26935" lon="0.36319">
        <ele>112</ele>
        <time>2016-03-22T13:23:59Z</time>
      </trkpt>
      <trkpt lat="45.26941" lon="0.3632">
        <ele>112</ele>
        <time>2016-03-22T13:24:04Z</time>
      </trkpt>
      <trkpt lat="45.26946" lon="0.36324">
        <ele>113</ele>
        <time>2016-03-22T13:24:08Z</time>
      </trkpt>
      <trkpt lat="45.26951" lon="0.36322">
        <ele>113</ele>
        <time>2016-03-22T13:24:12Z</time>
      </trkpt>
      <trkpt lat="45.26955" lon="0.36319">
        <ele>113</ele>
        <time>2016-03-22T13:24:16Z</time>
      </trkpt>
      <trkpt lat="45.26959" lon="0.36317">
        <ele>111</ele>
        <time>2016-03-22T13:24:20Z</time>
      </trkpt>
      <trkpt lat="45.26963" lon="0.36316">
        <ele>113</ele>
        <time>2016-03-22T13:24:25Z</time>
      </trkpt>
      <trkpt lat="45.26967" lon="0.36316">
        <ele>114</ele>
        <time>2016-03-22T13:24:31Z</time>
      </trkpt>
      <trkpt lat="45.26971" lon="0.36316">
        <ele>114</ele>
        <time>2016-03-22T13:24:38Z</time>
      </trkpt>
      <trkpt lat="45.26975" lon="0.36316">
        <ele>112</ele>
        <time>2016-03-22T13:24:43Z</time>
      </trkpt>
      <trkpt lat="45.26979" lon="0.36316">
        <ele>113</ele>
        <time>2016-03-22T13:24:56Z</time>
      </trkpt>
      <trkpt lat="45.26983" lon="0.36317">
        <ele>112</ele>
        <time>2016-03-22T13:25:04Z</time>
      </trkpt>
      <trkpt lat="45.26987" lon="0.36316">
        <ele>114</ele>
        <time>2016-03-22T13:25:14Z</time>
      </trkpt>
      <trkpt lat="45.26991" lon="0.36319">
        <ele>113</ele>
        <time>2016-03-22T13:25:20Z</time>
      </trkpt>
      <trkpt lat="45.26996" lon="0.36319">
        <ele>113</ele>
        <time>2016-03-22T13:25:25Z</time>
      </trkpt>
      <trkpt lat="45.27" lon="0.3632">
        <ele>114</ele>
        <time>2016-03-22T13:25:30Z</time>
      </trkpt>
      <trkpt lat="45.27004" lon="0.36322">
        <ele>114</ele>
        <time>2016-03-22T13:25:35Z</time>
      </trkpt>
      <trkpt lat="45.27008" lon="0.36323">
        <ele>114</ele>
        <time>2016-03-22T13:25:40Z</time>
      </trkpt>
      <trkpt lat="45.27013" lon="0.36325">
        <ele>115</ele>
        <time>2016-03-22T13:25:45Z</time>
      </trkpt>
      <trkpt lat="45.27017" lon="0.36326">
        <ele>115</ele>
        <time>2016-03-22T13:25:50Z</time>
      </trkpt>
      <trkpt lat="45.27022" lon="0.36327">
        <ele>115</ele>
        <time>2016-03-22T13:25:54Z</time>
      </trkpt>
      <trkpt lat="45.27025" lon="0.3633">
        <ele>116</ele>
        <time>2016-03-22T13:26:00Z</time>
      </trkpt>
      <trkpt lat="45.27029" lon="0.36331">
        <ele>116</ele>
        <time>2016-03-22T13:26:05Z</time>
      </trkpt>
      <trkpt lat="45.27033" lon="0.36331">
        <ele>114</ele>
        <time>2016-03-22T13:26:11Z</time>
      </trkpt>
      <trkpt lat="45.27038" lon="0.36332">
        <ele>114</ele>
        <time>2016-03-22T13:26:31Z</time>
      </trkpt>
      <trkpt lat="45.27042" lon="0.36335">
        <ele>115</ele>
        <time>2016-03-22T13:26:51Z</time>
      </trkpt>
      <trkpt lat="45.27046" lon="0.36335">
        <ele>116</ele>
        <time>2016-03-22T13:27:15Z</time>
      </trkpt>
      <trkpt lat="45.27048" lon="0.36338">
        <ele>114</ele>
        <time>2016-03-22T13:27:19Z</time>
      </trkpt>
      <trkpt lat="45.27052" lon="0.3634">
        <ele>114</ele>
        <time>2016-03-22T13:27:24Z</time>
      </trkpt>
      <trkpt lat="45.27056" lon="0.36344">
        <ele>115</ele>
        <time>2016-03-22T13:27:30Z</time>
      </trkpt>
      <trkpt lat="45.2706" lon="0.36347">
        <ele>116</ele>
        <time>2016-03-22T13:27:35Z</time>
      </trkpt>
      <trkpt lat="45.27063" lon="0.36349">
        <ele>116</ele>
        <time>2016-03-22T13:27:39Z</time>
      </trkpt>
      <trkpt lat="45.27067" lon="0.36353">
        <ele>116</ele>
        <time>2016-03-22T13:27:43Z</time>
      </trkpt>
      <trkpt lat="45.2707" lon="0.36357">
        <ele>118</ele>
        <time>2016-03-22T13:27:48Z</time>
      </trkpt>
      <trkpt lat="45.27073" lon="0.3636">
        <ele>118</ele>
        <time>2016-03-22T13:27:52Z</time>
      </trkpt>
      <trkpt lat="45.27077" lon="0.36362">
        <ele>119</ele>
        <time>2016-03-22T13:27:57Z</time>
      </trkpt>
      <trkpt lat="45.27081" lon="0.36365">
        <ele>119</ele>
        <time>2016-03-22T13:28:01Z</time>
      </trkpt>
      <trkpt lat="45.27086" lon="0.3637">
        <ele>119</ele>
        <time>2016-03-22T13:28:06Z</time>
      </trkpt>
      <trkpt lat="45.2709" lon="0.36372">
        <ele>119</ele>
        <time>2016-03-22T13:28:10Z</time>
      </trkpt>
      <trkpt lat="45.27094" lon="0.36376">
        <ele>119</ele>
        <time>2016-03-22T13:28:15Z</time>
      </trkpt>
      <trkpt lat="45.27098" lon="0.36379">
        <ele>119</ele>
        <time>2016-03-22T13:28:20Z</time>
      </trkpt>
      <trkpt lat="45.27103" lon="0.36381">
        <ele>119</ele>
        <time>2016-03-22T13:28:25Z</time>
      </trkpt>
      <trkpt lat="45.27107" lon="0.36385">
        <ele>119</ele>
        <time>2016-03-22T13:28:30Z</time>
      </trkpt>
      <trkpt lat="45.2711" lon="0.36387">
        <ele>119</ele>
        <time>2016-03-22T13:28:34Z</time>
      </trkpt>
      <trkpt lat="45.27115" lon="0.3639">
        <ele>119</ele>
        <time>2016-03-22T13:28:39Z</time>
      </trkpt>
      <trkpt lat="45.2712" lon="0.36391">
        <ele>119</ele>
        <time>2016-03-22T13:28:43Z</time>
      </trkpt>
      <trkpt lat="45.27125" lon="0.36393">
        <ele>118</ele>
        <time>2016-03-22T13:28:48Z</time>
      </trkpt>
      <trkpt lat="45.27131" lon="0.36396">
        <ele>119</ele>
        <time>2016-03-22T13:28:53Z</time>
      </trkpt>
      <trkpt lat="45.27136" lon="0.36397">
        <ele>119</ele>
        <time>2016-03-22T13:28:57Z</time>
      </trkpt>
      <trkpt lat="45.27142" lon="0.36398">
        <ele>118</ele>
        <time>2016-03-22T13:29:02Z</time>
      </trkpt>
      <trkpt lat="45.27146" lon="0.36401">
        <ele>118</ele>
        <time>2016-03-22T13:29:07Z</time>
      </trkpt>
      <trkpt lat="45.27151" lon="0.36401">
        <ele>116</ele>
        <time>2016-03-22T13:29:14Z</time>
      </trkpt>
      <trkpt lat="45.27154" lon="0.36405">
        <ele>117</ele>
        <time>2016-03-22T13:29:19Z</time>
      </trkpt>
      <trkpt lat="45.27161" lon="0.36406">
        <ele>118</ele>
        <time>2016-03-22T13:29:24Z</time>
      </trkpt>
      <trkpt lat="45.27164" lon="0.36408">
        <ele>119</ele>
        <time>2016-03-22T13:29:28Z</time>
      </trkpt>
      <trkpt lat="45.27166" lon="0.36411">
        <ele>118</ele>
        <time>2016-03-22T13:29:32Z</time>
      </trkpt>
      <trkpt lat="45.27176" lon="0.36411">
        <ele>116</ele>
        <time>2016-03-22T13:29:37Z</time>
      </trkpt>
      <trkpt lat="45.2718" lon="0.36412">
        <ele>114</ele>
        <time>2016-03-22T13:29:41Z</time>
      </trkpt>
      <trkpt lat="45.27185" lon="0.36414">
        <ele>115</ele>
        <time>2016-03-22T13:29:46Z</time>
      </trkpt>
      <trkpt lat="45.27188" lon="0.36415">
        <ele>117</ele>
        <time>2016-03-22T13:29:50Z</time>
      </trkpt>
      <trkpt lat="45.27195" lon="0.36415">
        <ele>116</ele>
        <time>2016-03-22T13:29:54Z</time>
      </trkpt>
      <trkpt lat="45.272" lon="0.36416">
        <ele>115</ele>
        <time>2016-03-22T13:29:58Z</time>
      </trkpt>
      <trkpt lat="45.27203" lon="0.36419">
        <ele>113</ele>
        <time>2016-03-22T13:30:04Z</time>
      </trkpt>
      <trkpt lat="45.27207" lon="0.3642">
        <ele>114</ele>
        <time>2016-03-22T13:30:08Z</time>
      </trkpt>
      <trkpt lat="45.27214" lon="0.36422">
        <ele>112</ele>
        <time>2016-03-22T13:30:12Z</time>
      </trkpt>
      <trkpt lat="45.27218" lon="0.36422">
        <ele>111</ele>
        <time>2016-03-22T13:30:17Z</time>
      </trkpt>
      <trkpt lat="45.27225" lon="0.36423">
        <ele>110</ele>
        <time>2016-03-22T13:30:22Z</time>
      </trkpt>
      <trkpt lat="45.2723" lon="0.36425">
        <ele>111</ele>
        <time>2016-03-22T13:30:27Z</time>
      </trkpt>
      <trkpt lat="45.27234" lon="0.36426">
        <ele>111</ele>
        <time>2016-03-22T13:30:31Z</time>
      </trkpt>
      <trkpt lat="45.27237" lon="0.36428">
        <ele>111</ele>
        <time>2016-03-22T13:30:35Z</time>
      </trkpt>
      <trkpt lat="45.2724" lon="0.3643">
        <ele>114</ele>
        <time>2016-03-22T13:30:40Z</time>
      </trkpt>
      <trkpt lat="45.27245" lon="0.36434">
        <ele>110</ele>
        <time>2016-03-22T13:30:44Z</time>
      </trkpt>
      <trkpt lat="45.27249" lon="0.36435">
        <ele>111</ele>
        <time>2016-03-22T13:30:49Z</time>
      </trkpt>
      <trkpt lat="45.27256" lon="0.36437">
        <ele>108</ele>
        <time>2016-03-22T13:30:54Z</time>
      </trkpt>
      <trkpt lat="45.27259" lon="0.3644">
        <ele>112</ele>
        <time>2016-03-22T13:31:01Z</time>
      </trkpt>
      <trkpt lat="45.27261" lon="0.36443">
        <ele>112</ele>
        <time>2016-03-22T13:31:05Z</time>
      </trkpt>
      <trkpt lat="45.27268" lon="0.36445">
        <ele>111</ele>
        <time>2016-03-22T13:31:10Z</time>
      </trkpt>
      <trkpt lat="45.27275" lon="0.36446">
        <ele>111</ele>
        <time>2016-03-22T13:31:14Z</time>
      </trkpt>
      <trkpt lat="45.27281" lon="0.36447">
        <ele>111</ele>
        <time>2016-03-22T13:31:19Z</time>
      </trkpt>
      <trkpt lat="45.27287" lon="0.36449">
        <ele>110</ele>
        <time>2016-03-22T13:31:23Z</time>
      </trkpt>
      <trkpt lat="45.27292" lon="0.3645">
        <ele>111</ele>
        <time>2016-03-22T13:31:27Z</time>
      </trkpt>
      <trkpt lat="45.27296" lon="0.36451">
        <ele>111</ele>
        <time>2016-03-22T13:31:31Z</time>
      </trkpt>
      <trkpt lat="45.27301" lon="0.36452">
        <ele>111</ele>
        <time>2016-03-22T13:31:35Z</time>
      </trkpt>
      <trkpt lat="45.27305" lon="0.36454">
        <ele>112</ele>
        <time>2016-03-22T13:31:40Z</time>
      </trkpt>
      <trkpt lat="45.2731" lon="0.36455">
        <ele>112</ele>
        <time>2016-03-22T13:31:45Z</time>
      </trkpt>
      <trkpt lat="45.27317" lon="0.36457">
        <ele>112</ele>
        <time>2016-03-22T13:31:50Z</time>
      </trkpt>
      <trkpt lat="45.27321" lon="0.36458">
        <ele>112</ele>
        <time>2016-03-22T13:31:54Z</time>
      </trkpt>
      <trkpt lat="45.27332" lon="0.36458">
        <ele>111</ele>
        <time>2016-03-22T13:31:59Z</time>
      </trkpt>
      <trkpt lat="45.27335" lon="0.3646">
        <ele>111</ele>
        <time>2016-03-22T13:32:03Z</time>
      </trkpt>
      <trkpt lat="45.2734" lon="0.36459">
        <ele>111</ele>
        <time>2016-03-22T13:32:07Z</time>
      </trkpt>
      <trkpt lat="45.27347" lon="0.36461">
        <ele>110</ele>
        <time>2016-03-22T13:32:12Z</time>
      </trkpt>
      <trkpt lat="45.27351" lon="0.36464">
        <ele>111</ele>
        <time>2016-03-22T13:32:17Z</time>
      </trkpt>
      <trkpt lat="45.27357" lon="0.36467">
        <ele>110</ele>
        <time>2016-03-22T13:32:21Z</time>
      </trkpt>
      <trkpt lat="45.27361" lon="0.36468">
        <ele>110</ele>
        <time>2016-03-22T13:32:26Z</time>
      </trkpt>
      <trkpt lat="45.27367" lon="0.36469">
        <ele>111</ele>
        <time>2016-03-22T13:32:31Z</time>
      </trkpt>
      <trkpt lat="45.27372" lon="0.36471">
        <ele>111</ele>
        <time>2016-03-22T13:32:35Z</time>
      </trkpt>
      <trkpt lat="45.27377" lon="0.36473">
        <ele>111</ele>
        <time>2016-03-22T13:32:40Z</time>
      </trkpt>
      <trkpt lat="45.27385" lon="0.36475">
        <ele>110</ele>
        <time>2016-03-22T13:32:45Z</time>
      </trkpt>
      <trkpt lat="45.27389" lon="0.36476">
        <ele>108</ele>
        <time>2016-03-22T13:32:49Z</time>
      </trkpt>
      <trkpt lat="45.27394" lon="0.36479">
        <ele>108</ele>
        <time>2016-03-22T13:32:53Z</time>
      </trkpt>
      <trkpt lat="45.274" lon="0.36479">
        <ele>109</ele>
        <time>2016-03-22T13:32:57Z</time>
      </trkpt>
      <trkpt lat="45.27404" lon="0.3648">
        <ele>109</ele>
        <time>2016-03-22T13:33:02Z</time>
      </trkpt>
      <trkpt lat="45.27409" lon="0.36484">
        <ele>107</ele>
        <time>2016-03-22T13:33:07Z</time>
      </trkpt>
      <trkpt lat="45.27416" lon="0.36486">
        <ele>106</ele>
        <time>2016-03-22T13:33:12Z</time>
      </trkpt>
      <trkpt lat="45.27421" lon="0.3649">
        <ele>105</ele>
        <time>2016-03-22T13:33:17Z</time>
      </trkpt>
      <trkpt lat="45.27425" lon="0.36493">
        <ele>105</ele>
        <time>2016-03-22T13:33:21Z</time>
      </trkpt>
      <trkpt lat="45.27429" lon="0.36497">
        <ele>104</ele>
        <time>2016-03-22T13:33:25Z</time>
      </trkpt>
      <trkpt lat="45.27433" lon="0.36498">
        <ele>104</ele>
        <time>2016-03-22T13:33:29Z</time>
      </trkpt>
      <trkpt lat="45.27439" lon="0.365">
        <ele>105</ele>
        <time>2016-03-22T13:33:34Z</time>
      </trkpt>
      <trkpt lat="45.27444" lon="0.36502">
        <ele>105</ele>
        <time>2016-03-22T13:33:38Z</time>
      </trkpt>
      <trkpt lat="45.27448" lon="0.36504">
        <ele>105</ele>
        <time>2016-03-22T13:33:42Z</time>
      </trkpt>
      <trkpt lat="45.27453" lon="0.36507">
        <ele>104</ele>
        <time>2016-03-22T13:33:47Z</time>
      </trkpt>
      <trkpt lat="45.27457" lon="0.3651">
        <ele>104</ele>
        <time>2016-03-22T13:33:51Z</time>
      </trkpt>
      <trkpt lat="45.27462" lon="0.36511">
        <ele>105</ele>
        <time>2016-03-22T13:33:55Z</time>
      </trkpt>
      <trkpt lat="45.27468" lon="0.36514">
        <ele>104</ele>
        <time>2016-03-22T13:34:00Z</time>
      </trkpt>
      <trkpt lat="45.27472" lon="0.36517">
        <ele>101</ele>
        <time>2016-03-22T13:34:04Z</time>
      </trkpt>
      <trkpt lat="45.27478" lon="0.36518">
        <ele>103</ele>
        <time>2016-03-22T13:34:09Z</time>
      </trkpt>
      <trkpt lat="45.27482" lon="0.36521">
        <ele>104</ele>
        <time>2016-03-22T13:34:14Z</time>
      </trkpt>
      <trkpt lat="45.27486" lon="0.36522">
        <ele>102</ele>
        <time>2016-03-22T13:34:18Z</time>
      </trkpt>
      <trkpt lat="45.27491" lon="0.36527">
        <ele>104</ele>
        <time>2016-03-22T13:34:23Z</time>
      </trkpt>
      <trkpt lat="45.27498" lon="0.36529">
        <ele>104</ele>
        <time>2016-03-22T13:34:28Z</time>
      </trkpt>
      <trkpt lat="45.27502" lon="0.36532">
        <ele>106</ele>
        <time>2016-03-22T13:34:32Z</time>
      </trkpt>
      <trkpt lat="45.27505" lon="0.3654">
        <ele>106</ele>
        <time>2016-03-22T13:34:36Z</time>
      </trkpt>
      <trkpt lat="45.27509" lon="0.36543">
        <ele>105</ele>
        <time>2016-03-22T13:34:40Z</time>
      </trkpt>
      <trkpt lat="45.27512" lon="0.36545">
        <ele>106</ele>
        <time>2016-03-22T13:34:44Z</time>
      </trkpt>
      <trkpt lat="45.27516" lon="0.3655">
        <ele>107</ele>
        <time>2016-03-22T13:34:49Z</time>
      </trkpt>
      <trkpt lat="45.27521" lon="0.36557">
        <ele>105</ele>
        <time>2016-03-22T13:34:53Z</time>
      </trkpt>
      <trkpt lat="45.27524" lon="0.36561">
        <ele>108</ele>
        <time>2016-03-22T13:34:58Z</time>
      </trkpt>
      <trkpt lat="45.27526" lon="0.36565">
        <ele>109</ele>
        <time>2016-03-22T13:35:02Z</time>
      </trkpt>
      <trkpt lat="45.27531" lon="0.3657">
        <ele>109</ele>
        <time>2016-03-22T13:35:07Z</time>
      </trkpt>
      <trkpt lat="45.27537" lon="0.36574">
        <ele>109</ele>
        <time>2016-03-22T13:35:11Z</time>
      </trkpt>
      <trkpt lat="45.27541" lon="0.36578">
        <ele>111</ele>
        <time>2016-03-22T13:35:16Z</time>
      </trkpt>
      <trkpt lat="45.27547" lon="0.36582">
        <ele>112</ele>
        <time>2016-03-22T13:35:21Z</time>
      </trkpt>
      <trkpt lat="45.2755" lon="0.36587">
        <ele>113</ele>
        <time>2016-03-22T13:35:25Z</time>
      </trkpt>
      <trkpt lat="45.27554" lon="0.3659">
        <ele>114</ele>
        <time>2016-03-22T13:35:30Z</time>
      </trkpt>
      <trkpt lat="45.27558" lon="0.36594">
        <ele>113</ele>
        <time>2016-03-22T13:35:34Z</time>
      </trkpt>
      <trkpt lat="45.27562" lon="0.36598">
        <ele>113</ele>
        <time>2016-03-22T13:35:38Z</time>
      </trkpt>
      <trkpt lat="45.27564" lon="0.36602">
        <ele>113</ele>
        <time>2016-03-22T13:35:43Z</time>
      </trkpt>
      <trkpt lat="45.27567" lon="0.36608">
        <ele>114</ele>
        <time>2016-03-22T13:35:47Z</time>
      </trkpt>
      <trkpt lat="45.27571" lon="0.36612">
        <ele>114</ele>
        <time>2016-03-22T13:35:52Z</time>
      </trkpt>
      <trkpt lat="45.27573" lon="0.36617">
        <ele>116</ele>
        <time>2016-03-22T13:35:56Z</time>
      </trkpt>
      <trkpt lat="45.27578" lon="0.36621">
        <ele>115</ele>
        <time>2016-03-22T13:36:01Z</time>
      </trkpt>
      <trkpt lat="45.27581" lon="0.36624">
        <ele>114</ele>
        <time>2016-03-22T13:36:05Z</time>
      </trkpt>
      <trkpt lat="45.27584" lon="0.36628">
        <ele>117</ele>
        <time>2016-03-22T13:36:11Z</time>
      </trkpt>
      <trkpt lat="45.27588" lon="0.36636">
        <ele>117</ele>
        <time>2016-03-22T13:36:15Z</time>
      </trkpt>
      <trkpt lat="45.27592" lon="0.36646">
        <ele>114</ele>
        <time>2016-03-22T13:36:20Z</time>
      </trkpt>
      <trkpt lat="45.27595" lon="0.36651">
        <ele>115</ele>
        <time>2016-03-22T13:36:24Z</time>
      </trkpt>
      <trkpt lat="45.27598" lon="0.36655">
        <ele>114</ele>
        <time>2016-03-22T13:36:29Z</time>
      </trkpt>
      <trkpt lat="45.27602" lon="0.3666">
        <ele>114</ele>
        <time>2016-03-22T13:36:34Z</time>
      </trkpt>
      <trkpt lat="45.27606" lon="0.36664">
        <ele>116</ele>
        <time>2016-03-22T13:36:38Z</time>
      </trkpt>
      <trkpt lat="45.27611" lon="0.36667">
        <ele>116</ele>
        <time>2016-03-22T13:36:42Z</time>
      </trkpt>
      <trkpt lat="45.27617" lon="0.36673">
        <ele>115</ele>
        <time>2016-03-22T13:36:47Z</time>
      </trkpt>
      <trkpt lat="45.27623" lon="0.36677">
        <ele>116</ele>
        <time>2016-03-22T13:36:52Z</time>
      </trkpt>
      <trkpt lat="45.27624" lon="0.36682">
        <ele>114</ele>
        <time>2016-03-22T13:36:56Z</time>
      </trkpt>
      <trkpt lat="45.27628" lon="0.36686">
        <ele>115</ele>
        <time>2016-03-22T13:37:01Z</time>
      </trkpt>
      <trkpt lat="45.27633" lon="0.36688">
        <ele>116</ele>
        <time>2016-03-22T13:37:05Z</time>
      </trkpt>
      <trkpt lat="45.27636" lon="0.36692">
        <ele>116</ele>
        <time>2016-03-22T13:37:09Z</time>
      </trkpt>
      <trkpt lat="45.27641" lon="0.36694">
        <ele>116</ele>
        <time>2016-03-22T13:37:13Z</time>
      </trkpt>
      <trkpt lat="45.27649" lon="0.36696">
        <ele>115</ele>
        <time>2016-03-22T13:37:17Z</time>
      </trkpt>
      <trkpt lat="45.27654" lon="0.36699">
        <ele>115</ele>
        <time>2016-03-22T13:37:21Z</time>
      </trkpt>
      <trkpt lat="45.27657" lon="0.36701">
        <ele>115</ele>
        <time>2016-03-22T13:37:25Z</time>
      </trkpt>
      <trkpt lat="45.27663" lon="0.36703">
        <ele>115</ele>
        <time>2016-03-22T13:37:29Z</time>
      </trkpt>
      <trkpt lat="45.2767" lon="0.36707">
        <ele>113</ele>
        <time>2016-03-22T13:37:34Z</time>
      </trkpt>
      <trkpt lat="45.27674" lon="0.36709">
        <ele>112</ele>
        <time>2016-03-22T13:37:38Z</time>
      </trkpt>
      <trkpt lat="45.2768" lon="0.36711">
        <ele>112</ele>
        <time>2016-03-22T13:37:43Z</time>
      </trkpt>
      <trkpt lat="45.27686" lon="0.36711">
        <ele>113</ele>
        <time>2016-03-22T13:37:47Z</time>
      </trkpt>
      <trkpt lat="45.27689" lon="0.36714">
        <ele>114</ele>
        <time>2016-03-22T13:37:52Z</time>
      </trkpt>
      <trkpt lat="45.27694" lon="0.36717">
        <ele>114</ele>
        <time>2016-03-22T13:37:57Z</time>
      </trkpt>
      <trkpt lat="45.27701" lon="0.36719">
        <ele>112</ele>
        <time>2016-03-22T13:38:02Z</time>
      </trkpt>
      <trkpt lat="45.27705" lon="0.36722">
        <ele>112</ele>
        <time>2016-03-22T13:38:06Z</time>
      </trkpt>
      <trkpt lat="45.27709" lon="0.36723">
        <ele>114</ele>
        <time>2016-03-22T13:38:10Z</time>
      </trkpt>
      <trkpt lat="45.27715" lon="0.36726">
        <ele>114</ele>
        <time>2016-03-22T13:38:15Z</time>
      </trkpt>
      <trkpt lat="45.27719" lon="0.36729">
        <ele>113</ele>
        <time>2016-03-22T13:38:19Z</time>
      </trkpt>
      <trkpt lat="45.27723" lon="0.3673">
        <ele>114</ele>
        <time>2016-03-22T13:38:23Z</time>
      </trkpt>
      <trkpt lat="45.27729" lon="0.36734">
        <ele>115</ele>
        <time>2016-03-22T13:38:28Z</time>
      </trkpt>
      <trkpt lat="45.27733" lon="0.36738">
        <ele>114</ele>
        <time>2016-03-22T13:38:32Z</time>
      </trkpt>
      <trkpt lat="45.27736" lon="0.36743">
        <ele>114</ele>
        <time>2016-03-22T13:38:37Z</time>
      </trkpt>
      <trkpt lat="45.27736" lon="0.36751">
        <ele>113</ele>
        <time>2016-03-22T13:38:42Z</time>
      </trkpt>
      <trkpt lat="45.27734" lon="0.36757">
        <ele>112</ele>
        <time>2016-03-22T13:38:46Z</time>
      </trkpt>
      <trkpt lat="45.27732" lon="0.36762">
        <ele>112</ele>
        <time>2016-03-22T13:38:50Z</time>
      </trkpt>
      <trkpt lat="45.2773" lon="0.36769">
        <ele>112</ele>
        <time>2016-03-22T13:38:55Z</time>
      </trkpt>
      <trkpt lat="45.27728" lon="0.36776">
        <ele>111</ele>
        <time>2016-03-22T13:39:00Z</time>
      </trkpt>
      <trkpt lat="45.27726" lon="0.36783">
        <ele>110</ele>
        <time>2016-03-22T13:39:04Z</time>
      </trkpt>
      <trkpt lat="45.27723" lon="0.3679">
        <ele>110</ele>
        <time>2016-03-22T13:39:09Z</time>
      </trkpt>
      <trkpt lat="45.27721" lon="0.36795">
        <ele>111</ele>
        <time>2016-03-22T13:39:13Z</time>
      </trkpt>
      <trkpt lat="45.27717" lon="0.36803">
        <ele>110</ele>
        <time>2016-03-22T13:39:18Z</time>
      </trkpt>
      <trkpt lat="45.27715" lon="0.36807">
        <ele>110</ele>
        <time>2016-03-22T13:39:22Z</time>
      </trkpt>
      <trkpt lat="45.27712" lon="0.36813">
        <ele>109</ele>
        <time>2016-03-22T13:39:26Z</time>
      </trkpt>
      <trkpt lat="45.27708" lon="0.36818">
        <ele>107</ele>
        <time>2016-03-22T13:39:31Z</time>
      </trkpt>
      <trkpt lat="45.27703" lon="0.36824">
        <ele>106</ele>
        <time>2016-03-22T13:39:36Z</time>
      </trkpt>
      <trkpt lat="45.27699" lon="0.36828">
        <ele>106</ele>
        <time>2016-03-22T13:39:40Z</time>
      </trkpt>
      <trkpt lat="45.27695" lon="0.3683">
        <ele>108</ele>
        <time>2016-03-22T13:39:46Z</time>
      </trkpt>
      <trkpt lat="45.27691" lon="0.36832">
        <ele>108</ele>
        <time>2016-03-22T13:39:51Z</time>
      </trkpt>
      <trkpt lat="45.27685" lon="0.36835">
        <ele>108</ele>
        <time>2016-03-22T13:39:56Z</time>
      </trkpt>
      <trkpt lat="45.27681" lon="0.36838">
        <ele>109</ele>
        <time>2016-03-22T13:40:01Z</time>
      </trkpt>
      <trkpt lat="45.27676" lon="0.36842">
        <ele>108</ele>
        <time>2016-03-22T13:40:05Z</time>
      </trkpt>
      <trkpt lat="45.27669" lon="0.36845">
        <ele>107</ele>
        <time>2016-03-22T13:40:10Z</time>
      </trkpt>
      <trkpt lat="45.2766" lon="0.36848">
        <ele>103</ele>
        <time>2016-03-22T13:40:14Z</time>
      </trkpt>
      <trkpt lat="45.27656" lon="0.36853">
        <ele>104</ele>
        <time>2016-03-22T13:40:19Z</time>
      </trkpt>
      <trkpt lat="45.27653" lon="0.36859">
        <ele>104</ele>
        <time>2016-03-22T13:40:24Z</time>
      </trkpt>
      <trkpt lat="45.27652" lon="0.36866">
        <ele>104</ele>
        <time>2016-03-22T13:40:28Z</time>
      </trkpt>
      <trkpt lat="45.27653" lon="0.36873">
        <ele>104</ele>
        <time>2016-03-22T13:40:32Z</time>
      </trkpt>
      <trkpt lat="45.27655" lon="0.3688">
        <ele>103</ele>
        <time>2016-03-22T13:40:36Z</time>
      </trkpt>
      <trkpt lat="45.27657" lon="0.36887">
        <ele>103</ele>
        <time>2016-03-22T13:40:40Z</time>
      </trkpt>
      <trkpt lat="45.27658" lon="0.36892">
        <ele>105</ele>
        <time>2016-03-22T13:40:44Z</time>
      </trkpt>
      <trkpt lat="45.2766" lon="0.36897">
        <ele>104</ele>
        <time>2016-03-22T13:40:48Z</time>
      </trkpt>
      <trkpt lat="45.27662" lon="0.36902">
        <ele>105</ele>
        <time>2016-03-22T13:40:53Z</time>
      </trkpt>
      <trkpt lat="45.27664" lon="0.3691">
        <ele>102</ele>
        <time>2016-03-22T13:40:57Z</time>
      </trkpt>
      <trkpt lat="45.27662" lon="0.36918">
        <ele>101</ele>
        <time>2016-03-22T13:41:01Z</time>
      </trkpt>
      <trkpt lat="45.2766" lon="0.36923">
        <ele>100</ele>
        <time>2016-03-22T13:41:05Z</time>
      </trkpt>
      <trkpt lat="45.27659" lon="0.36934">
        <ele>102</ele>
        <time>2016-03-22T13:41:10Z</time>
      </trkpt>
      <trkpt lat="45.27657" lon="0.36937">
        <ele>102</ele>
        <time>2016-03-22T13:41:14Z</time>
      </trkpt>
      <trkpt lat="45.27654" lon="0.36941">
        <ele>102</ele>
        <time>2016-03-22T13:41:20Z</time>
      </trkpt>
      <trkpt lat="45.27647" lon="0.36946">
        <ele>98</ele>
        <time>2016-03-22T13:41:25Z</time>
      </trkpt>
      <trkpt lat="45.27646" lon="0.36952">
        <ele>100</ele>
        <time>2016-03-22T13:41:29Z</time>
      </trkpt>
      <trkpt lat="45.27641" lon="0.36962">
        <ele>99</ele>
        <time>2016-03-22T13:41:34Z</time>
      </trkpt>
      <trkpt lat="45.27638" lon="0.36966">
        <ele>100</ele>
        <time>2016-03-22T13:41:41Z</time>
      </trkpt>
      <trkpt lat="45.2763" lon="0.36966">
        <ele>100</ele>
        <time>2016-03-22T13:41:46Z</time>
      </trkpt>
      <trkpt lat="45.27627" lon="0.36961">
        <ele>102</ele>
        <time>2016-03-22T13:41:50Z</time>
      </trkpt>
      <trkpt lat="45.27622" lon="0.36959">
        <ele>101</ele>
        <time>2016-03-22T13:41:55Z</time>
      </trkpt>
      <trkpt lat="45.27616" lon="0.36956">
        <ele>98</ele>
        <time>2016-03-22T13:41:59Z</time>
      </trkpt>
      <trkpt lat="45.2761" lon="0.36953">
        <ele>95</ele>
        <time>2016-03-22T13:42:04Z</time>
      </trkpt>
      <trkpt lat="45.27605" lon="0.36955">
        <ele>92</ele>
        <time>2016-03-22T13:42:08Z</time>
      </trkpt>
      <trkpt lat="45.27599" lon="0.36959">
        <ele>90</ele>
        <time>2016-03-22T13:42:13Z</time>
      </trkpt>
      <trkpt lat="45.27597" lon="0.36965">
        <ele>90</ele>
        <time>2016-03-22T13:42:17Z</time>
      </trkpt>
      <trkpt lat="45.2759" lon="0.36966">
        <ele>88</ele>
        <time>2016-03-22T13:42:21Z</time>
      </trkpt>
      <trkpt lat="45.27588" lon="0.36973">
        <ele>91</ele>
        <time>2016-03-22T13:42:26Z</time>
      </trkpt>
      <trkpt lat="45.27588" lon="0.36983">
        <ele>91</ele>
        <time>2016-03-22T13:42:30Z</time>
      </trkpt>
      <trkpt lat="45.27588" lon="0.36989">
        <ele>92</ele>
        <time>2016-03-22T13:42:34Z</time>
      </trkpt>
      <trkpt lat="45.27591" lon="0.36998">
        <ele>92</ele>
        <time>2016-03-22T13:42:38Z</time>
      </trkpt>
      <trkpt lat="45.27594" lon="0.37004">
        <ele>94</ele>
        <time>2016-03-22T13:42:43Z</time>
      </trkpt>
      <trkpt lat="45.27598" lon="0.37008">
        <ele>95</ele>
        <time>2016-03-22T13:42:48Z</time>
      </trkpt>
      <trkpt lat="45.27598" lon="0.37016">
        <ele>95</ele>
        <time>2016-03-22T13:42:52Z</time>
      </trkpt>
      <trkpt lat="45.276" lon="0.37022">
        <ele>94</ele>
        <time>2016-03-22T13:42:56Z</time>
      </trkpt>
      <trkpt lat="45.27599" lon="0.37029">
        <ele>96</ele>
        <time>2016-03-22T13:43:00Z</time>
      </trkpt>
      <trkpt lat="45.27598" lon="0.37035">
        <ele>95</ele>
        <time>2016-03-22T13:43:05Z</time>
      </trkpt>
      <trkpt lat="45.27595" lon="0.37038">
        <ele>93</ele>
        <time>2016-03-22T13:43:10Z</time>
      </trkpt>
      <trkpt lat="45.27592" lon="0.37043">
        <ele>93</ele>
        <time>2016-03-22T13:43:15Z</time>
      </trkpt>
      <trkpt lat="45.2759" lon="0.37046">
        <ele>92</ele>
        <time>2016-03-22T13:43:18Z</time>
      </trkpt>
      <trkpt lat="45.27586" lon="0.37051">
        <ele>93</ele>
        <time>2016-03-22T13:43:23Z</time>
      </trkpt>
      <trkpt lat="45.27585" lon="0.37055">
        <ele>93</ele>
        <time>2016-03-22T13:43:27Z</time>
      </trkpt>
      <trkpt lat="45.27581" lon="0.37059">
        <ele>92</ele>
        <time>2016-03-22T13:43:32Z</time>
      </trkpt>
      <trkpt lat="45.27577" lon="0.37062">
        <ele>91</ele>
        <time>2016-03-22T13:43:36Z</time>
      </trkpt>
      <trkpt lat="45.27574" lon="0.37068">
        <ele>88</ele>
        <time>2016-03-22T13:43:40Z</time>
      </trkpt>
      <trkpt lat="45.2757" lon="0.37072">
        <ele>88</ele>
        <time>2016-03-22T13:43:45Z</time>
      </trkpt>
      <trkpt lat="45.27567" lon="0.37075">
        <ele>88</ele>
        <time>2016-03-22T13:43:49Z</time>
      </trkpt>
      <trkpt lat="45.27564" lon="0.37077">
        <ele>88</ele>
        <time>2016-03-22T13:43:54Z</time>
      </trkpt>
      <trkpt lat="45.27558" lon="0.3708">
        <ele>87</ele>
        <time>2016-03-22T13:43:59Z</time>
      </trkpt>
      <trkpt lat="45.27555" lon="0.37082">
        <ele>87</ele>
        <time>2016-03-22T13:44:04Z</time>
      </trkpt>
      <trkpt lat="45.27548" lon="0.37086">
        <ele>86</ele>
        <time>2016-03-22T13:44:09Z</time>
      </trkpt>
      <trkpt lat="45.27546" lon="0.37088">
        <ele>86</ele>
        <time>2016-03-22T13:44:13Z</time>
      </trkpt>
      <trkpt lat="45.2754" lon="0.3709">
        <ele>84</ele>
        <time>2016-03-22T13:44:18Z</time>
      </trkpt>
      <trkpt lat="45.27534" lon="0.3709">
        <ele>82</ele>
        <time>2016-03-22T13:44:22Z</time>
      </trkpt>
      <trkpt lat="45.27531" lon="0.37093">
        <ele>81</ele>
        <time>2016-03-22T13:44:26Z</time>
      </trkpt>
      <trkpt lat="45.27527" lon="0.37093">
        <ele>82</ele>
        <time>2016-03-22T13:44:32Z</time>
      </trkpt>
      <trkpt lat="45.27523" lon="0.37093">
        <ele>82</ele>
        <time>2016-03-22T13:44:36Z</time>
      </trkpt>
      <trkpt lat="45.27518" lon="0.37094">
        <ele>82</ele>
        <time>2016-03-22T13:44:41Z</time>
      </trkpt>
      <trkpt lat="45.27514" lon="0.37096">
        <ele>82</ele>
        <time>2016-03-22T13:44:46Z</time>
      </trkpt>
      <trkpt lat="45.2751" lon="0.37097">
        <ele>82</ele>
        <time>2016-03-22T13:44:50Z</time>
      </trkpt>
      <trkpt lat="45.27505" lon="0.371">
        <ele>82</ele>
        <time>2016-03-22T13:44:54Z</time>
      </trkpt>
      <trkpt lat="45.275" lon="0.37104">
        <ele>81</ele>
        <time>2016-03-22T13:44:59Z</time>
      </trkpt>
      <trkpt lat="45.27495" lon="0.37106">
        <ele>80</ele>
        <time>2016-03-22T13:45:04Z</time>
      </trkpt>
      <trkpt lat="45.27492" lon="0.37109">
        <ele>80</ele>
        <time>2016-03-22T13:45:09Z</time>
      </trkpt>
      <trkpt lat="45.27489" lon="0.37111">
        <ele>81</ele>
        <time>2016-03-22T13:45:14Z</time>
      </trkpt>
      <trkpt lat="45.27483" lon="0.37119">
        <ele>79</ele>
        <time>2016-03-22T13:45:19Z</time>
      </trkpt>
      <trkpt lat="45.2748" lon="0.3712">
        <ele>82</ele>
        <time>2016-03-22T13:45:23Z</time>
      </trkpt>
      <trkpt lat="45.27472" lon="0.37125">
        <ele>78</ele>
        <time>2016-03-22T13:45:28Z</time>
      </trkpt>
      <trkpt lat="45.27468" lon="0.37128">
        <ele>79</ele>
        <time>2016-03-22T13:45:32Z</time>
      </trkpt>
      <trkpt lat="45.27463" lon="0.37129">
        <ele>78</ele>
        <time>2016-03-22T13:45:36Z</time>
      </trkpt>
      <trkpt lat="45.27458" lon="0.37132">
        <ele>77</ele>
        <time>2016-03-22T13:45:41Z</time>
      </trkpt>
      <trkpt lat="45.27454" lon="0.37136">
        <ele>77</ele>
        <time>2016-03-22T13:45:45Z</time>
      </trkpt>
      <trkpt lat="45.27451" lon="0.37138">
        <ele>76</ele>
        <time>2016-03-22T13:45:49Z</time>
      </trkpt>
      <trkpt lat="45.27446" lon="0.3714">
        <ele>76</ele>
        <time>2016-03-22T13:45:54Z</time>
      </trkpt>
      <trkpt lat="45.27439" lon="0.37144">
        <ele>74</ele>
        <time>2016-03-22T13:45:58Z</time>
      </trkpt>
      <trkpt lat="45.27435" lon="0.37146">
        <ele>74</ele>
        <time>2016-03-22T13:46:02Z</time>
      </trkpt>
      <trkpt lat="45.27431" lon="0.37147">
        <ele>74</ele>
        <time>2016-03-22T13:46:06Z</time>
      </trkpt>
      <trkpt lat="45.27427" lon="0.37149">
        <ele>75</ele>
        <time>2016-03-22T13:46:11Z</time>
      </trkpt>
      <trkpt lat="45.27423" lon="0.37151">
        <ele>75</ele>
        <time>2016-03-22T13:46:15Z</time>
      </trkpt>
      <trkpt lat="45.27417" lon="0.37152">
        <ele>74</ele>
        <time>2016-03-22T13:46:20Z</time>
      </trkpt>
      <trkpt lat="45.27413" lon="0.37154">
        <ele>74</ele>
        <time>2016-03-22T13:46:25Z</time>
      </trkpt>
      <trkpt lat="45.27407" lon="0.37155">
        <ele>75</ele>
        <time>2016-03-22T13:46:30Z</time>
      </trkpt>
      <trkpt lat="45.27403" lon="0.37156">
        <ele>74</ele>
        <time>2016-03-22T13:46:34Z</time>
      </trkpt>
      <trkpt lat="45.27398" lon="0.37156">
        <ele>74</ele>
        <time>2016-03-22T13:46:38Z</time>
      </trkpt>
      <trkpt lat="45.27394" lon="0.37158">
        <ele>72</ele>
        <time>2016-03-22T13:46:43Z</time>
      </trkpt>
      <trkpt lat="45.27389" lon="0.37155">
        <ele>74</ele>
        <time>2016-03-22T13:46:48Z</time>
      </trkpt>
      <trkpt lat="45.27386" lon="0.37153">
        <ele>76</ele>
        <time>2016-03-22T13:46:52Z</time>
      </trkpt>
      <trkpt lat="45.2738" lon="0.37154">
        <ele>75</ele>
        <time>2016-03-22T13:46:57Z</time>
      </trkpt>
      <trkpt lat="45.27375" lon="0.37156">
        <ele>75</ele>
        <time>2016-03-22T13:47:01Z</time>
      </trkpt>
      <trkpt lat="45.27371" lon="0.37154">
        <ele>78</ele>
        <time>2016-03-22T13:47:06Z</time>
      </trkpt>
      <trkpt lat="45.27365" lon="0.37159">
        <ele>76</ele>
        <time>2016-03-22T13:47:10Z</time>
      </trkpt>
      <trkpt lat="45.27361" lon="0.37159">
        <ele>77</ele>
        <time>2016-03-22T13:47:15Z</time>
      </trkpt>
      <trkpt lat="45.27354" lon="0.37163">
        <ele>76</ele>
        <time>2016-03-22T13:47:19Z</time>
      </trkpt>
      <trkpt lat="45.27348" lon="0.37161">
        <ele>76</ele>
        <time>2016-03-22T13:47:24Z</time>
      </trkpt>
      <trkpt lat="45.27344" lon="0.37159">
        <ele>76</ele>
        <time>2016-03-22T13:47:28Z</time>
      </trkpt>
      <trkpt lat="45.2734" lon="0.37157">
        <ele>77</ele>
        <time>2016-03-22T13:47:33Z</time>
      </trkpt>
      <trkpt lat="45.27335" lon="0.37156">
        <ele>75</ele>
        <time>2016-03-22T13:47:37Z</time>
      </trkpt>
      <trkpt lat="45.2733" lon="0.37156">
        <ele>74</ele>
        <time>2016-03-22T13:47:41Z</time>
      </trkpt>
      <trkpt lat="45.27324" lon="0.37156">
        <ele>76</ele>
        <time>2016-03-22T13:47:46Z</time>
      </trkpt>
      <trkpt lat="45.27318" lon="0.37156">
        <ele>76</ele>
        <time>2016-03-22T13:47:50Z</time>
      </trkpt>
      <trkpt lat="45.27312" lon="0.37155">
        <ele>76</ele>
        <time>2016-03-22T13:47:55Z</time>
      </trkpt>
      <trkpt lat="45.27306" lon="0.37155">
        <ele>77</ele>
        <time>2016-03-22T13:48:00Z</time>
      </trkpt>
      <trkpt lat="45.27303" lon="0.37155">
        <ele>78</ele>
        <time>2016-03-22T13:48:04Z</time>
      </trkpt>
      <trkpt lat="45.27295" lon="0.37157">
        <ele>74</ele>
        <time>2016-03-22T13:48:09Z</time>
      </trkpt>
      <trkpt lat="45.27293" lon="0.37169">
        <ele>70</ele>
        <time>2016-03-22T13:48:13Z</time>
      </trkpt>
      <trkpt lat="45.27289" lon="0.3717">
        <ele>70</ele>
        <time>2016-03-22T13:48:18Z</time>
      </trkpt>
      <trkpt lat="45.27284" lon="0.37169">
        <ele>70</ele>
        <time>2016-03-22T13:48:22Z</time>
      </trkpt>
      <trkpt lat="45.2728" lon="0.37168">
        <ele>71</ele>
        <time>2016-03-22T13:48:26Z</time>
      </trkpt>
      <trkpt lat="45.27275" lon="0.37168">
        <ele>72</ele>
        <time>2016-03-22T13:48:31Z</time>
      </trkpt>
      <trkpt lat="45.2727" lon="0.37167">
        <ele>70</ele>
        <time>2016-03-22T13:48:35Z</time>
      </trkpt>
      <trkpt lat="45.27265" lon="0.37167">
        <ele>71</ele>
        <time>2016-03-22T13:48:40Z</time>
      </trkpt>
      <trkpt lat="45.27261" lon="0.37164">
        <ele>71</ele>
        <time>2016-03-22T13:48:44Z</time>
      </trkpt>
      <trkpt lat="45.27255" lon="0.37163">
        <ele>71</ele>
        <time>2016-03-22T13:48:49Z</time>
      </trkpt>
      <trkpt lat="45.2725" lon="0.37161">
        <ele>71</ele>
        <time>2016-03-22T13:48:53Z</time>
      </trkpt>
      <trkpt lat="45.27244" lon="0.3716">
        <ele>71</ele>
        <time>2016-03-22T13:48:58Z</time>
      </trkpt>
      <trkpt lat="45.2724" lon="0.3716">
        <ele>71</ele>
        <time>2016-03-22T13:49:02Z</time>
      </trkpt>
      <trkpt lat="45.27236" lon="0.37159">
        <ele>71</ele>
        <time>2016-03-22T13:49:06Z</time>
      </trkpt>
      <trkpt lat="45.2723" lon="0.3716">
        <ele>71</ele>
        <time>2016-03-22T13:49:11Z</time>
      </trkpt>
      <trkpt lat="45.27226" lon="0.37161">
        <ele>71</ele>
        <time>2016-03-22T13:49:15Z</time>
      </trkpt>
      <trkpt lat="45.2722" lon="0.3716">
        <ele>70</ele>
        <time>2016-03-22T13:49:20Z</time>
      </trkpt>
      <trkpt lat="45.27216" lon="0.37159">
        <ele>70</ele>
        <time>2016-03-22T13:49:25Z</time>
      </trkpt>
      <trkpt lat="45.27212" lon="0.37158">
        <ele>70</ele>
        <time>2016-03-22T13:49:29Z</time>
      </trkpt>
      <trkpt lat="45.27207" lon="0.37155">
        <ele>71</ele>
        <time>2016-03-22T13:49:34Z</time>
      </trkpt>
      <trkpt lat="45.27202" lon="0.37154">
        <ele>70</ele>
        <time>2016-03-22T13:49:38Z</time>
      </trkpt>
      <trkpt lat="45.27197" lon="0.37153">
        <ele>71</ele>
        <time>2016-03-22T13:49:43Z</time>
      </trkpt>
      <trkpt lat="45.27193" lon="0.3715">
        <ele>71</ele>
        <time>2016-03-22T13:49:47Z</time>
      </trkpt>
      <trkpt lat="45.27188" lon="0.37146">
        <ele>70</ele>
        <time>2016-03-22T13:49:52Z</time>
      </trkpt>
      <trkpt lat="45.27183" lon="0.37145">
        <ele>69</ele>
        <time>2016-03-22T13:49:56Z</time>
      </trkpt>
      <trkpt lat="45.27179" lon="0.37142">
        <ele>69</ele>
        <time>2016-03-22T13:50:00Z</time>
      </trkpt>
      <trkpt lat="45.27173" lon="0.37138">
        <ele>68</ele>
        <time>2016-03-22T13:50:05Z</time>
      </trkpt>
      <trkpt lat="45.27167" lon="0.37137">
        <ele>68</ele>
        <time>2016-03-22T13:50:09Z</time>
      </trkpt>
      <trkpt lat="45.2716" lon="0.37136">
        <ele>68</ele>
        <time>2016-03-22T13:50:14Z</time>
      </trkpt>
      <trkpt lat="45.27155" lon="0.37135">
        <ele>68</ele>
        <time>2016-03-22T13:50:19Z</time>
      </trkpt>
      <trkpt lat="45.27149" lon="0.37134">
        <ele>69</ele>
        <time>2016-03-22T13:50:24Z</time>
      </trkpt>
      <trkpt lat="45.27144" lon="0.37132">
        <ele>69</ele>
        <time>2016-03-22T13:50:28Z</time>
      </trkpt>
      <trkpt lat="45.27141" lon="0.37128">
        <ele>69</ele>
        <time>2016-03-22T13:50:33Z</time>
      </trkpt>
      <trkpt lat="45.27137" lon="0.37125">
        <ele>69</ele>
        <time>2016-03-22T13:50:37Z</time>
      </trkpt>
      <trkpt lat="45.2713" lon="0.37127">
        <ele>67</ele>
        <time>2016-03-22T13:50:42Z</time>
      </trkpt>
      <trkpt lat="45.27127" lon="0.37123">
        <ele>69</ele>
        <time>2016-03-22T13:50:46Z</time>
      </trkpt>
      <trkpt lat="45.27122" lon="0.37123">
        <ele>68</ele>
        <time>2016-03-22T13:50:50Z</time>
      </trkpt>
      <trkpt lat="45.27115" lon="0.37123">
        <ele>68</ele>
        <time>2016-03-22T13:50:55Z</time>
      </trkpt>
      <trkpt lat="45.2711" lon="0.37125">
        <ele>68</ele>
        <time>2016-03-22T13:51:00Z</time>
      </trkpt>
      <trkpt lat="45.27106" lon="0.37127">
        <ele>68</ele>
        <time>2016-03-22T13:51:04Z</time>
      </trkpt>
      <trkpt lat="45.27101" lon="0.37129">
        <ele>68</ele>
        <time>2016-03-22T13:51:08Z</time>
      </trkpt>
      <trkpt lat="45.27097" lon="0.3713">
        <ele>69</ele>
        <time>2016-03-22T13:51:12Z</time>
      </trkpt>
      <trkpt lat="45.27093" lon="0.37131">
        <ele>68</ele>
        <time>2016-03-22T13:51:16Z</time>
      </trkpt>
      <trkpt lat="45.27088" lon="0.37131">
        <ele>68</ele>
        <time>2016-03-22T13:51:21Z</time>
      </trkpt>
      <trkpt lat="45.27084" lon="0.37132">
        <ele>68</ele>
        <time>2016-03-22T13:51:25Z</time>
      </trkpt>
      <trkpt lat="45.27079" lon="0.37131">
        <ele>69</ele>
        <time>2016-03-22T13:51:30Z</time>
      </trkpt>
      <trkpt lat="45.27075" lon="0.37131">
        <ele>70</ele>
        <time>2016-03-22T13:51:34Z</time>
      </trkpt>
      <trkpt lat="45.2707" lon="0.3713">
        <ele>69</ele>
        <time>2016-03-22T13:51:39Z</time>
      </trkpt>
      <trkpt lat="45.27064" lon="0.3713">
        <ele>69</ele>
        <time>2016-03-22T13:51:44Z</time>
      </trkpt>
      <trkpt lat="45.27059" lon="0.37131">
        <ele>69</ele>
        <time>2016-03-22T13:51:48Z</time>
      </trkpt>
      <trkpt lat="45.27054" lon="0.3713">
        <ele>69</ele>
        <time>2016-03-22T13:51:52Z</time>
      </trkpt>
      <trkpt lat="45.27049" lon="0.37129">
        <ele>70</ele>
        <time>2016-03-22T13:51:57Z</time>
      </trkpt>
      <trkpt lat="45.27045" lon="0.37128">
        <ele>70</ele>
        <time>2016-03-22T13:52:01Z</time>
      </trkpt>
      <trkpt lat="45.27041" lon="0.37125">
        <ele>72</ele>
        <time>2016-03-22T13:52:05Z</time>
      </trkpt>
      <trkpt lat="45.27036" lon="0.37126">
        <ele>70</ele>
        <time>2016-03-22T13:52:09Z</time>
      </trkpt>
      <trkpt lat="45.27031" lon="0.37124">
        <ele>69</ele>
        <time>2016-03-22T13:52:13Z</time>
      </trkpt>
      <trkpt lat="45.27027" lon="0.37123">
        <ele>69</ele>
        <time>2016-03-22T13:52:20Z</time>
      </trkpt>
      <trkpt lat="45.27023" lon="0.37124">
        <ele>68</ele>
        <time>2016-03-22T13:52:24Z</time>
      </trkpt>
      <trkpt lat="45.27018" lon="0.37122">
        <ele>69</ele>
        <time>2016-03-22T13:52:29Z</time>
      </trkpt>
      <trkpt lat="45.27014" lon="0.37125">
        <ele>70</ele>
        <time>2016-03-22T13:52:33Z</time>
      </trkpt>
      <trkpt lat="45.27011" lon="0.37129">
        <ele>72</ele>
        <time>2016-03-22T13:52:38Z</time>
      </trkpt>
      <trkpt lat="45.27008" lon="0.37137">
        <ele>69</ele>
        <time>2016-03-22T13:52:43Z</time>
      </trkpt>
      <trkpt lat="45.27007" lon="0.37142">
        <ele>72</ele>
        <time>2016-03-22T13:52:48Z</time>
      </trkpt>
      <trkpt lat="45.27008" lon="0.37151">
        <ele>73</ele>
        <time>2016-03-22T13:52:53Z</time>
      </trkpt>
      <trkpt lat="45.27008" lon="0.37158">
        <ele>73</ele>
        <time>2016-03-22T13:53:16Z</time>
      </trkpt>
      <trkpt lat="45.27006" lon="0.37162">
        <ele>75</ele>
        <time>2016-03-22T13:53:28Z</time>
      </trkpt>
      <trkpt lat="45.27006" lon="0.37168">
        <ele>75</ele>
        <time>2016-03-22T13:53:33Z</time>
      </trkpt>
      <trkpt lat="45.27008" lon="0.37173">
        <ele>75</ele>
        <time>2016-03-22T13:53:49Z</time>
      </trkpt>
      <trkpt lat="45.27011" lon="0.37178">
        <ele>77</ele>
        <time>2016-03-22T13:54:08Z</time>
      </trkpt>
      <trkpt lat="45.27013" lon="0.37183">
        <ele>76</ele>
        <time>2016-03-22T13:54:33Z</time>
      </trkpt>
      <trkpt lat="45.27012" lon="0.37189">
        <ele>76</ele>
        <time>2016-03-22T13:55:26Z</time>
      </trkpt>
      <trkpt lat="45.2701" lon="0.37194">
        <ele>75</ele>
        <time>2016-03-22T13:55:56Z</time>
      </trkpt>
      <trkpt lat="45.27009" lon="0.37199">
        <ele>76</ele>
        <time>2016-03-22T13:56:02Z</time>
      </trkpt>
      <trkpt lat="45.27011" lon="0.37205">
        <ele>75</ele>
        <time>2016-03-22T13:56:09Z</time>
      </trkpt>
      <trkpt lat="45.27012" lon="0.3721">
        <ele>75</ele>
        <time>2016-03-22T13:56:14Z</time>
      </trkpt>
      <trkpt lat="45.27014" lon="0.37216">
        <ele>74</ele>
        <time>2016-03-22T13:56:19Z</time>
      </trkpt>
      <trkpt lat="45.27016" lon="0.3722">
        <ele>75</ele>
        <time>2016-03-22T13:56:23Z</time>
      </trkpt>
      <trkpt lat="45.27016" lon="0.37224">
        <ele>77</ele>
        <time>2016-03-22T13:56:27Z</time>
      </trkpt>
      <trkpt lat="45.27017" lon="0.37231">
        <ele>77</ele>
        <time>2016-03-22T13:56:31Z</time>
      </trkpt>
      <trkpt lat="45.27021" lon="0.37235">
        <ele>78</ele>
        <time>2016-03-22T13:56:37Z</time>
      </trkpt>
      <trkpt lat="45.27025" lon="0.3724">
        <ele>78</ele>
        <time>2016-03-22T13:56:41Z</time>
      </trkpt>
      <trkpt lat="45.27027" lon="0.37245">
        <ele>80</ele>
        <time>2016-03-22T13:56:46Z</time>
      </trkpt>
      <trkpt lat="45.2703" lon="0.37249">
        <ele>82</ele>
        <time>2016-03-22T13:56:51Z</time>
      </trkpt>
      <trkpt lat="45.27034" lon="0.37253">
        <ele>79</ele>
        <time>2016-03-22T13:56:56Z</time>
      </trkpt>
      <trkpt lat="45.27037" lon="0.37258">
        <ele>80</ele>
        <time>2016-03-22T13:57:01Z</time>
      </trkpt>
      <trkpt lat="45.27041" lon="0.37262">
        <ele>82</ele>
        <time>2016-03-22T13:57:06Z</time>
      </trkpt>
      <trkpt lat="45.27046" lon="0.37265">
        <ele>82</ele>
        <time>2016-03-22T13:57:11Z</time>
      </trkpt>
      <trkpt lat="45.27048" lon="0.3727">
        <ele>79</ele>
        <time>2016-03-22T13:57:18Z</time>
      </trkpt>
      <trkpt lat="45.27051" lon="0.37274">
        <ele>81</ele>
        <time>2016-03-22T13:57:24Z</time>
      </trkpt>
      <trkpt lat="45.27053" lon="0.3728">
        <ele>83</ele>
        <time>2016-03-22T13:57:35Z</time>
      </trkpt>
      <trkpt lat="45.27056" lon="0.37284">
        <ele>82</ele>
        <time>2016-03-22T13:57:39Z</time>
      </trkpt>
      <trkpt lat="45.27059" lon="0.37289">
        <ele>80</ele>
        <time>2016-03-22T13:57:43Z</time>
      </trkpt>
      <trkpt lat="45.27061" lon="0.37293">
        <ele>81</ele>
        <time>2016-03-22T13:57:48Z</time>
      </trkpt>
      <trkpt lat="45.27064" lon="0.37297">
        <ele>84</ele>
        <time>2016-03-22T13:57:54Z</time>
      </trkpt>
      <trkpt lat="45.27067" lon="0.37302">
        <ele>85</ele>
        <time>2016-03-22T13:57:59Z</time>
      </trkpt>
      <trkpt lat="45.27072" lon="0.37305">
        <ele>84</ele>
        <time>2016-03-22T13:58:04Z</time>
      </trkpt>
      <trkpt lat="45.27075" lon="0.37309">
        <ele>86</ele>
        <time>2016-03-22T13:58:09Z</time>
      </trkpt>
      <trkpt lat="45.27079" lon="0.37312">
        <ele>87</ele>
        <time>2016-03-22T13:58:14Z</time>
      </trkpt>
      <trkpt lat="45.2708" lon="0.37317">
        <ele>89</ele>
        <time>2016-03-22T13:58:22Z</time>
      </trkpt>
      <trkpt lat="45.27083" lon="0.37321">
        <ele>90</ele>
        <time>2016-03-22T13:58:27Z</time>
      </trkpt>
      <trkpt lat="45.27085" lon="0.37326">
        <ele>94</ele>
        <time>2016-03-22T13:58:34Z</time>
      </trkpt>
      <trkpt lat="45.27089" lon="0.37328">
        <ele>94</ele>
        <time>2016-03-22T13:58:38Z</time>
      </trkpt>
      <trkpt lat="45.27093" lon="0.3733">
        <ele>95</ele>
        <time>2016-03-22T13:58:43Z</time>
      </trkpt>
      <trkpt lat="45.27097" lon="0.37331">
        <ele>95</ele>
        <time>2016-03-22T13:58:47Z</time>
      </trkpt>
      <trkpt lat="45.27101" lon="0.37335">
        <ele>96</ele>
        <time>2016-03-22T13:58:52Z</time>
      </trkpt>
      <trkpt lat="45.27105" lon="0.37337">
        <ele>96</ele>
        <time>2016-03-22T13:58:57Z</time>
      </trkpt>
      <trkpt lat="45.27109" lon="0.37339">
        <ele>94</ele>
        <time>2016-03-22T13:59:01Z</time>
      </trkpt>
      <trkpt lat="45.27112" lon="0.37342">
        <ele>95</ele>
        <time>2016-03-22T13:59:05Z</time>
      </trkpt>
      <trkpt lat="45.27116" lon="0.37345">
        <ele>96</ele>
        <time>2016-03-22T13:59:10Z</time>
      </trkpt>
      <trkpt lat="45.27119" lon="0.37348">
        <ele>96</ele>
        <time>2016-03-22T13:59:17Z</time>
      </trkpt>
      <trkpt lat="45.27125" lon="0.37351">
        <ele>95</ele>
        <time>2016-03-22T13:59:22Z</time>
      </trkpt>
      <trkpt lat="45.27129" lon="0.37354">
        <ele>96</ele>
        <time>2016-03-22T13:59:28Z</time>
      </trkpt>
      <trkpt lat="45.27132" lon="0.37356">
        <ele>97</ele>
        <time>2016-03-22T13:59:34Z</time>
      </trkpt>
      <trkpt lat="45.27137" lon="0.37358">
        <ele>95</ele>
        <time>2016-03-22T13:59:38Z</time>
      </trkpt>
      <trkpt lat="45.27142" lon="0.37361">
        <ele>94</ele>
        <time>2016-03-22T13:59:43Z</time>
      </trkpt>
      <trkpt lat="45.27145" lon="0.37363">
        <ele>94</ele>
        <time>2016-03-22T13:59:48Z</time>
      </trkpt>
      <trkpt lat="45.27149" lon="0.37366">
        <ele>96</ele>
        <time>2016-03-22T13:59:52Z</time>
      </trkpt>
      <trkpt lat="45.27152" lon="0.37369">
        <ele>98</ele>
        <time>2016-03-22T13:59:58Z</time>
      </trkpt>
      <trkpt lat="45.27156" lon="0.37372">
        <ele>98</ele>
        <time>2016-03-22T14:00:06Z</time>
      </trkpt>
      <trkpt lat="45.27158" lon="0.37377">
        <ele>101</ele>
        <time>2016-03-22T14:00:12Z</time>
      </trkpt>
      <trkpt lat="45.27161" lon="0.3738">
        <ele>101</ele>
        <time>2016-03-22T14:00:19Z</time>
      </trkpt>
      <trkpt lat="45.27163" lon="0.37385">
        <ele>102</ele>
        <time>2016-03-22T14:00:24Z</time>
      </trkpt>
      <trkpt lat="45.27166" lon="0.37389">
        <ele>102</ele>
        <time>2016-03-22T14:00:30Z</time>
      </trkpt>
      <trkpt lat="45.27167" lon="0.37395">
        <ele>102</ele>
        <time>2016-03-22T14:00:42Z</time>
      </trkpt>
      <trkpt lat="45.27163" lon="0.37398">
        <ele>99</ele>
        <time>2016-03-22T14:00:51Z</time>
      </trkpt>
      <trkpt lat="45.27159" lon="0.37397">
        <ele>100</ele>
        <time>2016-03-22T14:00:57Z</time>
      </trkpt>
      <trkpt lat="45.27155" lon="0.37396">
        <ele>100</ele>
        <time>2016-03-22T14:01:02Z</time>
      </trkpt>
      <trkpt lat="45.27151" lon="0.37396">
        <ele>101</ele>
        <time>2016-03-22T14:01:08Z</time>
      </trkpt>
      <trkpt lat="45.27147" lon="0.37397">
        <ele>100</ele>
        <time>2016-03-22T14:01:14Z</time>
      </trkpt>
      <trkpt lat="45.27143" lon="0.37395">
        <ele>101</ele>
        <time>2016-03-22T14:01:18Z</time>
      </trkpt>
      <trkpt lat="45.27139" lon="0.37396">
        <ele>101</ele>
        <time>2016-03-22T14:01:25Z</time>
      </trkpt>
      <trkpt lat="45.27133" lon="0.37399">
        <ele>101</ele>
        <time>2016-03-22T14:01:30Z</time>
      </trkpt>
      <trkpt lat="45.2713" lon="0.37401">
        <ele>102</ele>
        <time>2016-03-22T14:01:34Z</time>
      </trkpt>
      <trkpt lat="45.27129" lon="0.37407">
        <ele>101</ele>
        <time>2016-03-22T14:01:38Z</time>
      </trkpt>
      <trkpt lat="45.27129" lon="0.37412">
        <ele>101</ele>
        <time>2016-03-22T14:01:43Z</time>
      </trkpt>
      <trkpt lat="45.27128" lon="0.37418">
        <ele>101</ele>
        <time>2016-03-22T14:01:50Z</time>
      </trkpt>
      <trkpt lat="45.27128" lon="0.37424">
        <ele>104</ele>
        <time>2016-03-22T14:02:01Z</time>
      </trkpt>
      <trkpt lat="45.2713" lon="0.37428">
        <ele>103</ele>
        <time>2016-03-22T14:02:09Z</time>
      </trkpt>
      <trkpt lat="45.2713" lon="0.37434">
        <ele>106</ele>
        <time>2016-03-22T14:02:15Z</time>
      </trkpt>
      <trkpt lat="45.27129" lon="0.37441">
        <ele>109</ele>
        <time>2016-03-22T14:02:20Z</time>
      </trkpt>
      <trkpt lat="45.2713" lon="0.37446">
        <ele>108</ele>
        <time>2016-03-22T14:02:24Z</time>
      </trkpt>
      <trkpt lat="45.27132" lon="0.37452">
        <ele>111</ele>
        <time>2016-03-22T14:02:31Z</time>
      </trkpt>
      <trkpt lat="45.27132" lon="0.37458">
        <ele>112</ele>
        <time>2016-03-22T14:02:36Z</time>
      </trkpt>
      <trkpt lat="45.27133" lon="0.37463">
        <ele>112</ele>
        <time>2016-03-22T14:02:42Z</time>
      </trkpt>
      <trkpt lat="45.27133" lon="0.37469">
        <ele>112</ele>
        <time>2016-03-22T14:02:47Z</time>
      </trkpt>
      <trkpt lat="45.27134" lon="0.37475">
        <ele>112</ele>
        <time>2016-03-22T14:02:55Z</time>
      </trkpt>
      <trkpt lat="45.27134" lon="0.37481">
        <ele>112</ele>
        <time>2016-03-22T14:03:00Z</time>
      </trkpt>
      <trkpt lat="45.27136" lon="0.37487">
        <ele>114</ele>
        <time>2016-03-22T14:03:05Z</time>
      </trkpt>
      <trkpt lat="45.27135" lon="0.37493">
        <ele>114</ele>
        <time>2016-03-22T14:03:11Z</time>
      </trkpt>
      <trkpt lat="45.27136" lon="0.37502">
        <ele>115</ele>
        <time>2016-03-22T14:03:16Z</time>
      </trkpt>
      <trkpt lat="45.27135" lon="0.37508">
        <ele>112</ele>
        <time>2016-03-22T14:03:21Z</time>
      </trkpt>
      <trkpt lat="45.27135" lon="0.37514">
        <ele>113</ele>
        <time>2016-03-22T14:03:26Z</time>
      </trkpt>
      <trkpt lat="45.27135" lon="0.3752">
        <ele>114</ele>
        <time>2016-03-22T14:03:31Z</time>
      </trkpt>
      <trkpt lat="45.27135" lon="0.37525">
        <ele>115</ele>
        <time>2016-03-22T14:03:36Z</time>
      </trkpt>
      <trkpt lat="45.27136" lon="0.37531">
        <ele>115</ele>
        <time>2016-03-22T14:03:40Z</time>
      </trkpt>
      <trkpt lat="45.27138" lon="0.37536">
        <ele>115</ele>
        <time>2016-03-22T14:03:44Z</time>
      </trkpt>
      <trkpt lat="45.27138" lon="0.37542">
        <ele>116</ele>
        <time>2016-03-22T14:03:49Z</time>
      </trkpt>
      <trkpt lat="45.27139" lon="0.37549">
        <ele>116</ele>
        <time>2016-03-22T14:03:54Z</time>
      </trkpt>
      <trkpt lat="45.27142" lon="0.37555">
        <ele>116</ele>
        <time>2016-03-22T14:03:59Z</time>
      </trkpt>
      <trkpt lat="45.27143" lon="0.3756">
        <ele>117</ele>
        <time>2016-03-22T14:04:03Z</time>
      </trkpt>
      <trkpt lat="45.27145" lon="0.37565">
        <ele>118</ele>
        <time>2016-03-22T14:04:10Z</time>
      </trkpt>
      <trkpt lat="45.27146" lon="0.3757">
        <ele>119</ele>
        <time>2016-03-22T14:04:15Z</time>
      </trkpt>
      <trkpt lat="45.27147" lon="0.37576">
        <ele>120</ele>
        <time>2016-03-22T14:04:20Z</time>
      </trkpt>
      <trkpt lat="45.27148" lon="0.37581">
        <ele>120</ele>
        <time>2016-03-22T14:04:25Z</time>
      </trkpt>
      <trkpt lat="45.27149" lon="0.37586">
        <ele>120</ele>
        <time>2016-03-22T14:04:29Z</time>
      </trkpt>
      <trkpt lat="45.27151" lon="0.37592">
        <ele>120</ele>
        <time>2016-03-22T14:04:33Z</time>
      </trkpt>
      <trkpt lat="45.27153" lon="0.37598">
        <ele>122</ele>
        <time>2016-03-22T14:04:38Z</time>
      </trkpt>
      <trkpt lat="45.27155" lon="0.37606">
        <ele>123</ele>
        <time>2016-03-22T14:04:43Z</time>
      </trkpt>
      <trkpt lat="45.27154" lon="0.37612">
        <ele>126</ele>
        <time>2016-03-22T14:04:48Z</time>
      </trkpt>
      <trkpt lat="45.27153" lon="0.3762">
        <ele>126</ele>
        <time>2016-03-22T14:04:53Z</time>
      </trkpt>
      <trkpt lat="45.27153" lon="0.37625">
        <ele>125</ele>
        <time>2016-03-22T14:04:57Z</time>
      </trkpt>
      <trkpt lat="45.27152" lon="0.37633">
        <ele>126</ele>
        <time>2016-03-22T14:05:02Z</time>
      </trkpt>
      <trkpt lat="45.27152" lon="0.37638">
        <ele>126</ele>
        <time>2016-03-22T14:05:07Z</time>
      </trkpt>
      <trkpt lat="45.27153" lon="0.37644">
        <ele>125</ele>
        <time>2016-03-22T14:05:12Z</time>
      </trkpt>
      <trkpt lat="45.27152" lon="0.3765">
        <ele>125</ele>
        <time>2016-03-22T14:06:13Z</time>
      </trkpt>
      <trkpt lat="45.27152" lon="0.37656">
        <ele>122</ele>
        <time>2016-03-22T14:06:47Z</time>
      </trkpt>
      <trkpt lat="45.27151" lon="0.37662">
        <ele>122</ele>
        <time>2016-03-22T14:06:52Z</time>
      </trkpt>
      <trkpt lat="45.27155" lon="0.37667">
        <ele>123</ele>
        <time>2016-03-22T14:06:56Z</time>
      </trkpt>
      <trkpt lat="45.27158" lon="0.3767">
        <ele>123</ele>
        <time>2016-03-22T14:07:01Z</time>
      </trkpt>
      <trkpt lat="45.27162" lon="0.37672">
        <ele>123</ele>
        <time>2016-03-22T14:07:07Z</time>
      </trkpt>
      <trkpt lat="45.27166" lon="0.37675">
        <ele>123</ele>
        <time>2016-03-22T14:07:11Z</time>
      </trkpt>
      <trkpt lat="45.27169" lon="0.37679">
        <ele>123</ele>
        <time>2016-03-22T14:07:16Z</time>
      </trkpt>
      <trkpt lat="45.27173" lon="0.37683">
        <ele>124</ele>
        <time>2016-03-22T14:07:21Z</time>
      </trkpt>
      <trkpt lat="45.27176" lon="0.37686">
        <ele>123</ele>
        <time>2016-03-22T14:07:25Z</time>
      </trkpt>
      <trkpt lat="45.27179" lon="0.37691">
        <ele>125</ele>
        <time>2016-03-22T14:07:30Z</time>
      </trkpt>
      <trkpt lat="45.27181" lon="0.37695">
        <ele>126</ele>
        <time>2016-03-22T14:07:34Z</time>
      </trkpt>
      <trkpt lat="45.27185" lon="0.377">
        <ele>126</ele>
        <time>2016-03-22T14:07:39Z</time>
      </trkpt>
      <trkpt lat="45.27188" lon="0.37703">
        <ele>126</ele>
        <time>2016-03-22T14:07:43Z</time>
      </trkpt>
      <trkpt lat="45.27191" lon="0.37708">
        <ele>126</ele>
        <time>2016-03-22T14:07:48Z</time>
      </trkpt>
      <trkpt lat="45.27194" lon="0.37713">
        <ele>125</ele>
        <time>2016-03-22T14:07:52Z</time>
      </trkpt>
      <trkpt lat="45.27197" lon="0.37718">
        <ele>126</ele>
        <time>2016-03-22T14:07:57Z</time>
      </trkpt>
      <trkpt lat="45.27199" lon="0.37724">
        <ele>126</ele>
        <time>2016-03-22T14:08:02Z</time>
      </trkpt>
      <trkpt lat="45.272" lon="0.37729">
        <ele>125</ele>
        <time>2016-03-22T14:08:06Z</time>
      </trkpt>
      <trkpt lat="45.27202" lon="0.37734">
        <ele>126</ele>
        <time>2016-03-22T14:08:10Z</time>
      </trkpt>
      <trkpt lat="45.27205" lon="0.3774">
        <ele>126</ele>
        <time>2016-03-22T14:08:14Z</time>
      </trkpt>
      <trkpt lat="45.27206" lon="0.37747">
        <ele>126</ele>
        <time>2016-03-22T14:08:19Z</time>
      </trkpt>
      <trkpt lat="45.27209" lon="0.37754">
        <ele>126</ele>
        <time>2016-03-22T14:08:23Z</time>
      </trkpt>
      <trkpt lat="45.27211" lon="0.37759">
        <ele>126</ele>
        <time>2016-03-22T14:08:27Z</time>
      </trkpt>
      <trkpt lat="45.27214" lon="0.37764">
        <ele>126</ele>
        <time>2016-03-22T14:08:31Z</time>
      </trkpt>
      <trkpt lat="45.27216" lon="0.3777">
        <ele>126</ele>
        <time>2016-03-22T14:08:35Z</time>
      </trkpt>
      <trkpt lat="45.27218" lon="0.37777">
        <ele>125</ele>
        <time>2016-03-22T14:08:40Z</time>
      </trkpt>
      <trkpt lat="45.27219" lon="0.37784">
        <ele>125</ele>
        <time>2016-03-22T14:08:44Z</time>
      </trkpt>
      <trkpt lat="45.27222" lon="0.37792">
        <ele>126</ele>
        <time>2016-03-22T14:08:49Z</time>
      </trkpt>
      <trkpt lat="45.27226" lon="0.37798">
        <ele>126</ele>
        <time>2016-03-22T14:08:54Z</time>
      </trkpt>
      <trkpt lat="45.2723" lon="0.37803">
        <ele>125</ele>
        <time>2016-03-22T14:08:59Z</time>
      </trkpt>
      <trkpt lat="45.27231" lon="0.37809">
        <ele>124</ele>
        <time>2016-03-22T14:09:03Z</time>
      </trkpt>
      <trkpt lat="45.27233" lon="0.37816">
        <ele>125</ele>
        <time>2016-03-22T14:09:07Z</time>
      </trkpt>
      <trkpt lat="45.27236" lon="0.37823">
        <ele>124</ele>
        <time>2016-03-22T14:09:12Z</time>
      </trkpt>
      <trkpt lat="45.27237" lon="0.37828">
        <ele>124</ele>
        <time>2016-03-22T14:09:16Z</time>
      </trkpt>
      <trkpt lat="45.2724" lon="0.37833">
        <ele>123</ele>
        <time>2016-03-22T14:09:21Z</time>
      </trkpt>
      <trkpt lat="45.27243" lon="0.37838">
        <ele>125</ele>
        <time>2016-03-22T14:09:27Z</time>
      </trkpt>
      <trkpt lat="45.27244" lon="0.37845">
        <ele>124</ele>
        <time>2016-03-22T14:09:31Z</time>
      </trkpt>
      <trkpt lat="45.27245" lon="0.3785">
        <ele>124</ele>
        <time>2016-03-22T14:09:35Z</time>
      </trkpt>
      <trkpt lat="45.27246" lon="0.37856">
        <ele>124</ele>
        <time>2016-03-22T14:09:41Z</time>
      </trkpt>
      <trkpt lat="45.27248" lon="0.37863">
        <ele>124</ele>
        <time>2016-03-22T14:09:46Z</time>
      </trkpt>
      <trkpt lat="45.2725" lon="0.37869">
        <ele>127</ele>
        <time>2016-03-22T14:09:50Z</time>
      </trkpt>
      <trkpt lat="45.27252" lon="0.37874">
        <ele>127</ele>
        <time>2016-03-22T14:09:55Z</time>
      </trkpt>
      <trkpt lat="45.27256" lon="0.37879">
        <ele>126</ele>
        <time>2016-03-22T14:09:59Z</time>
      </trkpt>
      <trkpt lat="45.27262" lon="0.3788">
        <ele>127</ele>
        <time>2016-03-22T14:10:04Z</time>
      </trkpt>
      <trkpt lat="45.27266" lon="0.37879">
        <ele>128</ele>
        <time>2016-03-22T14:10:09Z</time>
      </trkpt>
      <trkpt lat="45.27272" lon="0.37877">
        <ele>128</ele>
        <time>2016-03-22T14:10:13Z</time>
      </trkpt>
      <trkpt lat="45.27276" lon="0.37877">
        <ele>131</ele>
        <time>2016-03-22T14:10:17Z</time>
      </trkpt>
      <trkpt lat="45.27282" lon="0.37877">
        <ele>133</ele>
        <time>2016-03-22T14:10:22Z</time>
      </trkpt>
      <trkpt lat="45.27289" lon="0.37876">
        <ele>131</ele>
        <time>2016-03-22T14:10:26Z</time>
      </trkpt>
      <trkpt lat="45.27296" lon="0.37877">
        <ele>131</ele>
        <time>2016-03-22T14:10:30Z</time>
      </trkpt>
      <trkpt lat="45.27302" lon="0.37877">
        <ele>131</ele>
        <time>2016-03-22T14:10:34Z</time>
      </trkpt>
      <trkpt lat="45.27307" lon="0.37877">
        <ele>133</ele>
        <time>2016-03-22T14:10:39Z</time>
      </trkpt>
      <trkpt lat="45.27314" lon="0.37876">
        <ele>132</ele>
        <time>2016-03-22T14:10:43Z</time>
      </trkpt>
      <trkpt lat="45.27319" lon="0.37875">
        <ele>132</ele>
        <time>2016-03-22T14:10:47Z</time>
      </trkpt>
      <trkpt lat="45.27323" lon="0.37875">
        <ele>132</ele>
        <time>2016-03-22T14:10:51Z</time>
      </trkpt>
      <trkpt lat="45.27328" lon="0.37877">
        <ele>132</ele>
        <time>2016-03-22T14:10:56Z</time>
      </trkpt>
      <trkpt lat="45.27333" lon="0.37877">
        <ele>133</ele>
        <time>2016-03-22T14:11:00Z</time>
      </trkpt>
      <trkpt lat="45.27339" lon="0.37878">
        <ele>134</ele>
        <time>2016-03-22T14:11:05Z</time>
      </trkpt>
      <trkpt lat="45.27344" lon="0.3788">
        <ele>135</ele>
        <time>2016-03-22T14:11:10Z</time>
      </trkpt>
      <trkpt lat="45.27349" lon="0.37881">
        <ele>135</ele>
        <time>2016-03-22T14:11:14Z</time>
      </trkpt>
      <trkpt lat="45.27353" lon="0.37882">
        <ele>136</ele>
        <time>2016-03-22T14:11:18Z</time>
      </trkpt>
      <trkpt lat="45.27358" lon="0.37881">
        <ele>136</ele>
        <time>2016-03-22T14:11:22Z</time>
      </trkpt>
      <trkpt lat="45.27362" lon="0.37882">
        <ele>135</ele>
        <time>2016-03-22T14:11:26Z</time>
      </trkpt>
      <trkpt lat="45.27366" lon="0.37883">
        <ele>135</ele>
        <time>2016-03-22T14:11:31Z</time>
      </trkpt>
      <trkpt lat="45.27372" lon="0.37885">
        <ele>136</ele>
        <time>2016-03-22T14:11:36Z</time>
      </trkpt>
      <trkpt lat="45.27376" lon="0.37886">
        <ele>137</ele>
        <time>2016-03-22T14:11:40Z</time>
      </trkpt>
      <trkpt lat="45.27381" lon="0.37885">
        <ele>138</ele>
        <time>2016-03-22T14:11:44Z</time>
      </trkpt>
      <trkpt lat="45.27384" lon="0.37888">
        <ele>138</ele>
        <time>2016-03-22T14:11:49Z</time>
      </trkpt>
      <trkpt lat="45.27389" lon="0.3789">
        <ele>138</ele>
        <time>2016-03-22T14:11:54Z</time>
      </trkpt>
      <trkpt lat="45.27393" lon="0.37889">
        <ele>139</ele>
        <time>2016-03-22T14:11:59Z</time>
      </trkpt>
      <trkpt lat="45.27397" lon="0.37888">
        <ele>137</ele>
        <time>2016-03-22T14:12:07Z</time>
      </trkpt>
      <trkpt lat="45.27402" lon="0.37889">
        <ele>138</ele>
        <time>2016-03-22T14:12:12Z</time>
      </trkpt>
      <trkpt lat="45.27405" lon="0.37889">
        <ele>137</ele>
        <time>2016-03-22T14:12:16Z</time>
      </trkpt>
      <trkpt lat="45.27411" lon="0.3789">
        <ele>136</ele>
        <time>2016-03-22T14:12:20Z</time>
      </trkpt>
      <trkpt lat="45.27415" lon="0.37889">
        <ele>135</ele>
        <time>2016-03-22T14:12:24Z</time>
      </trkpt>
      <trkpt lat="45.27419" lon="0.37888">
        <ele>130</ele>
        <time>2016-03-22T14:12:29Z</time>
      </trkpt>
      <trkpt lat="45.27424" lon="0.37889">
        <ele>130</ele>
        <time>2016-03-22T14:12:33Z</time>
      </trkpt>
      <trkpt lat="45.27429" lon="0.37894">
        <ele>127</ele>
        <time>2016-03-22T14:12:38Z</time>
      </trkpt>
      <trkpt lat="45.27434" lon="0.37894">
        <ele>129</ele>
        <time>2016-03-22T14:12:42Z</time>
      </trkpt>
      <trkpt lat="45.27438" lon="0.37896">
        <ele>127</ele>
        <time>2016-03-22T14:12:47Z</time>
      </trkpt>
      <trkpt lat="45.27443" lon="0.37899">
        <ele>123</ele>
        <time>2016-03-22T14:12:52Z</time>
      </trkpt>
      <trkpt lat="45.27447" lon="0.37898">
        <ele>129</ele>
        <time>2016-03-22T14:12:56Z</time>
      </trkpt>
      <trkpt lat="45.27453" lon="0.37898">
        <ele>131</ele>
        <time>2016-03-22T14:13:01Z</time>
      </trkpt>
      <trkpt lat="45.27459" lon="0.37898">
        <ele>130</ele>
        <time>2016-03-22T14:13:06Z</time>
      </trkpt>
      <trkpt lat="45.27468" lon="0.37896">
        <ele>129</ele>
        <time>2016-03-22T14:13:11Z</time>
      </trkpt>
      <trkpt lat="45.27469" lon="0.37901">
        <ele>129</ele>
        <time>2016-03-22T14:13:15Z</time>
      </trkpt>
      <trkpt lat="45.27474" lon="0.379">
        <ele>130</ele>
        <time>2016-03-22T14:13:19Z</time>
      </trkpt>
      <trkpt lat="45.27477" lon="0.37904">
        <ele>133</ele>
        <time>2016-03-22T14:13:23Z</time>
      </trkpt>
      <trkpt lat="45.27482" lon="0.37909">
        <ele>136</ele>
        <time>2016-03-22T14:13:27Z</time>
      </trkpt>
      <trkpt lat="45.2749" lon="0.37905">
        <ele>137</ele>
        <time>2016-03-22T14:13:32Z</time>
      </trkpt>
      <trkpt lat="45.27496" lon="0.37904">
        <ele>135</ele>
        <time>2016-03-22T14:13:36Z</time>
      </trkpt>
      <trkpt lat="45.27502" lon="0.37905">
        <ele>134</ele>
        <time>2016-03-22T14:13:41Z</time>
      </trkpt>
      <trkpt lat="45.27507" lon="0.37905">
        <ele>134</ele>
        <time>2016-03-22T14:13:45Z</time>
      </trkpt>
      <trkpt lat="45.27513" lon="0.37905">
        <ele>135</ele>
        <time>2016-03-22T14:13:50Z</time>
      </trkpt>
      <trkpt lat="45.27517" lon="0.37903">
        <ele>134</ele>
        <time>2016-03-22T14:13:54Z</time>
      </trkpt>
      <trkpt lat="45.27521" lon="0.37906">
        <ele>136</ele>
        <time>2016-03-22T14:13:58Z</time>
      </trkpt>
      <trkpt lat="45.27528" lon="0.37909">
        <ele>135</ele>
        <time>2016-03-22T14:14:03Z</time>
      </trkpt>
      <trkpt lat="45.27532" lon="0.37909">
        <ele>136</ele>
        <time>2016-03-22T14:14:08Z</time>
      </trkpt>
      <trkpt lat="45.27538" lon="0.37908">
        <ele>135</ele>
        <time>2016-03-22T14:14:13Z</time>
      </trkpt>
      <trkpt lat="45.27542" lon="0.37914">
        <ele>135</ele>
        <time>2016-03-22T14:14:18Z</time>
      </trkpt>
      <trkpt lat="45.27546" lon="0.37914">
        <ele>133</ele>
        <time>2016-03-22T14:14:22Z</time>
      </trkpt>
      <trkpt lat="45.27552" lon="0.37918">
        <ele>132</ele>
        <time>2016-03-22T14:14:27Z</time>
      </trkpt>
      <trkpt lat="45.27556" lon="0.37917">
        <ele>132</ele>
        <time>2016-03-22T14:14:31Z</time>
      </trkpt>
      <trkpt lat="45.2756" lon="0.37919">
        <ele>132</ele>
        <time>2016-03-22T14:14:35Z</time>
      </trkpt>
      <trkpt lat="45.27565" lon="0.37919">
        <ele>133</ele>
        <time>2016-03-22T14:14:39Z</time>
      </trkpt>
      <trkpt lat="45.27571" lon="0.3792">
        <ele>133</ele>
        <time>2016-03-22T14:14:44Z</time>
      </trkpt>
      <trkpt lat="45.27576" lon="0.3792">
        <ele>133</ele>
        <time>2016-03-22T14:14:49Z</time>
      </trkpt>
      <trkpt lat="45.27581" lon="0.37921">
        <ele>133</ele>
        <time>2016-03-22T14:14:54Z</time>
      </trkpt>
      <trkpt lat="45.27586" lon="0.37923">
        <ele>132</ele>
        <time>2016-03-22T14:14:58Z</time>
      </trkpt>
      <trkpt lat="45.27591" lon="0.37925">
        <ele>132</ele>
        <time>2016-03-22T14:15:03Z</time>
      </trkpt>
      <trkpt lat="45.27596" lon="0.37927">
        <ele>132</ele>
        <time>2016-03-22T14:15:07Z</time>
      </trkpt>
      <trkpt lat="45.27601" lon="0.37928">
        <ele>131</ele>
        <time>2016-03-22T14:15:11Z</time>
      </trkpt>
      <trkpt lat="45.27607" lon="0.37927">
        <ele>131</ele>
        <time>2016-03-22T14:15:16Z</time>
      </trkpt>
      <trkpt lat="45.27611" lon="0.37921">
        <ele>131</ele>
        <time>2016-03-22T14:15:20Z</time>
      </trkpt>
      <trkpt lat="45.27612" lon="0.37913">
        <ele>131</ele>
        <time>2016-03-22T14:15:25Z</time>
      </trkpt>
      <trkpt lat="45.27614" lon="0.37905">
        <ele>132</ele>
        <time>2016-03-22T14:15:30Z</time>
      </trkpt>
      <trkpt lat="45.27615" lon="0.37896">
        <ele>132</ele>
        <time>2016-03-22T14:15:34Z</time>
      </trkpt>
      <trkpt lat="45.27616" lon="0.37889">
        <ele>132</ele>
        <time>2016-03-22T14:15:38Z</time>
      </trkpt>
      <trkpt lat="45.27616" lon="0.37882">
        <ele>130</ele>
        <time>2016-03-22T14:15:42Z</time>
      </trkpt>
      <trkpt lat="45.27617" lon="0.37875">
        <ele>130</ele>
        <time>2016-03-22T14:15:46Z</time>
      </trkpt>
      <trkpt lat="45.27617" lon="0.37868">
        <ele>130</ele>
        <time>2016-03-22T14:15:50Z</time>
      </trkpt>
      <trkpt lat="45.27618" lon="0.37861">
        <ele>129</ele>
        <time>2016-03-22T14:15:55Z</time>
      </trkpt>
      <trkpt lat="45.27619" lon="0.37854">
        <ele>130</ele>
        <time>2016-03-22T14:15:59Z</time>
      </trkpt>
      <trkpt lat="45.2762" lon="0.37849">
        <ele>129</ele>
        <time>2016-03-22T14:16:03Z</time>
      </trkpt>
      <trkpt lat="45.2762" lon="0.37842">
        <ele>129</ele>
        <time>2016-03-22T14:16:07Z</time>
      </trkpt>
      <trkpt lat="45.27621" lon="0.37835">
        <ele>129</ele>
        <time>2016-03-22T14:16:11Z</time>
      </trkpt>
      <trkpt lat="45.27622" lon="0.37829">
        <ele>129</ele>
        <time>2016-03-22T14:16:15Z</time>
      </trkpt>
      <trkpt lat="45.27625" lon="0.37821">
        <ele>130</ele>
        <time>2016-03-22T14:16:20Z</time>
      </trkpt>
      <trkpt lat="45.27626" lon="0.37815">
        <ele>130</ele>
        <time>2016-03-22T14:16:25Z</time>
      </trkpt>
      <trkpt lat="45.27627" lon="0.37807">
        <ele>129</ele>
        <time>2016-03-22T14:16:29Z</time>
      </trkpt>
      <trkpt lat="45.27627" lon="0.378">
        <ele>128</ele>
        <time>2016-03-22T14:16:34Z</time>
      </trkpt>
      <trkpt lat="45.27629" lon="0.37795">
        <ele>129</ele>
        <time>2016-03-22T14:16:39Z</time>
      </trkpt>
      <trkpt lat="45.27631" lon="0.37787">
        <ele>131</ele>
        <time>2016-03-22T14:16:44Z</time>
      </trkpt>
      <trkpt lat="45.27631" lon="0.37779">
        <ele>131</ele>
        <time>2016-03-22T14:16:48Z</time>
      </trkpt>
      <trkpt lat="45.27632" lon="0.37771">
        <ele>131</ele>
        <time>2016-03-22T14:16:53Z</time>
      </trkpt>
      <trkpt lat="45.27633" lon="0.37763">
        <ele>130</ele>
        <time>2016-03-22T14:16:58Z</time>
      </trkpt>
      <trkpt lat="45.27634" lon="0.37756">
        <ele>130</ele>
        <time>2016-03-22T14:17:02Z</time>
      </trkpt>
      <trkpt lat="45.27635" lon="0.37749">
        <ele>129</ele>
        <time>2016-03-22T14:17:07Z</time>
      </trkpt>
      <trkpt lat="45.27638" lon="0.37745">
        <ele>129</ele>
        <time>2016-03-22T14:17:12Z</time>
      </trkpt>
      <trkpt lat="45.27643" lon="0.37745">
        <ele>130</ele>
        <time>2016-03-22T14:17:17Z</time>
      </trkpt>
      <trkpt lat="45.27648" lon="0.37747">
        <ele>130</ele>
        <time>2016-03-22T14:17:22Z</time>
      </trkpt>
      <trkpt lat="45.27651" lon="0.3775">
        <ele>130</ele>
        <time>2016-03-22T14:17:26Z</time>
      </trkpt>
      <trkpt lat="45.27656" lon="0.3775">
        <ele>128</ele>
        <time>2016-03-22T14:17:31Z</time>
      </trkpt>
      <trkpt lat="45.2766" lon="0.3775">
        <ele>129</ele>
        <time>2016-03-22T14:17:35Z</time>
      </trkpt>
      <trkpt lat="45.27664" lon="0.3775">
        <ele>129</ele>
        <time>2016-03-22T14:17:39Z</time>
      </trkpt>
      <trkpt lat="45.27667" lon="0.37751">
        <ele>129</ele>
        <time>2016-03-22T14:17:43Z</time>
      </trkpt>
      <trkpt lat="45.27672" lon="0.37752">
        <ele>128</ele>
        <time>2016-03-22T14:17:47Z</time>
      </trkpt>
      <trkpt lat="45.27677" lon="0.37752">
        <ele>128</ele>
        <time>2016-03-22T14:17:51Z</time>
      </trkpt>
      <trkpt lat="45.27681" lon="0.37753">
        <ele>129</ele>
        <time>2016-03-22T14:17:55Z</time>
      </trkpt>
      <trkpt lat="45.27686" lon="0.37754">
        <ele>128</ele>
        <time>2016-03-22T14:17:59Z</time>
      </trkpt>
      <trkpt lat="45.27692" lon="0.37755">
        <ele>127</ele>
        <time>2016-03-22T14:18:04Z</time>
      </trkpt>
      <trkpt lat="45.27697" lon="0.37756">
        <ele>126</ele>
        <time>2016-03-22T14:18:08Z</time>
      </trkpt>
      <trkpt lat="45.27702" lon="0.37754">
        <ele>125</ele>
        <time>2016-03-22T14:18:12Z</time>
      </trkpt>
      <trkpt lat="45.27707" lon="0.37747">
        <ele>125</ele>
        <time>2016-03-22T14:18:17Z</time>
      </trkpt>
      <trkpt lat="45.27711" lon="0.37741">
        <ele>125</ele>
        <time>2016-03-22T14:18:22Z</time>
      </trkpt>
      <trkpt lat="45.27715" lon="0.37736">
        <ele>125</ele>
        <time>2016-03-22T14:18:26Z</time>
      </trkpt>
      <trkpt lat="45.27719" lon="0.3773">
        <ele>123</ele>
        <time>2016-03-22T14:18:31Z</time>
      </trkpt>
      <trkpt lat="45.27722" lon="0.37728">
        <ele>122</ele>
        <time>2016-03-22T14:18:35Z</time>
      </trkpt>
      <trkpt lat="45.27726" lon="0.37722">
        <ele>122</ele>
        <time>2016-03-22T14:18:40Z</time>
      </trkpt>
      <trkpt lat="45.27729" lon="0.37718">
        <ele>121</ele>
        <time>2016-03-22T14:18:44Z</time>
      </trkpt>
      <trkpt lat="45.27733" lon="0.37715">
        <ele>123</ele>
        <time>2016-03-22T14:18:48Z</time>
      </trkpt>
      <trkpt lat="45.27737" lon="0.3771">
        <ele>124</ele>
        <time>2016-03-22T14:18:53Z</time>
      </trkpt>
      <trkpt lat="45.2774" lon="0.37706">
        <ele>124</ele>
        <time>2016-03-22T14:18:57Z</time>
      </trkpt>
      <trkpt lat="45.27743" lon="0.377">
        <ele>123</ele>
        <time>2016-03-22T14:19:02Z</time>
      </trkpt>
      <trkpt lat="45.27745" lon="0.37695">
        <ele>121</ele>
        <time>2016-03-22T14:19:06Z</time>
      </trkpt>
      <trkpt lat="45.27748" lon="0.37686">
        <ele>120</ele>
        <time>2016-03-22T14:19:11Z</time>
      </trkpt>
      <trkpt lat="45.27752" lon="0.37678">
        <ele>121</ele>
        <time>2016-03-22T14:19:16Z</time>
      </trkpt>
      <trkpt lat="45.27755" lon="0.37673">
        <ele>121</ele>
        <time>2016-03-22T14:19:20Z</time>
      </trkpt>
      <trkpt lat="45.27757" lon="0.37668">
        <ele>122</ele>
        <time>2016-03-22T14:19:24Z</time>
      </trkpt>
      <trkpt lat="45.27759" lon="0.37661">
        <ele>120</ele>
        <time>2016-03-22T14:19:29Z</time>
      </trkpt>
      <trkpt lat="45.27761" lon="0.37656">
        <ele>119</ele>
        <time>2016-03-22T14:19:34Z</time>
      </trkpt>
      <trkpt lat="45.27764" lon="0.37651">
        <ele>119</ele>
        <time>2016-03-22T14:19:40Z</time>
      </trkpt>
      <trkpt lat="45.27766" lon="0.37649">
        <ele>120</ele>
        <time>2016-03-22T14:19:45Z</time>
      </trkpt>
      <trkpt lat="45.27767" lon="0.37639">
        <ele>118</ele>
        <time>2016-03-22T14:19:49Z</time>
      </trkpt>
      <trkpt lat="45.27769" lon="0.37633">
        <ele>118</ele>
        <time>2016-03-22T14:19:54Z</time>
      </trkpt>
      <trkpt lat="45.27771" lon="0.37628">
        <ele>119</ele>
        <time>2016-03-22T14:19:59Z</time>
      </trkpt>
      <trkpt lat="45.27772" lon="0.37621">
        <ele>120</ele>
        <time>2016-03-22T14:20:04Z</time>
      </trkpt>
      <trkpt lat="45.27775" lon="0.37614">
        <ele>119</ele>
        <time>2016-03-22T14:20:09Z</time>
      </trkpt>
      <trkpt lat="45.27776" lon="0.37609">
        <ele>120</ele>
        <time>2016-03-22T14:20:13Z</time>
      </trkpt>
      <trkpt lat="45.27778" lon="0.37601">
        <ele>121</ele>
        <time>2016-03-22T14:20:17Z</time>
      </trkpt>
      <trkpt lat="45.27782" lon="0.37603">
        <ele>121</ele>
        <time>2016-03-22T14:20:22Z</time>
      </trkpt>
      <trkpt lat="45.27786" lon="0.37603">
        <ele>121</ele>
        <time>2016-03-22T14:20:27Z</time>
      </trkpt>
      <trkpt lat="45.27789" lon="0.37607">
        <ele>123</ele>
        <time>2016-03-22T14:20:33Z</time>
      </trkpt>
      <trkpt lat="45.27792" lon="0.37609">
        <ele>123</ele>
        <time>2016-03-22T14:20:38Z</time>
      </trkpt>
      <trkpt lat="45.27796" lon="0.37612">
        <ele>122</ele>
        <time>2016-03-22T14:20:43Z</time>
      </trkpt>
      <trkpt lat="45.27801" lon="0.37609">
        <ele>119</ele>
        <time>2016-03-22T14:20:47Z</time>
      </trkpt>
      <trkpt lat="45.27805" lon="0.3761">
        <ele>118</ele>
        <time>2016-03-22T14:20:55Z</time>
      </trkpt>
      <trkpt lat="45.27813" lon="0.37609">
        <ele>113</ele>
        <time>2016-03-22T14:20:59Z</time>
      </trkpt>
      <trkpt lat="45.27819" lon="0.3761">
        <ele>112</ele>
        <time>2016-03-22T14:21:04Z</time>
      </trkpt>
      <trkpt lat="45.27822" lon="0.37611">
        <ele>113</ele>
        <time>2016-03-22T14:21:09Z</time>
      </trkpt>
      <trkpt lat="45.27827" lon="0.37612">
        <ele>111</ele>
        <time>2016-03-22T14:21:13Z</time>
      </trkpt>
      <trkpt lat="45.27834" lon="0.37611">
        <ele>107</ele>
        <time>2016-03-22T14:21:17Z</time>
      </trkpt>
      <trkpt lat="45.2784" lon="0.37613">
        <ele>108</ele>
        <time>2016-03-22T14:21:22Z</time>
      </trkpt>
      <trkpt lat="45.27844" lon="0.37616">
        <ele>108</ele>
        <time>2016-03-22T14:21:26Z</time>
      </trkpt>
      <trkpt lat="45.27851" lon="0.37616">
        <ele>109</ele>
        <time>2016-03-22T14:21:31Z</time>
      </trkpt>
      <trkpt lat="45.27856" lon="0.37613">
        <ele>109</ele>
        <time>2016-03-22T14:21:35Z</time>
      </trkpt>
      <trkpt lat="45.2786" lon="0.37611">
        <ele>109</ele>
        <time>2016-03-22T14:21:39Z</time>
      </trkpt>
      <trkpt lat="45.27861" lon="0.37605">
        <ele>109</ele>
        <time>2016-03-22T14:21:58Z</time>
      </trkpt>
      <trkpt lat="45.27867" lon="0.37602">
        <ele>112</ele>
        <time>2016-03-22T14:22:03Z</time>
      </trkpt>
      <trkpt lat="45.2787" lon="0.37599">
        <ele>111</ele>
        <time>2016-03-22T14:22:07Z</time>
      </trkpt>
      <trkpt lat="45.27874" lon="0.37595">
        <ele>110</ele>
        <time>2016-03-22T14:22:11Z</time>
      </trkpt>
      <trkpt lat="45.27879" lon="0.37593">
        <ele>110</ele>
        <time>2016-03-22T14:22:15Z</time>
      </trkpt>
      <trkpt lat="45.27882" lon="0.37588">
        <ele>110</ele>
        <time>2016-03-22T14:22:19Z</time>
      </trkpt>
      <trkpt lat="45.27886" lon="0.37585">
        <ele>109</ele>
        <time>2016-03-22T14:22:24Z</time>
      </trkpt>
      <trkpt lat="45.27889" lon="0.37581">
        <ele>108</ele>
        <time>2016-03-22T14:22:28Z</time>
      </trkpt>
      <trkpt lat="45.27894" lon="0.37577">
        <ele>108</ele>
        <time>2016-03-22T14:22:32Z</time>
      </trkpt>
      <trkpt lat="45.27899" lon="0.37574">
        <ele>107</ele>
        <time>2016-03-22T14:22:37Z</time>
      </trkpt>
      <trkpt lat="45.27903" lon="0.37571">
        <ele>107</ele>
        <time>2016-03-22T14:22:41Z</time>
      </trkpt>
      <trkpt lat="45.27907" lon="0.37567">
        <ele>107</ele>
        <time>2016-03-22T14:22:45Z</time>
      </trkpt>
      <trkpt lat="45.27909" lon="0.37561">
        <ele>107</ele>
        <time>2016-03-22T14:22:49Z</time>
      </trkpt>
      <trkpt lat="45.27912" lon="0.37555">
        <ele>103</ele>
        <time>2016-03-22T14:22:53Z</time>
      </trkpt>
      <trkpt lat="45.27915" lon="0.37549">
        <ele>100</ele>
        <time>2016-03-22T14:22:57Z</time>
      </trkpt>
      <trkpt lat="45.2792" lon="0.37544">
        <ele>101</ele>
        <time>2016-03-22T14:23:02Z</time>
      </trkpt>
      <trkpt lat="45.27923" lon="0.37537">
        <ele>99</ele>
        <time>2016-03-22T14:23:06Z</time>
      </trkpt>
      <trkpt lat="45.27926" lon="0.37529">
        <ele>95</ele>
        <time>2016-03-22T14:23:10Z</time>
      </trkpt>
      <trkpt lat="45.27928" lon="0.37525">
        <ele>92</ele>
        <time>2016-03-22T14:23:14Z</time>
      </trkpt>
      <trkpt lat="45.27933" lon="0.37523">
        <ele>93</ele>
        <time>2016-03-22T14:23:18Z</time>
      </trkpt>
      <trkpt lat="45.27936" lon="0.37521">
        <ele>93</ele>
        <time>2016-03-22T14:23:22Z</time>
      </trkpt>
      <trkpt lat="45.2794" lon="0.3752">
        <ele>91</ele>
        <time>2016-03-22T14:23:26Z</time>
      </trkpt>
      <trkpt lat="45.27945" lon="0.37518">
        <ele>91</ele>
        <time>2016-03-22T14:23:31Z</time>
      </trkpt>
      <trkpt lat="45.27948" lon="0.37517">
        <ele>90</ele>
        <time>2016-03-22T14:23:35Z</time>
      </trkpt>
      <trkpt lat="45.27954" lon="0.37513">
        <ele>90</ele>
        <time>2016-03-22T14:23:40Z</time>
      </trkpt>
      <trkpt lat="45.27958" lon="0.37513">
        <ele>89</ele>
        <time>2016-03-22T14:23:44Z</time>
      </trkpt>
      <trkpt lat="45.27962" lon="0.37512">
        <ele>90</ele>
        <time>2016-03-22T14:23:48Z</time>
      </trkpt>
      <trkpt lat="45.27966" lon="0.37512">
        <ele>90</ele>
        <time>2016-03-22T14:23:54Z</time>
      </trkpt>
      <trkpt lat="45.27969" lon="0.37508">
        <ele>92</ele>
        <time>2016-03-22T14:23:58Z</time>
      </trkpt>
      <trkpt lat="45.27973" lon="0.37504">
        <ele>90</ele>
        <time>2016-03-22T14:24:03Z</time>
      </trkpt>
      <trkpt lat="45.27976" lon="0.37505">
        <ele>90</ele>
        <time>2016-03-22T14:24:07Z</time>
      </trkpt>
      <trkpt lat="45.27981" lon="0.37502">
        <ele>91</ele>
        <time>2016-03-22T14:24:12Z</time>
      </trkpt>
      <trkpt lat="45.27986" lon="0.37499">
        <ele>94</ele>
        <time>2016-03-22T14:24:16Z</time>
      </trkpt>
      <trkpt lat="45.27991" lon="0.37499">
        <ele>93</ele>
        <time>2016-03-22T14:24:20Z</time>
      </trkpt>
      <trkpt lat="45.27997" lon="0.37499">
        <ele>92</ele>
        <time>2016-03-22T14:24:25Z</time>
      </trkpt>
      <trkpt lat="45.28" lon="0.37496">
        <ele>94</ele>
        <time>2016-03-22T14:24:29Z</time>
      </trkpt>
      <trkpt lat="45.28004" lon="0.37491">
        <ele>98</ele>
        <time>2016-03-22T14:24:33Z</time>
      </trkpt>
      <trkpt lat="45.28009" lon="0.37491">
        <ele>96</ele>
        <time>2016-03-22T14:24:37Z</time>
      </trkpt>
      <trkpt lat="45.28015" lon="0.37488">
        <ele>93</ele>
        <time>2016-03-22T14:24:42Z</time>
      </trkpt>
      <trkpt lat="45.28019" lon="0.37483">
        <ele>95</ele>
        <time>2016-03-22T14:24:47Z</time>
      </trkpt>
      <trkpt lat="45.28022" lon="0.37476">
        <ele>95</ele>
        <time>2016-03-22T14:24:51Z</time>
      </trkpt>
      <trkpt lat="45.28023" lon="0.3747">
        <ele>95</ele>
        <time>2016-03-22T14:24:55Z</time>
      </trkpt>
      <trkpt lat="45.28026" lon="0.37464">
        <ele>92</ele>
        <time>2016-03-22T14:25:00Z</time>
      </trkpt>
      <trkpt lat="45.28029" lon="0.37459">
        <ele>91</ele>
        <time>2016-03-22T14:25:08Z</time>
      </trkpt>
      <trkpt lat="45.28031" lon="0.37454">
        <ele>88</ele>
        <time>2016-03-22T14:25:28Z</time>
      </trkpt>
      <trkpt lat="45.28035" lon="0.37451">
        <ele>89</ele>
        <time>2016-03-22T14:25:50Z</time>
      </trkpt>
      <trkpt lat="45.28038" lon="0.37448">
        <ele>88</ele>
        <time>2016-03-22T14:26:15Z</time>
      </trkpt>
      <trkpt lat="45.28039" lon="0.3744">
        <ele>88</ele>
        <time>2016-03-22T14:26:19Z</time>
      </trkpt>
      <trkpt lat="45.28042" lon="0.37437">
        <ele>91</ele>
        <time>2016-03-22T14:26:24Z</time>
      </trkpt>
      <trkpt lat="45.28044" lon="0.37431">
        <ele>91</ele>
        <time>2016-03-22T14:26:28Z</time>
      </trkpt>
      <trkpt lat="45.28047" lon="0.37426">
        <ele>93</ele>
        <time>2016-03-22T14:26:33Z</time>
      </trkpt>
      <trkpt lat="45.28049" lon="0.37422">
        <ele>93</ele>
        <time>2016-03-22T14:26:37Z</time>
      </trkpt>
      <trkpt lat="45.28051" lon="0.37418">
        <ele>98</ele>
        <time>2016-03-22T14:26:43Z</time>
      </trkpt>
      <trkpt lat="45.28053" lon="0.37411">
        <ele>96</ele>
        <time>2016-03-22T14:26:47Z</time>
      </trkpt>
      <trkpt lat="45.28055" lon="0.37406">
        <ele>96</ele>
        <time>2016-03-22T14:26:51Z</time>
      </trkpt>
      <trkpt lat="45.28056" lon="0.37399">
        <ele>97</ele>
        <time>2016-03-22T14:26:55Z</time>
      </trkpt>
      <trkpt lat="45.2806" lon="0.37393">
        <ele>97</ele>
        <time>2016-03-22T14:27:00Z</time>
      </trkpt>
      <trkpt lat="45.28063" lon="0.37388">
        <ele>100</ele>
        <time>2016-03-22T14:27:04Z</time>
      </trkpt>
      <trkpt lat="45.28065" lon="0.37382">
        <ele>98</ele>
        <time>2016-03-22T14:27:08Z</time>
      </trkpt>
      <trkpt lat="45.28067" lon="0.3737">
        <ele>98</ele>
        <time>2016-03-22T14:27:12Z</time>
      </trkpt>
      <trkpt lat="45.28068" lon="0.37365">
        <ele>97</ele>
        <time>2016-03-22T14:27:17Z</time>
      </trkpt>
      <trkpt lat="45.2807" lon="0.37352">
        <ele>96</ele>
        <time>2016-03-22T14:27:22Z</time>
      </trkpt>
      <trkpt lat="45.28072" lon="0.37342">
        <ele>93</ele>
        <time>2016-03-22T14:27:26Z</time>
      </trkpt>
      <trkpt lat="45.28074" lon="0.37337">
        <ele>93</ele>
        <time>2016-03-22T14:27:31Z</time>
      </trkpt>
      <trkpt lat="45.28076" lon="0.37331">
        <ele>93</ele>
        <time>2016-03-22T14:27:35Z</time>
      </trkpt>
      <trkpt lat="45.28079" lon="0.37325">
        <ele>94</ele>
        <time>2016-03-22T14:27:40Z</time>
      </trkpt>
      <trkpt lat="45.28081" lon="0.3732">
        <ele>95</ele>
        <time>2016-03-22T14:27:45Z</time>
      </trkpt>
      <trkpt lat="45.28082" lon="0.37312">
        <ele>91</ele>
        <time>2016-03-22T14:27:49Z</time>
      </trkpt>
      <trkpt lat="45.28085" lon="0.37308">
        <ele>91</ele>
        <time>2016-03-22T14:27:53Z</time>
      </trkpt>
      <trkpt lat="45.28088" lon="0.37299">
        <ele>89</ele>
        <time>2016-03-22T14:27:58Z</time>
      </trkpt>
      <trkpt lat="45.2809" lon="0.37293">
        <ele>91</ele>
        <time>2016-03-22T14:28:03Z</time>
      </trkpt>
      <trkpt lat="45.28092" lon="0.37288">
        <ele>94</ele>
        <time>2016-03-22T14:28:07Z</time>
      </trkpt>
      <trkpt lat="45.28094" lon="0.37281">
        <ele>96</ele>
        <time>2016-03-22T14:28:12Z</time>
      </trkpt>
      <trkpt lat="45.28096" lon="0.37273">
        <ele>97</ele>
        <time>2016-03-22T14:28:17Z</time>
      </trkpt>
      <trkpt lat="45.28098" lon="0.37262">
        <ele>96</ele>
        <time>2016-03-22T14:28:22Z</time>
      </trkpt>
      <trkpt lat="45.28099" lon="0.37257">
        <ele>97</ele>
        <time>2016-03-22T14:28:26Z</time>
      </trkpt>
      <trkpt lat="45.28101" lon="0.3725">
        <ele>95</ele>
        <time>2016-03-22T14:28:30Z</time>
      </trkpt>
      <trkpt lat="45.28103" lon="0.37242">
        <ele>94</ele>
        <time>2016-03-22T14:28:35Z</time>
      </trkpt>
      <trkpt lat="45.28105" lon="0.37234">
        <ele>94</ele>
        <time>2016-03-22T14:28:40Z</time>
      </trkpt>
      <trkpt lat="45.28108" lon="0.3723">
        <ele>93</ele>
        <time>2016-03-22T14:28:45Z</time>
      </trkpt>
      <trkpt lat="45.2811" lon="0.37223">
        <ele>91</ele>
        <time>2016-03-22T14:28:49Z</time>
      </trkpt>
      <trkpt lat="45.28112" lon="0.37218">
        <ele>90</ele>
        <time>2016-03-22T14:28:55Z</time>
      </trkpt>
      <trkpt lat="45.28114" lon="0.37212">
        <ele>91</ele>
        <time>2016-03-22T14:29:16Z</time>
      </trkpt>
      <trkpt lat="45.28117" lon="0.37208">
        <ele>91</ele>
        <time>2016-03-22T14:29:20Z</time>
      </trkpt>
      <trkpt lat="45.28118" lon="0.37204">
        <ele>91</ele>
        <time>2016-03-22T14:29:25Z</time>
      </trkpt>
      <trkpt lat="45.28117" lon="0.37198">
        <ele>95</ele>
        <time>2016-03-22T14:31:20Z</time>
      </trkpt>
      <trkpt lat="45.2812" lon="0.37195">
        <ele>93</ele>
        <time>2016-03-22T14:32:16Z</time>
      </trkpt>
      <trkpt lat="45.28123" lon="0.37192">
        <ele>93</ele>
        <time>2016-03-22T14:32:20Z</time>
      </trkpt>
      <trkpt lat="45.28126" lon="0.37187">
        <ele>94</ele>
        <time>2016-03-22T14:32:25Z</time>
      </trkpt>
      <trkpt lat="45.2813" lon="0.37185">
        <ele>94</ele>
        <time>2016-03-22T14:32:31Z</time>
      </trkpt>
      <trkpt lat="45.28133" lon="0.37182">
        <ele>95</ele>
        <time>2016-03-22T14:32:36Z</time>
      </trkpt>
      <trkpt lat="45.28138" lon="0.37181">
        <ele>95</ele>
        <time>2016-03-22T14:32:42Z</time>
      </trkpt>
      <trkpt lat="45.28141" lon="0.37182">
        <ele>95</ele>
        <time>2016-03-22T14:32:48Z</time>
      </trkpt>
      <trkpt lat="45.28143" lon="0.37188">
        <ele>96</ele>
        <time>2016-03-22T14:32:56Z</time>
      </trkpt>
      <trkpt lat="45.28145" lon="0.37194">
        <ele>96</ele>
        <time>2016-03-22T14:33:01Z</time>
      </trkpt>
      <trkpt lat="45.28147" lon="0.37198">
        <ele>96</ele>
        <time>2016-03-22T14:33:05Z</time>
      </trkpt>
      <trkpt lat="45.28149" lon="0.37202">
        <ele>96</ele>
        <time>2016-03-22T14:33:09Z</time>
      </trkpt>
      <trkpt lat="45.28153" lon="0.37205">
        <ele>96</ele>
        <time>2016-03-22T14:33:13Z</time>
      </trkpt>
      <trkpt lat="45.28157" lon="0.37208">
        <ele>97</ele>
        <time>2016-03-22T14:33:17Z</time>
      </trkpt>
      <trkpt lat="45.2816" lon="0.37209">
        <ele>97</ele>
        <time>2016-03-22T14:33:22Z</time>
      </trkpt>
      <trkpt lat="45.28164" lon="0.37212">
        <ele>102</ele>
        <time>2016-03-22T14:34:04Z</time>
      </trkpt>
      <trkpt lat="45.2817" lon="0.3721">
        <ele>102</ele>
        <time>2016-03-22T14:34:08Z</time>
      </trkpt>
      <trkpt lat="45.28178" lon="0.37209">
        <ele>103</ele>
        <time>2016-03-22T14:34:13Z</time>
      </trkpt>
      <trkpt lat="45.28183" lon="0.37208">
        <ele>103</ele>
        <time>2016-03-22T14:34:17Z</time>
      </trkpt>
      <trkpt lat="45.28192" lon="0.37207">
        <ele>102</ele>
        <time>2016-03-22T14:34:22Z</time>
      </trkpt>
      <trkpt lat="45.28198" lon="0.37204">
        <ele>103</ele>
        <time>2016-03-22T14:34:26Z</time>
      </trkpt>
      <trkpt lat="45.28202" lon="0.37201">
        <ele>105</ele>
        <time>2016-03-22T14:34:30Z</time>
      </trkpt>
      <trkpt lat="45.28206" lon="0.37199">
        <ele>107</ele>
        <time>2016-03-22T14:34:34Z</time>
      </trkpt>
      <trkpt lat="45.2821" lon="0.37191">
        <ele>105</ele>
        <time>2016-03-22T14:34:38Z</time>
      </trkpt>
      <trkpt lat="45.28212" lon="0.37185">
        <ele>105</ele>
        <time>2016-03-22T14:34:42Z</time>
      </trkpt>
      <trkpt lat="45.28214" lon="0.37179">
        <ele>104</ele>
        <time>2016-03-22T14:34:46Z</time>
      </trkpt>
      <trkpt lat="45.28213" lon="0.3717">
        <ele>102</ele>
        <time>2016-03-22T14:34:51Z</time>
      </trkpt>
      <trkpt lat="45.28214" lon="0.37164">
        <ele>105</ele>
        <time>2016-03-22T14:34:55Z</time>
      </trkpt>
      <trkpt lat="45.28213" lon="0.37158">
        <ele>106</ele>
        <time>2016-03-22T14:34:59Z</time>
      </trkpt>
      <trkpt lat="45.28215" lon="0.37153">
        <ele>107</ele>
        <time>2016-03-22T14:35:03Z</time>
      </trkpt>
      <trkpt lat="45.28215" lon="0.37148">
        <ele>109</ele>
        <time>2016-03-22T14:35:09Z</time>
      </trkpt>
      <trkpt lat="45.28215" lon="0.37138">
        <ele>107</ele>
        <time>2016-03-22T14:35:13Z</time>
      </trkpt>
      <trkpt lat="45.28214" lon="0.37132">
        <ele>107</ele>
        <time>2016-03-22T14:35:18Z</time>
      </trkpt>
      <trkpt lat="45.28213" lon="0.37124">
        <ele>105</ele>
        <time>2016-03-22T14:35:23Z</time>
      </trkpt>
      <trkpt lat="45.28213" lon="0.37117">
        <ele>107</ele>
        <time>2016-03-22T14:35:27Z</time>
      </trkpt>
      <trkpt lat="45.28213" lon="0.37111">
        <ele>111</ele>
        <time>2016-03-22T14:35:31Z</time>
      </trkpt>
      <trkpt lat="45.28212" lon="0.37105">
        <ele>111</ele>
        <time>2016-03-22T14:35:35Z</time>
      </trkpt>
      <trkpt lat="45.2821" lon="0.37098">
        <ele>110</ele>
        <time>2016-03-22T14:35:39Z</time>
      </trkpt>
      <trkpt lat="45.28211" lon="0.37093">
        <ele>110</ele>
        <time>2016-03-22T14:35:43Z</time>
      </trkpt>
      <trkpt lat="45.28215" lon="0.37089">
        <ele>112</ele>
        <time>2016-03-22T14:35:48Z</time>
      </trkpt>
      <trkpt lat="45.28218" lon="0.37088">
        <ele>115</ele>
        <time>2016-03-22T14:35:54Z</time>
      </trkpt>
      <trkpt lat="45.28223" lon="0.37085">
        <ele>115</ele>
        <time>2016-03-22T14:35:59Z</time>
      </trkpt>
      <trkpt lat="45.28227" lon="0.37085">
        <ele>116</ele>
        <time>2016-03-22T14:36:04Z</time>
      </trkpt>
      <trkpt lat="45.28233" lon="0.37083">
        <ele>116</ele>
        <time>2016-03-22T14:36:09Z</time>
      </trkpt>
      <trkpt lat="45.28237" lon="0.37081">
        <ele>117</ele>
        <time>2016-03-22T14:36:13Z</time>
      </trkpt>
      <trkpt lat="45.28241" lon="0.37078">
        <ele>114</ele>
        <time>2016-03-22T14:36:18Z</time>
      </trkpt>
      <trkpt lat="45.28248" lon="0.37077">
        <ele>112</ele>
        <time>2016-03-22T14:36:23Z</time>
      </trkpt>
      <trkpt lat="45.28254" lon="0.37075">
        <ele>111</ele>
        <time>2016-03-22T14:36:27Z</time>
      </trkpt>
      <trkpt lat="45.28259" lon="0.37071">
        <ele>111</ele>
        <time>2016-03-22T14:36:31Z</time>
      </trkpt>
      <trkpt lat="45.28263" lon="0.37074">
        <ele>111</ele>
        <time>2016-03-22T14:36:36Z</time>
      </trkpt>
      <trkpt lat="45.28268" lon="0.37076">
        <ele>109</ele>
        <time>2016-03-22T14:36:41Z</time>
      </trkpt>
      <trkpt lat="45.28272" lon="0.37073">
        <ele>114</ele>
        <time>2016-03-22T14:36:45Z</time>
      </trkpt>
      <trkpt lat="45.28279" lon="0.37074">
        <ele>114</ele>
        <time>2016-03-22T14:36:50Z</time>
      </trkpt>
      <trkpt lat="45.28284" lon="0.37072">
        <ele>114</ele>
        <time>2016-03-22T14:36:54Z</time>
      </trkpt>
      <trkpt lat="45.2829" lon="0.37073">
        <ele>114</ele>
        <time>2016-03-22T14:36:58Z</time>
      </trkpt>
      <trkpt lat="45.28295" lon="0.37075">
        <ele>115</ele>
        <time>2016-03-22T14:37:02Z</time>
      </trkpt>
      <trkpt lat="45.28299" lon="0.37078">
        <ele>116</ele>
        <time>2016-03-22T14:37:06Z</time>
      </trkpt>
      <trkpt lat="45.28305" lon="0.37076">
        <ele>114</ele>
        <time>2016-03-22T14:37:11Z</time>
      </trkpt>
      <trkpt lat="45.28309" lon="0.37078">
        <ele>113</ele>
        <time>2016-03-22T14:37:15Z</time>
      </trkpt>
      <trkpt lat="45.28314" lon="0.3708">
        <ele>113</ele>
        <time>2016-03-22T14:37:19Z</time>
      </trkpt>
      <trkpt lat="45.2832" lon="0.37083">
        <ele>115</ele>
        <time>2016-03-22T14:37:24Z</time>
      </trkpt>
      <trkpt lat="45.28323" lon="0.37087">
        <ele>116</ele>
        <time>2016-03-22T14:37:29Z</time>
      </trkpt>
      <trkpt lat="45.28332" lon="0.37084">
        <ele>113</ele>
        <time>2016-03-22T14:37:34Z</time>
      </trkpt>
      <trkpt lat="45.28336" lon="0.37085">
        <ele>112</ele>
        <time>2016-03-22T14:37:38Z</time>
      </trkpt>
      <trkpt lat="45.28343" lon="0.37086">
        <ele>112</ele>
        <time>2016-03-22T14:37:43Z</time>
      </trkpt>
      <trkpt lat="45.28347" lon="0.37089">
        <ele>111</ele>
        <time>2016-03-22T14:37:47Z</time>
      </trkpt>
      <trkpt lat="45.28351" lon="0.37091">
        <ele>112</ele>
        <time>2016-03-22T14:37:51Z</time>
      </trkpt>
      <trkpt lat="45.28356" lon="0.37096">
        <ele>114</ele>
        <time>2016-03-22T14:37:56Z</time>
      </trkpt>
      <trkpt lat="45.28361" lon="0.37097">
        <ele>115</ele>
        <time>2016-03-22T14:38:00Z</time>
      </trkpt>
      <trkpt lat="45.28371" lon="0.37102">
        <ele>113</ele>
        <time>2016-03-22T14:38:05Z</time>
      </trkpt>
      <trkpt lat="45.28374" lon="0.37106">
        <ele>112</ele>
        <time>2016-03-22T14:38:09Z</time>
      </trkpt>
      <trkpt lat="45.28378" lon="0.37107">
        <ele>112</ele>
        <time>2016-03-22T14:38:14Z</time>
      </trkpt>
      <trkpt lat="45.28382" lon="0.37111">
        <ele>111</ele>
        <time>2016-03-22T14:38:19Z</time>
      </trkpt>
      <trkpt lat="45.28388" lon="0.37114">
        <ele>111</ele>
        <time>2016-03-22T14:38:23Z</time>
      </trkpt>
      <trkpt lat="45.28395" lon="0.37117">
        <ele>113</ele>
        <time>2016-03-22T14:38:28Z</time>
      </trkpt>
      <trkpt lat="45.284" lon="0.37117">
        <ele>112</ele>
        <time>2016-03-22T14:38:32Z</time>
      </trkpt>
      <trkpt lat="45.28406" lon="0.37119">
        <ele>111</ele>
        <time>2016-03-22T14:38:37Z</time>
      </trkpt>
      <trkpt lat="45.2841" lon="0.37121">
        <ele>111</ele>
        <time>2016-03-22T14:38:41Z</time>
      </trkpt>
      <trkpt lat="45.28417" lon="0.3712">
        <ele>111</ele>
        <time>2016-03-22T14:38:46Z</time>
      </trkpt>
      <trkpt lat="45.28421" lon="0.37121">
        <ele>111</ele>
        <time>2016-03-22T14:38:50Z</time>
      </trkpt>
      <trkpt lat="45.28425" lon="0.37123">
        <ele>110</ele>
        <time>2016-03-22T14:38:54Z</time>
      </trkpt>
      <trkpt lat="45.2843" lon="0.37124">
        <ele>109</ele>
        <time>2016-03-22T14:38:59Z</time>
      </trkpt>
      <trkpt lat="45.28434" lon="0.37123">
        <ele>108</ele>
        <time>2016-03-22T14:39:03Z</time>
      </trkpt>
      <trkpt lat="45.28438" lon="0.37124">
        <ele>106</ele>
        <time>2016-03-22T14:39:10Z</time>
      </trkpt>
      <trkpt lat="45.28442" lon="0.37122">
        <ele>107</ele>
        <time>2016-03-22T14:39:16Z</time>
      </trkpt>
      <trkpt lat="45.28444" lon="0.37127">
        <ele>107</ele>
        <time>2016-03-22T14:40:07Z</time>
      </trkpt>
      <trkpt lat="45.28449" lon="0.37129">
        <ele>107</ele>
        <time>2016-03-22T14:40:11Z</time>
      </trkpt>
      <trkpt lat="45.28453" lon="0.37132">
        <ele>107</ele>
        <time>2016-03-22T14:40:16Z</time>
      </trkpt>
      <trkpt lat="45.28457" lon="0.37135">
        <ele>107</ele>
        <time>2016-03-22T14:40:20Z</time>
      </trkpt>
      <trkpt lat="45.28462" lon="0.37138">
        <ele>109</ele>
        <time>2016-03-22T14:40:24Z</time>
      </trkpt>
      <trkpt lat="45.2847" lon="0.37141">
        <ele>110</ele>
        <time>2016-03-22T14:40:29Z</time>
      </trkpt>
      <trkpt lat="45.28477" lon="0.37142">
        <ele>110</ele>
        <time>2016-03-22T14:40:33Z</time>
      </trkpt>
      <trkpt lat="45.28484" lon="0.37146">
        <ele>111</ele>
        <time>2016-03-22T14:40:38Z</time>
      </trkpt>
      <trkpt lat="45.2849" lon="0.37149">
        <ele>112</ele>
        <time>2016-03-22T14:40:42Z</time>
      </trkpt>
      <trkpt lat="45.28498" lon="0.37151">
        <ele>109</ele>
        <time>2016-03-22T14:40:47Z</time>
      </trkpt>
      <trkpt lat="45.28502" lon="0.37153">
        <ele>109</ele>
        <time>2016-03-22T14:40:51Z</time>
      </trkpt>
      <trkpt lat="45.28508" lon="0.37156">
        <ele>111</ele>
        <time>2016-03-22T14:40:56Z</time>
      </trkpt>
      <trkpt lat="45.28512" lon="0.37158">
        <ele>112</ele>
        <time>2016-03-22T14:41:03Z</time>
      </trkpt>
      <trkpt lat="45.28515" lon="0.37151">
        <ele>109</ele>
        <time>2016-03-22T14:41:08Z</time>
      </trkpt>
      <trkpt lat="45.28518" lon="0.37154">
        <ele>112</ele>
        <time>2016-03-22T14:41:13Z</time>
      </trkpt>
      <trkpt lat="45.28523" lon="0.37155">
        <ele>113</ele>
        <time>2016-03-22T14:41:24Z</time>
      </trkpt>
      <trkpt lat="45.28527" lon="0.37157">
        <ele>109</ele>
        <time>2016-03-22T14:42:00Z</time>
      </trkpt>
      <trkpt lat="45.28535" lon="0.37159">
        <ele>107</ele>
        <time>2016-03-22T14:42:05Z</time>
      </trkpt>
      <trkpt lat="45.28536" lon="0.37164">
        <ele>108</ele>
        <time>2016-03-22T14:42:17Z</time>
      </trkpt>
      <trkpt lat="45.28539" lon="0.37169">
        <ele>110</ele>
        <time>2016-03-22T14:42:24Z</time>
      </trkpt>
      <trkpt lat="45.28542" lon="0.37172">
        <ele>112</ele>
        <time>2016-03-22T14:42:31Z</time>
      </trkpt>
      <trkpt lat="45.28547" lon="0.37178">
        <ele>116</ele>
        <time>2016-03-22T14:42:35Z</time>
      </trkpt>
      <trkpt lat="45.28554" lon="0.37184">
        <ele>114</ele>
        <time>2016-03-22T14:42:40Z</time>
      </trkpt>
      <trkpt lat="45.28558" lon="0.37186">
        <ele>114</ele>
        <time>2016-03-22T14:42:46Z</time>
      </trkpt>
      <trkpt lat="45.28563" lon="0.3719">
        <ele>114</ele>
        <time>2016-03-22T14:42:51Z</time>
      </trkpt>
      <trkpt lat="45.28566" lon="0.37191">
        <ele>118</ele>
        <time>2016-03-22T14:42:56Z</time>
      </trkpt>
      <trkpt lat="45.2857" lon="0.37192">
        <ele>117</ele>
        <time>2016-03-22T14:43:00Z</time>
      </trkpt>
      <trkpt lat="45.28575" lon="0.37191">
        <ele>112</ele>
        <time>2016-03-22T14:43:05Z</time>
      </trkpt>
      <trkpt lat="45.28576" lon="0.37191">
        <ele>111</ele>
        <time>2016-03-22T14:43:13Z</time>
      </trkpt>
      <trkpt lat="45.28582" lon="0.3719">
        <ele>109</ele>
        <time>2016-03-22T14:43:17Z</time>
      </trkpt>
      <trkpt lat="45.28588" lon="0.3719">
        <ele>114</ele>
        <time>2016-03-22T14:43:22Z</time>
      </trkpt>
      <trkpt lat="45.28593" lon="0.3719">
        <ele>113</ele>
        <time>2016-03-22T14:43:26Z</time>
      </trkpt>
      <trkpt lat="45.28598" lon="0.37193">
        <ele>113</ele>
        <time>2016-03-22T14:43:31Z</time>
      </trkpt>
      <trkpt lat="45.28606" lon="0.37184">
        <ele>114</ele>
        <time>2016-03-22T14:43:35Z</time>
      </trkpt>
      <trkpt lat="45.28615" lon="0.3718">
        <ele>115</ele>
        <time>2016-03-22T14:43:40Z</time>
      </trkpt>
      <trkpt lat="45.2862" lon="0.37174">
        <ele>115</ele>
        <time>2016-03-22T14:43:44Z</time>
      </trkpt>
      <trkpt lat="45.28627" lon="0.37166">
        <ele>116</ele>
        <time>2016-03-22T14:43:49Z</time>
      </trkpt>
      <trkpt lat="45.28631" lon="0.3716">
        <ele>114</ele>
        <time>2016-03-22T14:43:53Z</time>
      </trkpt>
      <trkpt lat="45.28633" lon="0.37154">
        <ele>115</ele>
        <time>2016-03-22T14:43:57Z</time>
      </trkpt>
      <trkpt lat="45.28635" lon="0.37145">
        <ele>111</ele>
        <time>2016-03-22T14:44:02Z</time>
      </trkpt>
      <trkpt lat="45.28638" lon="0.3714">
        <ele>115</ele>
        <time>2016-03-22T14:44:07Z</time>
      </trkpt>
      <trkpt lat="45.28638" lon="0.37134">
        <ele>113</ele>
        <time>2016-03-22T14:44:11Z</time>
      </trkpt>
      <trkpt lat="45.28639" lon="0.3713">
        <ele>113</ele>
        <time>2016-03-22T14:44:16Z</time>
      </trkpt>
      <trkpt lat="45.28642" lon="0.37119">
        <ele>111</ele>
        <time>2016-03-22T14:44:21Z</time>
      </trkpt>
      <trkpt lat="45.28643" lon="0.37114">
        <ele>112</ele>
        <time>2016-03-22T14:44:25Z</time>
      </trkpt>
      <trkpt lat="45.28647" lon="0.37109">
        <ele>112</ele>
        <time>2016-03-22T14:44:29Z</time>
      </trkpt>
      <trkpt lat="45.28648" lon="0.37102">
        <ele>110</ele>
        <time>2016-03-22T14:44:34Z</time>
      </trkpt>
      <trkpt lat="45.28649" lon="0.37099">
        <ele>110</ele>
        <time>2016-03-22T14:44:41Z</time>
      </trkpt>
      <trkpt lat="45.28652" lon="0.37092">
        <ele>110</ele>
        <time>2016-03-22T14:44:45Z</time>
      </trkpt>
      <trkpt lat="45.28654" lon="0.37087">
        <ele>113</ele>
        <time>2016-03-22T14:44:49Z</time>
      </trkpt>
      <trkpt lat="45.28656" lon="0.3708">
        <ele>113</ele>
        <time>2016-03-22T14:44:53Z</time>
      </trkpt>
      <trkpt lat="45.28657" lon="0.37072">
        <ele>110</ele>
        <time>2016-03-22T14:44:58Z</time>
      </trkpt>
      <trkpt lat="45.2866" lon="0.37066">
        <ele>114</ele>
        <time>2016-03-22T14:45:02Z</time>
      </trkpt>
      <trkpt lat="45.28661" lon="0.3706">
        <ele>115</ele>
        <time>2016-03-22T14:45:07Z</time>
      </trkpt>
      <trkpt lat="45.28662" lon="0.37056">
        <ele>114</ele>
        <time>2016-03-22T14:45:11Z</time>
      </trkpt>
      <trkpt lat="45.28664" lon="0.37051">
        <ele>114</ele>
        <time>2016-03-22T14:45:16Z</time>
      </trkpt>
      <trkpt lat="45.28666" lon="0.37044">
        <ele>114</ele>
        <time>2016-03-22T14:45:20Z</time>
      </trkpt>
      <trkpt lat="45.28667" lon="0.37037">
        <ele>112</ele>
        <time>2016-03-22T14:45:25Z</time>
      </trkpt>
      <trkpt lat="45.28669" lon="0.3703">
        <ele>112</ele>
        <time>2016-03-22T14:45:29Z</time>
      </trkpt>
      <trkpt lat="45.2867" lon="0.37024">
        <ele>114</ele>
        <time>2016-03-22T14:45:34Z</time>
      </trkpt>
      <trkpt lat="45.28672" lon="0.37016">
        <ele>113</ele>
        <time>2016-03-22T14:45:39Z</time>
      </trkpt>
      <trkpt lat="45.28671" lon="0.37011">
        <ele>115</ele>
        <time>2016-03-22T14:45:43Z</time>
      </trkpt>
      <trkpt lat="45.28671" lon="0.37004">
        <ele>114</ele>
        <time>2016-03-22T14:45:47Z</time>
      </trkpt>
      <trkpt lat="45.28673" lon="0.36997">
        <ele>114</ele>
        <time>2016-03-22T14:45:52Z</time>
      </trkpt>
      <trkpt lat="45.28675" lon="0.36992">
        <ele>111</ele>
        <time>2016-03-22T14:45:57Z</time>
      </trkpt>
      <trkpt lat="45.28678" lon="0.36985">
        <ele>108</ele>
        <time>2016-03-22T14:46:01Z</time>
      </trkpt>
      <trkpt lat="45.28681" lon="0.3698">
        <ele>106</ele>
        <time>2016-03-22T14:46:08Z</time>
      </trkpt>
      <trkpt lat="45.28683" lon="0.36977">
        <ele>109</ele>
        <time>2016-03-22T14:46:12Z</time>
      </trkpt>
      <trkpt lat="45.28689" lon="0.36964">
        <ele>106</ele>
        <time>2016-03-22T14:46:17Z</time>
      </trkpt>
      <trkpt lat="45.28692" lon="0.36959">
        <ele>107</ele>
        <time>2016-03-22T14:46:22Z</time>
      </trkpt>
      <trkpt lat="45.28694" lon="0.36953">
        <ele>105</ele>
        <time>2016-03-22T14:46:26Z</time>
      </trkpt>
      <trkpt lat="45.28695" lon="0.36948">
        <ele>106</ele>
        <time>2016-03-22T14:46:32Z</time>
      </trkpt>
      <trkpt lat="45.28698" lon="0.36943">
        <ele>106</ele>
        <time>2016-03-22T14:46:36Z</time>
      </trkpt>
      <trkpt lat="45.28699" lon="0.36938">
        <ele>105</ele>
        <time>2016-03-22T14:46:40Z</time>
      </trkpt>
      <trkpt lat="45.287" lon="0.36932">
        <ele>109</ele>
        <time>2016-03-22T14:46:44Z</time>
      </trkpt>
      <trkpt lat="45.28702" lon="0.36927">
        <ele>110</ele>
        <time>2016-03-22T14:46:48Z</time>
      </trkpt>
      <trkpt lat="45.28703" lon="0.36921">
        <ele>109</ele>
        <time>2016-03-22T14:46:53Z</time>
      </trkpt>
      <trkpt lat="45.28706" lon="0.36918">
        <ele>109</ele>
        <time>2016-03-22T14:46:58Z</time>
      </trkpt>
      <trkpt lat="45.2871" lon="0.36904">
        <ele>107</ele>
        <time>2016-03-22T14:47:03Z</time>
      </trkpt>
      <trkpt lat="45.28712" lon="0.36897">
        <ele>104</ele>
        <time>2016-03-22T14:47:07Z</time>
      </trkpt>
      <trkpt lat="45.28712" lon="0.36892">
        <ele>103</ele>
        <time>2016-03-22T14:47:12Z</time>
      </trkpt>
      <trkpt lat="45.28713" lon="0.36885">
        <ele>105</ele>
        <time>2016-03-22T14:47:16Z</time>
      </trkpt>
      <trkpt lat="45.28713" lon="0.36879">
        <ele>108</ele>
        <time>2016-03-22T14:47:20Z</time>
      </trkpt>
      <trkpt lat="45.28714" lon="0.36874">
        <ele>109</ele>
        <time>2016-03-22T14:47:24Z</time>
      </trkpt>
      <trkpt lat="45.28714" lon="0.36867">
        <ele>111</ele>
        <time>2016-03-22T14:47:29Z</time>
      </trkpt>
      <trkpt lat="45.28716" lon="0.36859">
        <ele>111</ele>
        <time>2016-03-22T14:47:34Z</time>
      </trkpt>
      <trkpt lat="45.28717" lon="0.36854">
        <ele>111</ele>
        <time>2016-03-22T14:47:39Z</time>
      </trkpt>
      <trkpt lat="45.2872" lon="0.36849">
        <ele>111</ele>
        <time>2016-03-22T14:47:44Z</time>
      </trkpt>
      <trkpt lat="45.28721" lon="0.36844">
        <ele>114</ele>
        <time>2016-03-22T14:47:49Z</time>
      </trkpt>
      <trkpt lat="45.28724" lon="0.36838">
        <ele>113</ele>
        <time>2016-03-22T14:47:54Z</time>
      </trkpt>
      <trkpt lat="45.28727" lon="0.36832">
        <ele>112</ele>
        <time>2016-03-22T14:47:58Z</time>
      </trkpt>
      <trkpt lat="45.2873" lon="0.36829">
        <ele>111</ele>
        <time>2016-03-22T14:48:02Z</time>
      </trkpt>
      <trkpt lat="45.28737" lon="0.3682">
        <ele>110</ele>
        <time>2016-03-22T14:48:07Z</time>
      </trkpt>
      <trkpt lat="45.2874" lon="0.36811">
        <ele>108</ele>
        <time>2016-03-22T14:48:12Z</time>
      </trkpt>
      <trkpt lat="45.28742" lon="0.36803">
        <ele>108</ele>
        <time>2016-03-22T14:48:17Z</time>
      </trkpt>
      <trkpt lat="45.28744" lon="0.36797">
        <ele>106</ele>
        <time>2016-03-22T14:48:21Z</time>
      </trkpt>
      <trkpt lat="45.28744" lon="0.36789">
        <ele>109</ele>
        <time>2016-03-22T14:48:25Z</time>
      </trkpt>
      <trkpt lat="45.28746" lon="0.36781">
        <ele>113</ele>
        <time>2016-03-22T14:48:30Z</time>
      </trkpt>
      <trkpt lat="45.28745" lon="0.36775">
        <ele>112</ele>
        <time>2016-03-22T14:48:35Z</time>
      </trkpt>
      <trkpt lat="45.28746" lon="0.36769">
        <ele>115</ele>
        <time>2016-03-22T14:48:39Z</time>
      </trkpt>
      <trkpt lat="45.28746" lon="0.36763">
        <ele>118</ele>
        <time>2016-03-22T14:48:46Z</time>
      </trkpt>
      <trkpt lat="45.28745" lon="0.36757">
        <ele>121</ele>
        <time>2016-03-22T14:48:52Z</time>
      </trkpt>
      <trkpt lat="45.28742" lon="0.36744">
        <ele>115</ele>
        <time>2016-03-22T14:48:56Z</time>
      </trkpt>
      <trkpt lat="45.28743" lon="0.36733">
        <ele>114</ele>
        <time>2016-03-22T14:49:00Z</time>
      </trkpt>
      <trkpt lat="45.2874" lon="0.36727">
        <ele>111</ele>
        <time>2016-03-22T14:49:05Z</time>
      </trkpt>
      <trkpt lat="45.28743" lon="0.36718">
        <ele>114</ele>
        <time>2016-03-22T14:49:10Z</time>
      </trkpt>
      <trkpt lat="45.28745" lon="0.3671">
        <ele>117</ele>
        <time>2016-03-22T14:49:14Z</time>
      </trkpt>
      <trkpt lat="45.28744" lon="0.36704">
        <ele>117</ele>
        <time>2016-03-22T14:49:21Z</time>
      </trkpt>
      <trkpt lat="45.28741" lon="0.36696">
        <ele>117</ele>
        <time>2016-03-22T14:49:26Z</time>
      </trkpt>
      <trkpt lat="45.28742" lon="0.36689">
        <ele>119</ele>
        <time>2016-03-22T14:49:30Z</time>
      </trkpt>
      <trkpt lat="45.28744" lon="0.36682">
        <ele>117</ele>
        <time>2016-03-22T14:49:34Z</time>
      </trkpt>
      <trkpt lat="45.28744" lon="0.36677">
        <ele>120</ele>
        <time>2016-03-22T14:49:39Z</time>
      </trkpt>
      <trkpt lat="45.2874" lon="0.36675">
        <ele>119</ele>
        <time>2016-03-22T14:49:43Z</time>
      </trkpt>
      <trkpt lat="45.28739" lon="0.3667">
        <ele>120</ele>
        <time>2016-03-22T14:49:47Z</time>
      </trkpt>
      <trkpt lat="45.28741" lon="0.3666">
        <ele>122</ele>
        <time>2016-03-22T14:49:51Z</time>
      </trkpt>
      <trkpt lat="45.28736" lon="0.36652">
        <ele>120</ele>
        <time>2016-03-22T14:49:56Z</time>
      </trkpt>
      <trkpt lat="45.28734" lon="0.36645">
        <ele>120</ele>
        <time>2016-03-22T14:50:00Z</time>
      </trkpt>
      <trkpt lat="45.28733" lon="0.36639">
        <ele>122</ele>
        <time>2016-03-22T14:50:05Z</time>
      </trkpt>
      <trkpt lat="45.28732" lon="0.36633">
        <ele>123</ele>
        <time>2016-03-22T14:50:12Z</time>
      </trkpt>
      <trkpt lat="45.28731" lon="0.36628">
        <ele>123</ele>
        <time>2016-03-22T14:50:26Z</time>
      </trkpt>
      <trkpt lat="45.28735" lon="0.36619">
        <ele>123</ele>
        <time>2016-03-22T14:50:30Z</time>
      </trkpt>
      <trkpt lat="45.28737" lon="0.3661">
        <ele>119</ele>
        <time>2016-03-22T14:50:35Z</time>
      </trkpt>
      <trkpt lat="45.28738" lon="0.36604">
        <ele>121</ele>
        <time>2016-03-22T14:50:39Z</time>
      </trkpt>
      <trkpt lat="45.2874" lon="0.36597">
        <ele>122</ele>
        <time>2016-03-22T14:50:43Z</time>
      </trkpt>
      <trkpt lat="45.28741" lon="0.36588">
        <ele>122</ele>
        <time>2016-03-22T14:50:48Z</time>
      </trkpt>
      <trkpt lat="45.2874" lon="0.36577">
        <ele>115</ele>
        <time>2016-03-22T14:50:52Z</time>
      </trkpt>
      <trkpt lat="45.28738" lon="0.36567">
        <ele>113</ele>
        <time>2016-03-22T14:50:57Z</time>
      </trkpt>
      <trkpt lat="45.28739" lon="0.36561">
        <ele>113</ele>
        <time>2016-03-22T14:51:01Z</time>
      </trkpt>
      <trkpt lat="45.28742" lon="0.36557">
        <ele>115</ele>
        <time>2016-03-22T14:51:07Z</time>
      </trkpt>
      <trkpt lat="45.28743" lon="0.36551">
        <ele>116</ele>
        <time>2016-03-22T14:51:12Z</time>
      </trkpt>
      <trkpt lat="45.28745" lon="0.36543">
        <ele>112</ele>
        <time>2016-03-22T14:51:17Z</time>
      </trkpt>
      <trkpt lat="45.28746" lon="0.36543">
        <ele>111</ele>
        <time>2016-03-22T14:51:21Z</time>
      </trkpt>
      <trkpt lat="45.28751" lon="0.36526">
        <ele>110</ele>
        <time>2016-03-22T14:51:25Z</time>
      </trkpt>
      <trkpt lat="45.28751" lon="0.36521">
        <ele>113</ele>
        <time>2016-03-22T14:51:30Z</time>
      </trkpt>
      <trkpt lat="45.28752" lon="0.36514">
        <ele>113</ele>
        <time>2016-03-22T14:51:36Z</time>
      </trkpt>
      <trkpt lat="45.28754" lon="0.36509">
        <ele>114</ele>
        <time>2016-03-22T14:51:51Z</time>
      </trkpt>
      <trkpt lat="45.28756" lon="0.36504">
        <ele>117</ele>
        <time>2016-03-22T14:51:59Z</time>
      </trkpt>
      <trkpt lat="45.28757" lon="0.36496">
        <ele>117</ele>
        <time>2016-03-22T14:52:04Z</time>
      </trkpt>
      <trkpt lat="45.28757" lon="0.36487">
        <ele>113</ele>
        <time>2016-03-22T14:52:08Z</time>
      </trkpt>
      <trkpt lat="45.28756" lon="0.36482">
        <ele>115</ele>
        <time>2016-03-22T14:52:14Z</time>
      </trkpt>
      <trkpt lat="45.2876" lon="0.36479">
        <ele>119</ele>
        <time>2016-03-22T14:52:27Z</time>
      </trkpt>
      <trkpt lat="45.28761" lon="0.36471">
        <ele>121</ele>
        <time>2016-03-22T14:52:31Z</time>
      </trkpt>
      <trkpt lat="45.2876" lon="0.36466">
        <ele>121</ele>
        <time>2016-03-22T14:52:35Z</time>
      </trkpt>
      <trkpt lat="45.28765" lon="0.36456">
        <ele>123</ele>
        <time>2016-03-22T14:52:39Z</time>
      </trkpt>
      <trkpt lat="45.28764" lon="0.36447">
        <ele>121</ele>
        <time>2016-03-22T14:52:43Z</time>
      </trkpt>
      <trkpt lat="45.28768" lon="0.36441">
        <ele>122</ele>
        <time>2016-03-22T14:52:47Z</time>
      </trkpt>
      <trkpt lat="45.28772" lon="0.36435">
        <ele>124</ele>
        <time>2016-03-22T14:52:52Z</time>
      </trkpt>
      <trkpt lat="45.28775" lon="0.3643">
        <ele>125</ele>
        <time>2016-03-22T14:52:56Z</time>
      </trkpt>
      <trkpt lat="45.2878" lon="0.36427">
        <ele>125</ele>
        <time>2016-03-22T14:53:01Z</time>
      </trkpt>
      <trkpt lat="45.28782" lon="0.36418">
        <ele>125</ele>
        <time>2016-03-22T14:53:06Z</time>
      </trkpt>
      <trkpt lat="45.28785" lon="0.36414">
        <ele>126</ele>
        <time>2016-03-22T14:53:10Z</time>
      </trkpt>
      <trkpt lat="45.28787" lon="0.36406">
        <ele>125</ele>
        <time>2016-03-22T14:53:14Z</time>
      </trkpt>
      <trkpt lat="45.28789" lon="0.36398">
        <ele>123</ele>
        <time>2016-03-22T14:53:19Z</time>
      </trkpt>
      <trkpt lat="45.2879" lon="0.36391">
        <ele>125</ele>
        <time>2016-03-22T14:53:24Z</time>
      </trkpt>
      <trkpt lat="45.28793" lon="0.36385">
        <ele>123</ele>
        <time>2016-03-22T14:53:28Z</time>
      </trkpt>
      <trkpt lat="45.28796" lon="0.3638">
        <ele>121</ele>
        <time>2016-03-22T14:53:33Z</time>
      </trkpt>
      <trkpt lat="45.28799" lon="0.36376">
        <ele>120</ele>
        <time>2016-03-22T14:53:37Z</time>
      </trkpt>
      <trkpt lat="45.28803" lon="0.36374">
        <ele>121</ele>
        <time>2016-03-22T14:53:41Z</time>
      </trkpt>
      <trkpt lat="45.28807" lon="0.36369">
        <ele>120</ele>
        <time>2016-03-22T14:53:46Z</time>
      </trkpt>
      <trkpt lat="45.28811" lon="0.36366">
        <ele>121</ele>
        <time>2016-03-22T14:53:54Z</time>
      </trkpt>
      <trkpt lat="45.28814" lon="0.36362">
        <ele>121</ele>
        <time>2016-03-22T14:53:58Z</time>
      </trkpt>
      <trkpt lat="45.28816" lon="0.36358">
        <ele>121</ele>
        <time>2016-03-22T14:54:02Z</time>
      </trkpt>
      <trkpt lat="45.28818" lon="0.36352">
        <ele>121</ele>
        <time>2016-03-22T14:54:06Z</time>
      </trkpt>
      <trkpt lat="45.28821" lon="0.36348">
        <ele>121</ele>
        <time>2016-03-22T14:54:12Z</time>
      </trkpt>
      <trkpt lat="45.28826" lon="0.36339">
        <ele>116</ele>
        <time>2016-03-22T14:54:17Z</time>
      </trkpt>
      <trkpt lat="45.28829" lon="0.36332">
        <ele>117</ele>
        <time>2016-03-22T14:54:22Z</time>
      </trkpt>
      <trkpt lat="45.28831" lon="0.36325">
        <ele>118</ele>
        <time>2016-03-22T14:54:26Z</time>
      </trkpt>
      <trkpt lat="45.28833" lon="0.3632">
        <ele>120</ele>
        <time>2016-03-22T14:54:33Z</time>
      </trkpt>
      <trkpt lat="45.28836" lon="0.36311">
        <ele>120</ele>
        <time>2016-03-22T14:54:38Z</time>
      </trkpt>
      <trkpt lat="45.28838" lon="0.36306">
        <ele>121</ele>
        <time>2016-03-22T14:54:43Z</time>
      </trkpt>
      <trkpt lat="45.28841" lon="0.36302">
        <ele>120</ele>
        <time>2016-03-22T14:54:51Z</time>
      </trkpt>
      <trkpt lat="45.28843" lon="0.36294">
        <ele>117</ele>
        <time>2016-03-22T14:54:55Z</time>
      </trkpt>
      <trkpt lat="45.28844" lon="0.36285">
        <ele>118</ele>
        <time>2016-03-22T14:54:59Z</time>
      </trkpt>
      <trkpt lat="45.28841" lon="0.36278">
        <ele>119</ele>
        <time>2016-03-22T14:55:03Z</time>
      </trkpt>
      <trkpt lat="45.28836" lon="0.36272">
        <ele>120</ele>
        <time>2016-03-22T14:55:08Z</time>
      </trkpt>
      <trkpt lat="45.28832" lon="0.3627">
        <ele>120</ele>
        <time>2016-03-22T14:55:12Z</time>
      </trkpt>
      <trkpt lat="45.28829" lon="0.36266">
        <ele>125</ele>
        <time>2016-03-22T14:55:17Z</time>
      </trkpt>
      <trkpt lat="45.28826" lon="0.36261">
        <ele>126</ele>
        <time>2016-03-22T14:55:22Z</time>
      </trkpt>
      <trkpt lat="45.28823" lon="0.36257">
        <ele>128</ele>
        <time>2016-03-22T14:55:26Z</time>
      </trkpt>
      <trkpt lat="45.28821" lon="0.36253">
        <ele>132</ele>
        <time>2016-03-22T14:55:32Z</time>
      </trkpt>
      <trkpt lat="45.28816" lon="0.36248">
        <ele>133</ele>
        <time>2016-03-22T14:55:37Z</time>
      </trkpt>
      <trkpt lat="45.28813" lon="0.36244">
        <ele>133</ele>
        <time>2016-03-22T14:55:41Z</time>
      </trkpt>
      <trkpt lat="45.28808" lon="0.36243">
        <ele>133</ele>
        <time>2016-03-22T14:55:46Z</time>
      </trkpt>
      <trkpt lat="45.28805" lon="0.36238">
        <ele>133</ele>
        <time>2016-03-22T14:55:51Z</time>
      </trkpt>
      <trkpt lat="45.28805" lon="0.36231">
        <ele>136</ele>
        <time>2016-03-22T14:55:55Z</time>
      </trkpt>
      <trkpt lat="45.28801" lon="0.36227">
        <ele>135</ele>
        <time>2016-03-22T14:55:59Z</time>
      </trkpt>
      <trkpt lat="45.28798" lon="0.36218">
        <ele>134</ele>
        <time>2016-03-22T14:56:04Z</time>
      </trkpt>
      <trkpt lat="45.28796" lon="0.36212">
        <ele>133</ele>
        <time>2016-03-22T14:56:09Z</time>
      </trkpt>
      <trkpt lat="45.28794" lon="0.36203">
        <ele>130</ele>
        <time>2016-03-22T14:56:13Z</time>
      </trkpt>
      <trkpt lat="45.28791" lon="0.36195">
        <ele>130</ele>
        <time>2016-03-22T14:56:18Z</time>
      </trkpt>
      <trkpt lat="45.2879" lon="0.3619">
        <ele>131</ele>
        <time>2016-03-22T14:56:22Z</time>
      </trkpt>
      <trkpt lat="45.28788" lon="0.36182">
        <ele>132</ele>
        <time>2016-03-22T14:56:27Z</time>
      </trkpt>
      <trkpt lat="45.28788" lon="0.36174">
        <ele>131</ele>
        <time>2016-03-22T14:56:31Z</time>
      </trkpt>
      <trkpt lat="45.28786" lon="0.36166">
        <ele>132</ele>
        <time>2016-03-22T14:56:36Z</time>
      </trkpt>
      <trkpt lat="45.28784" lon="0.3616">
        <ele>133</ele>
        <time>2016-03-22T14:56:40Z</time>
      </trkpt>
      <trkpt lat="45.28783" lon="0.36154">
        <ele>134</ele>
        <time>2016-03-22T14:56:45Z</time>
      </trkpt>
      <trkpt lat="45.2878" lon="0.36146">
        <ele>132</ele>
        <time>2016-03-22T14:56:49Z</time>
      </trkpt>
      <trkpt lat="45.28778" lon="0.36139">
        <ele>132</ele>
        <time>2016-03-22T14:56:54Z</time>
      </trkpt>
      <trkpt lat="45.28776" lon="0.36134">
        <ele>132</ele>
        <time>2016-03-22T14:56:58Z</time>
      </trkpt>
      <trkpt lat="45.28775" lon="0.36128">
        <ele>132</ele>
        <time>2016-03-22T14:57:02Z</time>
      </trkpt>
      <trkpt lat="45.28773" lon="0.36122">
        <ele>132</ele>
        <time>2016-03-22T14:57:07Z</time>
      </trkpt>
      <trkpt lat="45.28772" lon="0.36115">
        <ele>132</ele>
        <time>2016-03-22T14:57:11Z</time>
      </trkpt>
      <trkpt lat="45.2877" lon="0.3611">
        <ele>133</ele>
        <time>2016-03-22T14:57:15Z</time>
      </trkpt>
      <trkpt lat="45.28768" lon="0.36106">
        <ele>135</ele>
        <time>2016-03-22T14:57:19Z</time>
      </trkpt>
      <trkpt lat="45.28767" lon="0.361">
        <ele>136</ele>
        <time>2016-03-22T14:57:23Z</time>
      </trkpt>
      <trkpt lat="45.28765" lon="0.36091">
        <ele>137</ele>
        <time>2016-03-22T14:57:28Z</time>
      </trkpt>
      <trkpt lat="45.28765" lon="0.36088">
        <ele>142</ele>
        <time>2016-03-22T14:57:35Z</time>
      </trkpt>
      <trkpt lat="45.28763" lon="0.36078">
        <ele>139</ele>
        <time>2016-03-22T14:57:39Z</time>
      </trkpt>
      <trkpt lat="45.28761" lon="0.3607">
        <ele>138</ele>
        <time>2016-03-22T14:57:43Z</time>
      </trkpt>
      <trkpt lat="45.28757" lon="0.36065">
        <ele>135</ele>
        <time>2016-03-22T14:57:47Z</time>
      </trkpt>
      <trkpt lat="45.28754" lon="0.3606">
        <ele>136</ele>
        <time>2016-03-22T14:57:51Z</time>
      </trkpt>
      <trkpt lat="45.28753" lon="0.36054">
        <ele>136</ele>
        <time>2016-03-22T14:57:55Z</time>
      </trkpt>
      <trkpt lat="45.2875" lon="0.36051">
        <ele>138</ele>
        <time>2016-03-22T14:58:00Z</time>
      </trkpt>
      <trkpt lat="45.28748" lon="0.36045">
        <ele>139</ele>
        <time>2016-03-22T14:58:05Z</time>
      </trkpt>
      <trkpt lat="45.28746" lon="0.36039">
        <ele>137</ele>
        <time>2016-03-22T14:58:09Z</time>
      </trkpt>
      <trkpt lat="45.28745" lon="0.36031">
        <ele>137</ele>
        <time>2016-03-22T14:58:14Z</time>
      </trkpt>
      <trkpt lat="45.28745" lon="0.36025">
        <ele>141</ele>
        <time>2016-03-22T14:58:18Z</time>
      </trkpt>
      <trkpt lat="45.28743" lon="0.3602">
        <ele>142</ele>
        <time>2016-03-22T14:58:23Z</time>
      </trkpt>
      <trkpt lat="45.28743" lon="0.36013">
        <ele>144</ele>
        <time>2016-03-22T14:58:28Z</time>
      </trkpt>
      <trkpt lat="45.28741" lon="0.36008">
        <ele>143</ele>
        <time>2016-03-22T14:58:34Z</time>
      </trkpt>
      <trkpt lat="45.2874" lon="0.36002">
        <ele>143</ele>
        <time>2016-03-22T14:58:39Z</time>
      </trkpt>
      <trkpt lat="45.28738" lon="0.35993">
        <ele>142</ele>
        <time>2016-03-22T14:58:44Z</time>
      </trkpt>
      <trkpt lat="45.28736" lon="0.35988">
        <ele>142</ele>
        <time>2016-03-22T14:58:50Z</time>
      </trkpt>
      <trkpt lat="45.28733" lon="0.35983">
        <ele>143</ele>
        <time>2016-03-22T14:58:54Z</time>
      </trkpt>
      <trkpt lat="45.28732" lon="0.35975">
        <ele>143</ele>
        <time>2016-03-22T14:58:59Z</time>
      </trkpt>
      <trkpt lat="45.28731" lon="0.35969">
        <ele>143</ele>
        <time>2016-03-22T14:59:03Z</time>
      </trkpt>
      <trkpt lat="45.2873" lon="0.35963">
        <ele>144</ele>
        <time>2016-03-22T14:59:08Z</time>
      </trkpt>
      <trkpt lat="45.28728" lon="0.35959">
        <ele>142</ele>
        <time>2016-03-22T14:59:13Z</time>
      </trkpt>
      <trkpt lat="45.2873" lon="0.3595">
        <ele>143</ele>
        <time>2016-03-22T14:59:17Z</time>
      </trkpt>
      <trkpt lat="45.28728" lon="0.35945">
        <ele>144</ele>
        <time>2016-03-22T14:59:21Z</time>
      </trkpt>
      <trkpt lat="45.28727" lon="0.35939">
        <ele>143</ele>
        <time>2016-03-22T14:59:25Z</time>
      </trkpt>
      <trkpt lat="45.28724" lon="0.35933">
        <ele>142</ele>
        <time>2016-03-22T14:59:30Z</time>
      </trkpt>
      <trkpt lat="45.28724" lon="0.35926">
        <ele>142</ele>
        <time>2016-03-22T14:59:34Z</time>
      </trkpt>
      <trkpt lat="45.28724" lon="0.35918">
        <ele>141</ele>
        <time>2016-03-22T14:59:38Z</time>
      </trkpt>
      <trkpt lat="45.28721" lon="0.3591">
        <ele>140</ele>
        <time>2016-03-22T14:59:43Z</time>
      </trkpt>
      <trkpt lat="45.28721" lon="0.35904">
        <ele>142</ele>
        <time>2016-03-22T14:59:48Z</time>
      </trkpt>
      <trkpt lat="45.2872" lon="0.35897">
        <ele>142</ele>
        <time>2016-03-22T14:59:52Z</time>
      </trkpt>
      <trkpt lat="45.28716" lon="0.3589">
        <ele>142</ele>
        <time>2016-03-22T14:59:56Z</time>
      </trkpt>
      <trkpt lat="45.28712" lon="0.35884">
        <ele>140</ele>
        <time>2016-03-22T15:00:00Z</time>
      </trkpt>
      <trkpt lat="45.28711" lon="0.35878">
        <ele>139</ele>
        <time>2016-03-22T15:00:04Z</time>
      </trkpt>
      <trkpt lat="45.28706" lon="0.35872">
        <ele>137</ele>
        <time>2016-03-22T15:00:09Z</time>
      </trkpt>
      <trkpt lat="45.28703" lon="0.35867">
        <ele>135</ele>
        <time>2016-03-22T15:00:13Z</time>
      </trkpt>
      <trkpt lat="45.28701" lon="0.35859">
        <ele>133</ele>
        <time>2016-03-22T15:00:17Z</time>
      </trkpt>
      <trkpt lat="45.287" lon="0.35851">
        <ele>134</ele>
        <time>2016-03-22T15:00:21Z</time>
      </trkpt>
      <trkpt lat="45.287" lon="0.35847">
        <ele>133</ele>
        <time>2016-03-22T15:00:25Z</time>
      </trkpt>
      <trkpt lat="45.28702" lon="0.35842">
        <ele>134</ele>
        <time>2016-03-22T15:00:29Z</time>
      </trkpt>
      <trkpt lat="45.28706" lon="0.35837">
        <ele>134</ele>
        <time>2016-03-22T15:00:35Z</time>
      </trkpt>
      <trkpt lat="45.28711" lon="0.35837">
        <ele>134</ele>
        <time>2016-03-22T15:00:40Z</time>
      </trkpt>
      <trkpt lat="45.28707" lon="0.35836">
        <ele>136</ele>
        <time>2016-03-22T15:00:52Z</time>
      </trkpt>
      <trkpt lat="45.28703" lon="0.35837">
        <ele>135</ele>
        <time>2016-03-22T15:00:56Z</time>
      </trkpt>
      <trkpt lat="45.28696" lon="0.35838">
        <ele>137</ele>
        <time>2016-03-22T15:01:01Z</time>
      </trkpt>
      <trkpt lat="45.2869" lon="0.35836">
        <ele>137</ele>
        <time>2016-03-22T15:01:05Z</time>
      </trkpt>
      <trkpt lat="45.28686" lon="0.35832">
        <ele>135</ele>
        <time>2016-03-22T15:01:10Z</time>
      </trkpt>
      <trkpt lat="45.28684" lon="0.35827">
        <ele>134</ele>
        <time>2016-03-22T15:01:16Z</time>
      </trkpt>
      <trkpt lat="45.28682" lon="0.35823">
        <ele>130</ele>
        <time>2016-03-22T15:01:21Z</time>
      </trkpt>
      <trkpt lat="45.28679" lon="0.3582">
        <ele>127</ele>
        <time>2016-03-22T15:01:28Z</time>
      </trkpt>
      <trkpt lat="45.28675" lon="0.35817">
        <ele>126</ele>
        <time>2016-03-22T15:01:37Z</time>
      </trkpt>
      <trkpt lat="45.28672" lon="0.35813">
        <ele>125</ele>
        <time>2016-03-22T15:01:43Z</time>
      </trkpt>
      <trkpt lat="45.28668" lon="0.3581">
        <ele>124</ele>
        <time>2016-03-22T15:01:51Z</time>
      </trkpt>
      <trkpt lat="45.28664" lon="0.35808">
        <ele>124</ele>
        <time>2016-03-22T15:01:56Z</time>
      </trkpt>
      <trkpt lat="45.28661" lon="0.35804">
        <ele>124</ele>
        <time>2016-03-22T15:02:02Z</time>
      </trkpt>
      <trkpt lat="45.28658" lon="0.358">
        <ele>125</ele>
        <time>2016-03-22T15:02:09Z</time>
      </trkpt>
      <trkpt lat="45.28654" lon="0.35798">
        <ele>125</ele>
        <time>2016-03-22T15:02:15Z</time>
      </trkpt>
      <trkpt lat="45.28646" lon="0.35795">
        <ele>123</ele>
        <time>2016-03-22T15:02:20Z</time>
      </trkpt>
      <trkpt lat="45.28641" lon="0.35794">
        <ele>123</ele>
        <time>2016-03-22T15:02:24Z</time>
      </trkpt>
      <trkpt lat="45.28636" lon="0.35793">
        <ele>123</ele>
        <time>2016-03-22T15:02:28Z</time>
      </trkpt>
      <trkpt lat="45.28632" lon="0.35792">
        <ele>122</ele>
        <time>2016-03-22T15:02:33Z</time>
      </trkpt>
      <trkpt lat="45.28626" lon="0.35788">
        <ele>121</ele>
        <time>2016-03-22T15:02:38Z</time>
      </trkpt>
      <trkpt lat="45.28622" lon="0.35783">
        <ele>118</ele>
        <time>2016-03-22T15:02:43Z</time>
      </trkpt>
      <trkpt lat="45.28622" lon="0.35777">
        <ele>117</ele>
        <time>2016-03-22T15:02:48Z</time>
      </trkpt>
      <trkpt lat="45.28617" lon="0.3577">
        <ele>115</ele>
        <time>2016-03-22T15:02:53Z</time>
      </trkpt>
      <trkpt lat="45.28613" lon="0.35768">
        <ele>114</ele>
        <time>2016-03-22T15:02:57Z</time>
      </trkpt>
      <trkpt lat="45.28609" lon="0.35762">
        <ele>115</ele>
        <time>2016-03-22T15:03:01Z</time>
      </trkpt>
      <trkpt lat="45.28605" lon="0.35758">
        <ele>117</ele>
        <time>2016-03-22T15:03:05Z</time>
      </trkpt>
      <trkpt lat="45.286" lon="0.35754">
        <ele>116</ele>
        <time>2016-03-22T15:03:09Z</time>
      </trkpt>
      <trkpt lat="45.28599" lon="0.35748">
        <ele>117</ele>
        <time>2016-03-22T15:03:15Z</time>
      </trkpt>
      <trkpt lat="45.28596" lon="0.35743">
        <ele>118</ele>
        <time>2016-03-22T15:03:19Z</time>
      </trkpt>
      <trkpt lat="45.28592" lon="0.35737">
        <ele>119</ele>
        <time>2016-03-22T15:03:24Z</time>
      </trkpt>
      <trkpt lat="45.28588" lon="0.35734">
        <ele>118</ele>
        <time>2016-03-22T15:03:28Z</time>
      </trkpt>
      <trkpt lat="45.28586" lon="0.35727">
        <ele>120</ele>
        <time>2016-03-22T15:03:33Z</time>
      </trkpt>
      <trkpt lat="45.28585" lon="0.35721">
        <ele>123</ele>
        <time>2016-03-22T15:03:37Z</time>
      </trkpt>
      <trkpt lat="45.28582" lon="0.35717">
        <ele>124</ele>
        <time>2016-03-22T15:03:41Z</time>
      </trkpt>
      <trkpt lat="45.28578" lon="0.35713">
        <ele>123</ele>
        <time>2016-03-22T15:03:45Z</time>
      </trkpt>
      <trkpt lat="45.2857" lon="0.3571">
        <ele>120</ele>
        <time>2016-03-22T15:03:50Z</time>
      </trkpt>
      <trkpt lat="45.28573" lon="0.35699">
        <ele>123</ele>
        <time>2016-03-22T15:03:55Z</time>
      </trkpt>
      <trkpt lat="45.28574" lon="0.35692">
        <ele>123</ele>
        <time>2016-03-22T15:03:59Z</time>
      </trkpt>
      <trkpt lat="45.28574" lon="0.35683">
        <ele>122</ele>
        <time>2016-03-22T15:04:04Z</time>
      </trkpt>
      <trkpt lat="45.28574" lon="0.35675">
        <ele>120</ele>
        <time>2016-03-22T15:04:08Z</time>
      </trkpt>
      <trkpt lat="45.28576" lon="0.35669">
        <ele>121</ele>
        <time>2016-03-22T15:04:13Z</time>
      </trkpt>
      <trkpt lat="45.28578" lon="0.35663">
        <ele>123</ele>
        <time>2016-03-22T15:04:17Z</time>
      </trkpt>
      <trkpt lat="45.2858" lon="0.35656">
        <ele>124</ele>
        <time>2016-03-22T15:04:21Z</time>
      </trkpt>
      <trkpt lat="45.28583" lon="0.3565">
        <ele>126</ele>
        <time>2016-03-22T15:04:26Z</time>
      </trkpt>
      <trkpt lat="45.28584" lon="0.35644">
        <ele>125</ele>
        <time>2016-03-22T15:04:30Z</time>
      </trkpt>
      <trkpt lat="45.28585" lon="0.35637">
        <ele>126</ele>
        <time>2016-03-22T15:04:34Z</time>
      </trkpt>
      <trkpt lat="45.28583" lon="0.35627">
        <ele>122</ele>
        <time>2016-03-22T15:04:38Z</time>
      </trkpt>
      <trkpt lat="45.28584" lon="0.35618">
        <ele>121</ele>
        <time>2016-03-22T15:04:42Z</time>
      </trkpt>
      <trkpt lat="45.28587" lon="0.3561">
        <ele>125</ele>
        <time>2016-03-22T15:04:47Z</time>
      </trkpt>
      <trkpt lat="45.28586" lon="0.35601">
        <ele>127</ele>
        <time>2016-03-22T15:04:52Z</time>
      </trkpt>
      <trkpt lat="45.28586" lon="0.35593">
        <ele>127</ele>
        <time>2016-03-22T15:04:56Z</time>
      </trkpt>
      <trkpt lat="45.28584" lon="0.35588">
        <ele>128</ele>
        <time>2016-03-22T15:05:00Z</time>
      </trkpt>
      <trkpt lat="45.28581" lon="0.35581">
        <ele>128</ele>
        <time>2016-03-22T15:05:04Z</time>
      </trkpt>
      <trkpt lat="45.2858" lon="0.35573">
        <ele>129</ele>
        <time>2016-03-22T15:05:09Z</time>
      </trkpt>
      <trkpt lat="45.28578" lon="0.35565">
        <ele>128</ele>
        <time>2016-03-22T15:05:13Z</time>
      </trkpt>
      <trkpt lat="45.28574" lon="0.3556">
        <ele>125</ele>
        <time>2016-03-22T15:05:18Z</time>
      </trkpt>
      <trkpt lat="45.28573" lon="0.35555">
        <ele>127</ele>
        <time>2016-03-22T15:05:22Z</time>
      </trkpt>
      <trkpt lat="45.28571" lon="0.3555">
        <ele>128</ele>
        <time>2016-03-22T15:05:26Z</time>
      </trkpt>
      <trkpt lat="45.28569" lon="0.35545">
        <ele>127</ele>
        <time>2016-03-22T15:05:31Z</time>
      </trkpt>
      <trkpt lat="45.28564" lon="0.35539">
        <ele>125</ele>
        <time>2016-03-22T15:05:35Z</time>
      </trkpt>
      <trkpt lat="45.28561" lon="0.35533">
        <ele>124</ele>
        <time>2016-03-22T15:05:39Z</time>
      </trkpt>
      <trkpt lat="45.28558" lon="0.35528">
        <ele>126</ele>
        <time>2016-03-22T15:05:43Z</time>
      </trkpt>
      <trkpt lat="45.28555" lon="0.35522">
        <ele>126</ele>
        <time>2016-03-22T15:05:48Z</time>
      </trkpt>
      <trkpt lat="45.28552" lon="0.35516">
        <ele>127</ele>
        <time>2016-03-22T15:05:52Z</time>
      </trkpt>
      <trkpt lat="45.28549" lon="0.35511">
        <ele>128</ele>
        <time>2016-03-22T15:05:56Z</time>
      </trkpt>
      <trkpt lat="45.28546" lon="0.35506">
        <ele>129</ele>
        <time>2016-03-22T15:06:00Z</time>
      </trkpt>
      <trkpt lat="45.28541" lon="0.355">
        <ele>128</ele>
        <time>2016-03-22T15:06:05Z</time>
      </trkpt>
      <trkpt lat="45.28538" lon="0.35494">
        <ele>128</ele>
        <time>2016-03-22T15:06:09Z</time>
      </trkpt>
      <trkpt lat="45.28534" lon="0.35489">
        <ele>128</ele>
        <time>2016-03-22T15:06:13Z</time>
      </trkpt>
      <trkpt lat="45.28531" lon="0.35484">
        <ele>128</ele>
        <time>2016-03-22T15:06:17Z</time>
      </trkpt>
      <trkpt lat="45.28528" lon="0.3548">
        <ele>129</ele>
        <time>2016-03-22T15:06:21Z</time>
      </trkpt>
      <trkpt lat="45.28524" lon="0.35476">
        <ele>128</ele>
        <time>2016-03-22T15:06:25Z</time>
      </trkpt>
      <trkpt lat="45.28519" lon="0.3547">
        <ele>129</ele>
        <time>2016-03-22T15:06:30Z</time>
      </trkpt>
      <trkpt lat="45.28516" lon="0.35464">
        <ele>129</ele>
        <time>2016-03-22T15:06:34Z</time>
      </trkpt>
      <trkpt lat="45.28513" lon="0.35459">
        <ele>130</ele>
        <time>2016-03-22T15:06:39Z</time>
      </trkpt>
      <trkpt lat="45.2851" lon="0.35454">
        <ele>131</ele>
        <time>2016-03-22T15:06:44Z</time>
      </trkpt>
      <trkpt lat="45.28507" lon="0.3545">
        <ele>131</ele>
        <time>2016-03-22T15:06:48Z</time>
      </trkpt>
      <trkpt lat="45.28503" lon="0.35446">
        <ele>132</ele>
        <time>2016-03-22T15:06:52Z</time>
      </trkpt>
      <trkpt lat="45.285" lon="0.35441">
        <ele>131</ele>
        <time>2016-03-22T15:06:56Z</time>
      </trkpt>
      <trkpt lat="45.28498" lon="0.35434">
        <ele>131</ele>
        <time>2016-03-22T15:07:01Z</time>
      </trkpt>
      <trkpt lat="45.28501" lon="0.3543">
        <ele>133</ele>
        <time>2016-03-22T15:07:05Z</time>
      </trkpt>
      <trkpt lat="45.28504" lon="0.35428">
        <ele>128</ele>
        <time>2016-03-22T15:07:13Z</time>
      </trkpt>
      <trkpt lat="45.28506" lon="0.35422">
        <ele>128</ele>
        <time>2016-03-22T15:07:17Z</time>
      </trkpt>
      <trkpt lat="45.28508" lon="0.35417">
        <ele>129</ele>
        <time>2016-03-22T15:07:27Z</time>
      </trkpt>
      <trkpt lat="45.28504" lon="0.35416">
        <ele>130</ele>
        <time>2016-03-22T15:08:47Z</time>
      </trkpt>
      <trkpt lat="45.28496" lon="0.35416">
        <ele>129</ele>
        <time>2016-03-22T15:08:52Z</time>
      </trkpt>
      <trkpt lat="45.2849" lon="0.35418">
        <ele>128</ele>
        <time>2016-03-22T15:08:56Z</time>
      </trkpt>
      <trkpt lat="45.28483" lon="0.35421">
        <ele>128</ele>
        <time>2016-03-22T15:09:01Z</time>
      </trkpt>
      <trkpt lat="45.28479" lon="0.35423">
        <ele>128</ele>
        <time>2016-03-22T15:09:05Z</time>
      </trkpt>
      <trkpt lat="45.28475" lon="0.35425">
        <ele>128</ele>
        <time>2016-03-22T15:09:09Z</time>
      </trkpt>
      <trkpt lat="45.28472" lon="0.35428">
        <ele>129</ele>
        <time>2016-03-22T15:09:17Z</time>
      </trkpt>
      <trkpt lat="45.28468" lon="0.35431">
        <ele>127</ele>
        <time>2016-03-22T15:10:00Z</time>
      </trkpt>
      <trkpt lat="45.28464" lon="0.3543">
        <ele>125</ele>
        <time>2016-03-22T15:10:11Z</time>
      </trkpt>
      <trkpt lat="45.28462" lon="0.35422">
        <ele>123</ele>
        <time>2016-03-22T15:10:16Z</time>
      </trkpt>
      <trkpt lat="45.28458" lon="0.3542">
        <ele>125</ele>
        <time>2016-03-22T15:10:20Z</time>
      </trkpt>
      <trkpt lat="45.28454" lon="0.35416">
        <ele>123</ele>
        <time>2016-03-22T15:10:24Z</time>
      </trkpt>
      <trkpt lat="45.2845" lon="0.35414">
        <ele>127</ele>
        <time>2016-03-22T15:10:30Z</time>
      </trkpt>
      <trkpt lat="45.28446" lon="0.35412">
        <ele>126</ele>
        <time>2016-03-22T15:10:34Z</time>
      </trkpt>
      <trkpt lat="45.28439" lon="0.35409">
        <ele>123</ele>
        <time>2016-03-22T15:10:39Z</time>
      </trkpt>
      <trkpt lat="45.28434" lon="0.35407">
        <ele>123</ele>
        <time>2016-03-22T15:10:43Z</time>
      </trkpt>
      <trkpt lat="45.28427" lon="0.35408">
        <ele>122</ele>
        <time>2016-03-22T15:10:47Z</time>
      </trkpt>
      <trkpt lat="45.28422" lon="0.3541">
        <ele>121</ele>
        <time>2016-03-22T15:10:52Z</time>
      </trkpt>
      <trkpt lat="45.28418" lon="0.35412">
        <ele>122</ele>
        <time>2016-03-22T15:10:56Z</time>
      </trkpt>
      <trkpt lat="45.28412" lon="0.35412">
        <ele>123</ele>
        <time>2016-03-22T15:11:01Z</time>
      </trkpt>
      <trkpt lat="45.28408" lon="0.35414">
        <ele>123</ele>
        <time>2016-03-22T15:11:05Z</time>
      </trkpt>
      <trkpt lat="45.28403" lon="0.35415">
        <ele>122</ele>
        <time>2016-03-22T15:11:09Z</time>
      </trkpt>
      <trkpt lat="45.28398" lon="0.35417">
        <ele>122</ele>
        <time>2016-03-22T15:11:13Z</time>
      </trkpt>
      <trkpt lat="45.28394" lon="0.35418">
        <ele>123</ele>
        <time>2016-03-22T15:11:18Z</time>
      </trkpt>
      <trkpt lat="45.28389" lon="0.35418">
        <ele>123</ele>
        <time>2016-03-22T15:11:23Z</time>
      </trkpt>
      <trkpt lat="45.28385" lon="0.35419">
        <ele>124</ele>
        <time>2016-03-22T15:11:27Z</time>
      </trkpt>
      <trkpt lat="45.28381" lon="0.3542">
        <ele>123</ele>
        <time>2016-03-22T15:11:31Z</time>
      </trkpt>
      <trkpt lat="45.28377" lon="0.35422">
        <ele>122</ele>
        <time>2016-03-22T15:11:35Z</time>
      </trkpt>
      <trkpt lat="45.28373" lon="0.35423">
        <ele>123</ele>
        <time>2016-03-22T15:11:40Z</time>
      </trkpt>
      <trkpt lat="45.28369" lon="0.35423">
        <ele>123</ele>
        <time>2016-03-22T15:11:45Z</time>
      </trkpt>
      <trkpt lat="45.28364" lon="0.35423">
        <ele>124</ele>
        <time>2016-03-22T15:11:50Z</time>
      </trkpt>
      <trkpt lat="45.28359" lon="0.35424">
        <ele>125</ele>
        <time>2016-03-22T15:11:55Z</time>
      </trkpt>
      <trkpt lat="45.28355" lon="0.35424">
        <ele>126</ele>
        <time>2016-03-22T15:11:59Z</time>
      </trkpt>
      <trkpt lat="45.28351" lon="0.35427">
        <ele>127</ele>
        <time>2016-03-22T15:12:04Z</time>
      </trkpt>
      <trkpt lat="45.28346" lon="0.35428">
        <ele>127</ele>
        <time>2016-03-22T15:12:09Z</time>
      </trkpt>
      <trkpt lat="45.28341" lon="0.35429">
        <ele>126</ele>
        <time>2016-03-22T15:12:14Z</time>
      </trkpt>
      <trkpt lat="45.28338" lon="0.35431">
        <ele>125</ele>
        <time>2016-03-22T15:12:18Z</time>
      </trkpt>
      <trkpt lat="45.28334" lon="0.35432">
        <ele>124</ele>
        <time>2016-03-22T15:12:22Z</time>
      </trkpt>
      <trkpt lat="45.28329" lon="0.35434">
        <ele>124</ele>
        <time>2016-03-22T15:12:27Z</time>
      </trkpt>
      <trkpt lat="45.28325" lon="0.35434">
        <ele>125</ele>
        <time>2016-03-22T15:12:32Z</time>
      </trkpt>
      <trkpt lat="45.28322" lon="0.35433">
        <ele>125</ele>
        <time>2016-03-22T15:12:36Z</time>
      </trkpt>
      <trkpt lat="45.28318" lon="0.35434">
        <ele>125</ele>
        <time>2016-03-22T15:12:40Z</time>
      </trkpt>
      <trkpt lat="45.28314" lon="0.35434">
        <ele>125</ele>
        <time>2016-03-22T15:12:44Z</time>
      </trkpt>
      <trkpt lat="45.2831" lon="0.35433">
        <ele>126</ele>
        <time>2016-03-22T15:12:48Z</time>
      </trkpt>
      <trkpt lat="45.28305" lon="0.35434">
        <ele>126</ele>
        <time>2016-03-22T15:12:53Z</time>
      </trkpt>
      <trkpt lat="45.28299" lon="0.35433">
        <ele>127</ele>
        <time>2016-03-22T15:12:58Z</time>
      </trkpt>
      <trkpt lat="45.28295" lon="0.35435">
        <ele>127</ele>
        <time>2016-03-22T15:13:02Z</time>
      </trkpt>
      <trkpt lat="45.28291" lon="0.35435">
        <ele>126</ele>
        <time>2016-03-22T15:13:06Z</time>
      </trkpt>
      <trkpt lat="45.28287" lon="0.35436">
        <ele>127</ele>
        <time>2016-03-22T15:13:10Z</time>
      </trkpt>
      <trkpt lat="45.2828" lon="0.35436">
        <ele>126</ele>
        <time>2016-03-22T15:13:15Z</time>
      </trkpt>
      <trkpt lat="45.28276" lon="0.35436">
        <ele>126</ele>
        <time>2016-03-22T15:13:19Z</time>
      </trkpt>
      <trkpt lat="45.28272" lon="0.35438">
        <ele>126</ele>
        <time>2016-03-22T15:13:23Z</time>
      </trkpt>
      <trkpt lat="45.28267" lon="0.35438">
        <ele>126</ele>
        <time>2016-03-22T15:13:27Z</time>
      </trkpt>
      <trkpt lat="45.28262" lon="0.35438">
        <ele>126</ele>
        <time>2016-03-22T15:13:32Z</time>
      </trkpt>
      <trkpt lat="45.28257" lon="0.35438">
        <ele>126</ele>
        <time>2016-03-22T15:13:37Z</time>
      </trkpt>
      <trkpt lat="45.28251" lon="0.35439">
        <ele>126</ele>
        <time>2016-03-22T15:13:41Z</time>
      </trkpt>
      <trkpt lat="45.28248" lon="0.35437">
        <ele>127</ele>
        <time>2016-03-22T15:13:45Z</time>
      </trkpt>
      <trkpt lat="45.28243" lon="0.35438">
        <ele>126</ele>
        <time>2016-03-22T15:13:49Z</time>
      </trkpt>
      <trkpt lat="45.28237" lon="0.35439">
        <ele>126</ele>
        <time>2016-03-22T15:13:54Z</time>
      </trkpt>
      <trkpt lat="45.28232" lon="0.35439">
        <ele>126</ele>
        <time>2016-03-22T15:13:59Z</time>
      </trkpt>
      <trkpt lat="45.28227" lon="0.35439">
        <ele>127</ele>
        <time>2016-03-22T15:14:04Z</time>
      </trkpt>
      <trkpt lat="45.28221" lon="0.35441">
        <ele>126</ele>
        <time>2016-03-22T15:14:08Z</time>
      </trkpt>
      <trkpt lat="45.28217" lon="0.35441">
        <ele>125</ele>
        <time>2016-03-22T15:14:12Z</time>
      </trkpt>
      <trkpt lat="45.28213" lon="0.35442">
        <ele>125</ele>
        <time>2016-03-22T15:14:16Z</time>
      </trkpt>
      <trkpt lat="45.28209" lon="0.3544">
        <ele>125</ele>
        <time>2016-03-22T15:14:21Z</time>
      </trkpt>
      <trkpt lat="45.28204" lon="0.3544">
        <ele>125</ele>
        <time>2016-03-22T15:14:25Z</time>
      </trkpt>
      <trkpt lat="45.282" lon="0.3544">
        <ele>124</ele>
        <time>2016-03-22T15:14:30Z</time>
      </trkpt>
      <trkpt lat="45.28197" lon="0.35438">
        <ele>125</ele>
        <time>2016-03-22T15:14:35Z</time>
      </trkpt>
      <trkpt lat="45.28191" lon="0.35436">
        <ele>126</ele>
        <time>2016-03-22T15:14:39Z</time>
      </trkpt>
      <trkpt lat="45.28186" lon="0.35434">
        <ele>128</ele>
        <time>2016-03-22T15:14:44Z</time>
      </trkpt>
      <trkpt lat="45.28181" lon="0.35433">
        <ele>126</ele>
        <time>2016-03-22T15:14:48Z</time>
      </trkpt>
      <trkpt lat="45.28174" lon="0.35434">
        <ele>125</ele>
        <time>2016-03-22T15:14:53Z</time>
      </trkpt>
      <trkpt lat="45.28169" lon="0.35435">
        <ele>122</ele>
        <time>2016-03-22T15:14:57Z</time>
      </trkpt>
      <trkpt lat="45.28164" lon="0.35434">
        <ele>121</ele>
        <time>2016-03-22T15:15:02Z</time>
      </trkpt>
      <trkpt lat="45.28159" lon="0.35433">
        <ele>120</ele>
        <time>2016-03-22T15:15:07Z</time>
      </trkpt>
      <trkpt lat="45.28155" lon="0.35431">
        <ele>121</ele>
        <time>2016-03-22T15:15:12Z</time>
      </trkpt>
      <trkpt lat="45.28152" lon="0.35427">
        <ele>124</ele>
        <time>2016-03-22T15:15:17Z</time>
      </trkpt>
      <trkpt lat="45.28148" lon="0.35426">
        <ele>125</ele>
        <time>2016-03-22T15:15:22Z</time>
      </trkpt>
      <trkpt lat="45.28141" lon="0.35428">
        <ele>123</ele>
        <time>2016-03-22T15:15:27Z</time>
      </trkpt>
      <trkpt lat="45.28137" lon="0.35432">
        <ele>121</ele>
        <time>2016-03-22T15:15:31Z</time>
      </trkpt>
      <trkpt lat="45.28134" lon="0.35438">
        <ele>118</ele>
        <time>2016-03-22T15:15:35Z</time>
      </trkpt>
      <trkpt lat="45.28131" lon="0.35441">
        <ele>117</ele>
        <time>2016-03-22T15:15:40Z</time>
      </trkpt>
      <trkpt lat="45.28128" lon="0.35446">
        <ele>118</ele>
        <time>2016-03-22T15:15:45Z</time>
      </trkpt>
      <trkpt lat="45.28125" lon="0.35451">
        <ele>119</ele>
        <time>2016-03-22T15:15:49Z</time>
      </trkpt>
      <trkpt lat="45.28123" lon="0.35456">
        <ele>124</ele>
        <time>2016-03-22T15:15:57Z</time>
      </trkpt>
      <trkpt lat="45.2812" lon="0.35455">
        <ele>125</ele>
        <time>2016-03-22T15:16:02Z</time>
      </trkpt>
      <trkpt lat="45.28116" lon="0.35454">
        <ele>127</ele>
        <time>2016-03-22T15:16:06Z</time>
      </trkpt>
      <trkpt lat="45.2811" lon="0.35454">
        <ele>126</ele>
        <time>2016-03-22T15:16:11Z</time>
      </trkpt>
      <trkpt lat="45.28106" lon="0.35455">
        <ele>128</ele>
        <time>2016-03-22T15:16:15Z</time>
      </trkpt>
      <trkpt lat="45.28101" lon="0.35457">
        <ele>128</ele>
        <time>2016-03-22T15:16:20Z</time>
      </trkpt>
      <trkpt lat="45.28098" lon="0.3546">
        <ele>128</ele>
        <time>2016-03-22T15:16:24Z</time>
      </trkpt>
      <trkpt lat="45.28095" lon="0.35466">
        <ele>127</ele>
        <time>2016-03-22T15:16:28Z</time>
      </trkpt>
      <trkpt lat="45.28092" lon="0.3547">
        <ele>128</ele>
        <time>2016-03-22T15:16:33Z</time>
      </trkpt>
      <trkpt lat="45.28089" lon="0.35475">
        <ele>129</ele>
        <time>2016-03-22T15:16:38Z</time>
      </trkpt>
      <trkpt lat="45.28085" lon="0.35484">
        <ele>127</ele>
        <time>2016-03-22T15:16:43Z</time>
      </trkpt>
      <trkpt lat="45.28082" lon="0.35488">
        <ele>126</ele>
        <time>2016-03-22T15:16:49Z</time>
      </trkpt>
      <trkpt lat="45.28081" lon="0.35495">
        <ele>124</ele>
        <time>2016-03-22T15:16:54Z</time>
      </trkpt>
      <trkpt lat="45.28081" lon="0.35502">
        <ele>124</ele>
        <time>2016-03-22T15:16:59Z</time>
      </trkpt>
      <trkpt lat="45.28079" lon="0.35507">
        <ele>124</ele>
        <time>2016-03-22T15:17:04Z</time>
      </trkpt>
      <trkpt lat="45.28079" lon="0.3552">
        <ele>126</ele>
        <time>2016-03-22T15:17:09Z</time>
      </trkpt>
      <trkpt lat="45.28078" lon="0.35528">
        <ele>126</ele>
        <time>2016-03-22T15:17:13Z</time>
      </trkpt>
      <trkpt lat="45.28078" lon="0.35535">
        <ele>127</ele>
        <time>2016-03-22T15:17:17Z</time>
      </trkpt>
      <trkpt lat="45.28079" lon="0.35543">
        <ele>127</ele>
        <time>2016-03-22T15:17:22Z</time>
      </trkpt>
      <trkpt lat="45.28078" lon="0.35549">
        <ele>129</ele>
        <time>2016-03-22T15:17:30Z</time>
      </trkpt>
      <trkpt lat="45.28074" lon="0.35558">
        <ele>126</ele>
        <time>2016-03-22T15:17:34Z</time>
      </trkpt>
      <trkpt lat="45.28075" lon="0.35567">
        <ele>128</ele>
        <time>2016-03-22T15:17:39Z</time>
      </trkpt>
      <trkpt lat="45.28076" lon="0.35576">
        <ele>126</ele>
        <time>2016-03-22T15:17:43Z</time>
      </trkpt>
      <trkpt lat="45.28077" lon="0.35585">
        <ele>122</ele>
        <time>2016-03-22T15:17:48Z</time>
      </trkpt>
      <trkpt lat="45.28077" lon="0.35591">
        <ele>123</ele>
        <time>2016-03-22T15:17:54Z</time>
      </trkpt>
      <trkpt lat="45.2808" lon="0.356">
        <ele>122</ele>
        <time>2016-03-22T15:17:59Z</time>
      </trkpt>
      <trkpt lat="45.2808" lon="0.35605">
        <ele>119</ele>
        <time>2016-03-22T15:18:06Z</time>
      </trkpt>
      <trkpt lat="45.2808" lon="0.35611">
        <ele>117</ele>
        <time>2016-03-22T15:18:10Z</time>
      </trkpt>
      <trkpt lat="45.28081" lon="0.35618">
        <ele>115</ele>
        <time>2016-03-22T15:18:14Z</time>
      </trkpt>
      <trkpt lat="45.28082" lon="0.35625">
        <ele>112</ele>
        <time>2016-03-22T15:18:18Z</time>
      </trkpt>
      <trkpt lat="45.28082" lon="0.35631">
        <ele>118</ele>
        <time>2016-03-22T15:18:29Z</time>
      </trkpt>
      <trkpt lat="45.28077" lon="0.35637">
        <ele>117</ele>
        <time>2016-03-22T15:18:34Z</time>
      </trkpt>
      <trkpt lat="45.28073" lon="0.35641">
        <ele>117</ele>
        <time>2016-03-22T15:18:38Z</time>
      </trkpt>
      <trkpt lat="45.2807" lon="0.35646">
        <ele>114</ele>
        <time>2016-03-22T15:18:43Z</time>
      </trkpt>
      <trkpt lat="45.28068" lon="0.35655">
        <ele>111</ele>
        <time>2016-03-22T15:18:47Z</time>
      </trkpt>
      <trkpt lat="45.28067" lon="0.35665">
        <ele>105</ele>
        <time>2016-03-22T15:18:52Z</time>
      </trkpt>
      <trkpt lat="45.28067" lon="0.35673">
        <ele>104</ele>
        <time>2016-03-22T15:18:56Z</time>
      </trkpt>
      <trkpt lat="45.28067" lon="0.35683">
        <ele>107</ele>
        <time>2016-03-22T15:19:01Z</time>
      </trkpt>
      <trkpt lat="45.28067" lon="0.35691">
        <ele>109</ele>
        <time>2016-03-22T15:19:06Z</time>
      </trkpt>
      <trkpt lat="45.28068" lon="0.35697">
        <ele>108</ele>
        <time>2016-03-22T15:19:11Z</time>
      </trkpt>
      <trkpt lat="45.28069" lon="0.35705">
        <ele>106</ele>
        <time>2016-03-22T15:19:15Z</time>
      </trkpt>
      <trkpt lat="45.28071" lon="0.35714">
        <ele>106</ele>
        <time>2016-03-22T15:19:20Z</time>
      </trkpt>
      <trkpt lat="45.28073" lon="0.35721">
        <ele>103</ele>
        <time>2016-03-22T15:19:25Z</time>
      </trkpt>
      <trkpt lat="45.28076" lon="0.35726">
        <ele>101</ele>
        <time>2016-03-22T15:19:30Z</time>
      </trkpt>
      <trkpt lat="45.28076" lon="0.35732">
        <ele>101</ele>
        <time>2016-03-22T15:19:35Z</time>
      </trkpt>
      <trkpt lat="45.28076" lon="0.35738">
        <ele>99</ele>
        <time>2016-03-22T15:19:39Z</time>
      </trkpt>
      <trkpt lat="45.28075" lon="0.35747">
        <ele>100</ele>
        <time>2016-03-22T15:19:44Z</time>
      </trkpt>
      <trkpt lat="45.28075" lon="0.35754">
        <ele>101</ele>
        <time>2016-03-22T15:19:48Z</time>
      </trkpt>
      <trkpt lat="45.28076" lon="0.35759">
        <ele>100</ele>
        <time>2016-03-22T15:19:53Z</time>
      </trkpt>
      <trkpt lat="45.28076" lon="0.35767">
        <ele>100</ele>
        <time>2016-03-22T15:19:58Z</time>
      </trkpt>
      <trkpt lat="45.28075" lon="0.35773">
        <ele>99</ele>
        <time>2016-03-22T15:20:02Z</time>
      </trkpt>
      <trkpt lat="45.28073" lon="0.35778">
        <ele>98</ele>
        <time>2016-03-22T15:20:06Z</time>
      </trkpt>
      <trkpt lat="45.28075" lon="0.35787">
        <ele>97</ele>
        <time>2016-03-22T15:20:11Z</time>
      </trkpt>
      <trkpt lat="45.28075" lon="0.35794">
        <ele>94</ele>
        <time>2016-03-22T15:20:15Z</time>
      </trkpt>
      <trkpt lat="45.28075" lon="0.358">
        <ele>94</ele>
        <time>2016-03-22T15:20:19Z</time>
      </trkpt>
      <trkpt lat="45.28075" lon="0.35807">
        <ele>97</ele>
        <time>2016-03-22T15:20:24Z</time>
      </trkpt>
      <trkpt lat="45.28072" lon="0.35811">
        <ele>99</ele>
        <time>2016-03-22T15:20:33Z</time>
      </trkpt>
      <trkpt lat="45.28069" lon="0.35815">
        <ele>100</ele>
        <time>2016-03-22T15:20:38Z</time>
      </trkpt>
      <trkpt lat="45.28065" lon="0.35819">
        <ele>99</ele>
        <time>2016-03-22T15:20:42Z</time>
      </trkpt>
      <trkpt lat="45.28062" lon="0.3582">
        <ele>100</ele>
        <time>2016-03-22T15:20:47Z</time>
      </trkpt>
      <trkpt lat="45.28057" lon="0.35821">
        <ele>99</ele>
        <time>2016-03-22T15:20:51Z</time>
      </trkpt>
      <trkpt lat="45.28053" lon="0.35826">
        <ele>101</ele>
        <time>2016-03-22T15:20:56Z</time>
      </trkpt>
      <trkpt lat="45.2805" lon="0.3583">
        <ele>104</ele>
        <time>2016-03-22T15:21:02Z</time>
      </trkpt>
      <trkpt lat="45.28046" lon="0.35833">
        <ele>104</ele>
        <time>2016-03-22T15:21:06Z</time>
      </trkpt>
      <trkpt lat="45.28043" lon="0.35835">
        <ele>105</ele>
        <time>2016-03-22T15:21:11Z</time>
      </trkpt>
      <trkpt lat="45.28039" lon="0.35838">
        <ele>108</ele>
        <time>2016-03-22T15:21:15Z</time>
      </trkpt>
      <trkpt lat="45.28034" lon="0.35842">
        <ele>107</ele>
        <time>2016-03-22T15:21:19Z</time>
      </trkpt>
      <trkpt lat="45.28031" lon="0.35846">
        <ele>106</ele>
        <time>2016-03-22T15:21:25Z</time>
      </trkpt>
      <trkpt lat="45.28026" lon="0.3585">
        <ele>103</ele>
        <time>2016-03-22T15:21:30Z</time>
      </trkpt>
      <trkpt lat="45.28022" lon="0.35854">
        <ele>101</ele>
        <time>2016-03-22T15:21:34Z</time>
      </trkpt>
      <trkpt lat="45.28018" lon="0.35857">
        <ele>103</ele>
        <time>2016-03-22T15:21:38Z</time>
      </trkpt>
      <trkpt lat="45.28014" lon="0.35864">
        <ele>101</ele>
        <time>2016-03-22T15:21:42Z</time>
      </trkpt>
      <trkpt lat="45.2801" lon="0.35869">
        <ele>101</ele>
        <time>2016-03-22T15:21:46Z</time>
      </trkpt>
      <trkpt lat="45.28007" lon="0.35873">
        <ele>102</ele>
        <time>2016-03-22T15:21:50Z</time>
      </trkpt>
      <trkpt lat="45.28003" lon="0.35875">
        <ele>102</ele>
        <time>2016-03-22T15:21:54Z</time>
      </trkpt>
      <trkpt lat="45.27997" lon="0.3588">
        <ele>105</ele>
        <time>2016-03-22T15:21:59Z</time>
      </trkpt>
      <trkpt lat="45.27994" lon="0.35882">
        <ele>104</ele>
        <time>2016-03-22T15:22:04Z</time>
      </trkpt>
      <trkpt lat="45.27988" lon="0.35882">
        <ele>101</ele>
        <time>2016-03-22T15:22:09Z</time>
      </trkpt>
      <trkpt lat="45.27982" lon="0.35884">
        <ele>99</ele>
        <time>2016-03-22T15:22:13Z</time>
      </trkpt>
      <trkpt lat="45.27977" lon="0.35885">
        <ele>101</ele>
        <time>2016-03-22T15:22:18Z</time>
      </trkpt>
      <trkpt lat="45.27973" lon="0.35887">
        <ele>102</ele>
        <time>2016-03-22T15:22:26Z</time>
      </trkpt>
      <trkpt lat="45.27968" lon="0.35889">
        <ele>102</ele>
        <time>2016-03-22T15:22:30Z</time>
      </trkpt>
      <trkpt lat="45.27961" lon="0.35892">
        <ele>103</ele>
        <time>2016-03-22T15:22:34Z</time>
      </trkpt>
      <trkpt lat="45.27954" lon="0.35898">
        <ele>101</ele>
        <time>2016-03-22T15:22:38Z</time>
      </trkpt>
      <trkpt lat="45.27949" lon="0.359">
        <ele>100</ele>
        <time>2016-03-22T15:22:42Z</time>
      </trkpt>
      <trkpt lat="45.27942" lon="0.35904">
        <ele>99</ele>
        <time>2016-03-22T15:22:47Z</time>
      </trkpt>
      <trkpt lat="45.27938" lon="0.35906">
        <ele>97</ele>
        <time>2016-03-22T15:22:52Z</time>
      </trkpt>
      <trkpt lat="45.27933" lon="0.35908">
        <ele>97</ele>
        <time>2016-03-22T15:22:56Z</time>
      </trkpt>
      <trkpt lat="45.27927" lon="0.35909">
        <ele>97</ele>
        <time>2016-03-22T15:23:01Z</time>
      </trkpt>
      <trkpt lat="45.27921" lon="0.35911">
        <ele>96</ele>
        <time>2016-03-22T15:23:06Z</time>
      </trkpt>
      <trkpt lat="45.27916" lon="0.35914">
        <ele>95</ele>
        <time>2016-03-22T15:23:10Z</time>
      </trkpt>
      <trkpt lat="45.27911" lon="0.35914">
        <ele>96</ele>
        <time>2016-03-22T15:23:15Z</time>
      </trkpt>
      <trkpt lat="45.27907" lon="0.35913">
        <ele>97</ele>
        <time>2016-03-22T15:23:19Z</time>
      </trkpt>
      <trkpt lat="45.27901" lon="0.35913">
        <ele>98</ele>
        <time>2016-03-22T15:23:24Z</time>
      </trkpt>
      <trkpt lat="45.27897" lon="0.35914">
        <ele>97</ele>
        <time>2016-03-22T15:23:29Z</time>
      </trkpt>
      <trkpt lat="45.27893" lon="0.35916">
        <ele>97</ele>
        <time>2016-03-22T15:23:34Z</time>
      </trkpt>
      <trkpt lat="45.27889" lon="0.35915">
        <ele>99</ele>
        <time>2016-03-22T15:23:38Z</time>
      </trkpt>
      <trkpt lat="45.27886" lon="0.35911">
        <ele>102</ele>
        <time>2016-03-22T15:23:42Z</time>
      </trkpt>
      <trkpt lat="45.2788" lon="0.3591">
        <ele>103</ele>
        <time>2016-03-22T15:23:46Z</time>
      </trkpt>
      <trkpt lat="45.27875" lon="0.35908">
        <ele>105</ele>
        <time>2016-03-22T15:23:51Z</time>
      </trkpt>
      <trkpt lat="45.27871" lon="0.35905">
        <ele>109</ele>
        <time>2016-03-22T15:23:55Z</time>
      </trkpt>
      <trkpt lat="45.27866" lon="0.35904">
        <ele>109</ele>
        <time>2016-03-22T15:23:59Z</time>
      </trkpt>
      <trkpt lat="45.27861" lon="0.35904">
        <ele>109</ele>
        <time>2016-03-22T15:24:03Z</time>
      </trkpt>
      <trkpt lat="45.27854" lon="0.35902">
        <ele>108</ele>
        <time>2016-03-22T15:24:08Z</time>
      </trkpt>
      <trkpt lat="45.27848" lon="0.35898">
        <ele>108</ele>
        <time>2016-03-22T15:24:13Z</time>
      </trkpt>
      <trkpt lat="45.27844" lon="0.35898">
        <ele>104</ele>
        <time>2016-03-22T15:24:17Z</time>
      </trkpt>
      <trkpt lat="45.27839" lon="0.35896">
        <ele>102</ele>
        <time>2016-03-22T15:24:21Z</time>
      </trkpt>
      <trkpt lat="45.27832" lon="0.35895">
        <ele>101</ele>
        <time>2016-03-22T15:24:26Z</time>
      </trkpt>
      <trkpt lat="45.27826" lon="0.35895">
        <ele>100</ele>
        <time>2016-03-22T15:24:30Z</time>
      </trkpt>
      <trkpt lat="45.27821" lon="0.35893">
        <ele>100</ele>
        <time>2016-03-22T15:24:35Z</time>
      </trkpt>
      <trkpt lat="45.27817" lon="0.35892">
        <ele>100</ele>
        <time>2016-03-22T15:24:39Z</time>
      </trkpt>
      <trkpt lat="45.27811" lon="0.35891">
        <ele>99</ele>
        <time>2016-03-22T15:24:44Z</time>
      </trkpt>
      <trkpt lat="45.27807" lon="0.3589">
        <ele>98</ele>
        <time>2016-03-22T15:24:48Z</time>
      </trkpt>
      <trkpt lat="45.27801" lon="0.35888">
        <ele>97</ele>
        <time>2016-03-22T15:24:53Z</time>
      </trkpt>
      <trkpt lat="45.27796" lon="0.35887">
        <ele>96</ele>
        <time>2016-03-22T15:24:57Z</time>
      </trkpt>
      <trkpt lat="45.27791" lon="0.35886">
        <ele>96</ele>
        <time>2016-03-22T15:25:02Z</time>
      </trkpt>
      <trkpt lat="45.27787" lon="0.35883">
        <ele>97</ele>
        <time>2016-03-22T15:25:06Z</time>
      </trkpt>
      <trkpt lat="45.27782" lon="0.3588">
        <ele>97</ele>
        <time>2016-03-22T15:25:11Z</time>
      </trkpt>
      <trkpt lat="45.27778" lon="0.35878">
        <ele>96</ele>
        <time>2016-03-22T15:25:15Z</time>
      </trkpt>
      <trkpt lat="45.27774" lon="0.35875">
        <ele>96</ele>
        <time>2016-03-22T15:25:19Z</time>
      </trkpt>
      <trkpt lat="45.2777" lon="0.3587">
        <ele>97</ele>
        <time>2016-03-22T15:25:24Z</time>
      </trkpt>
      <trkpt lat="45.27766" lon="0.35865">
        <ele>97</ele>
        <time>2016-03-22T15:25:28Z</time>
      </trkpt>
      <trkpt lat="45.27765" lon="0.35858">
        <ele>100</ele>
        <time>2016-03-22T15:25:33Z</time>
      </trkpt>
      <trkpt lat="45.27763" lon="0.35852">
        <ele>98</ele>
        <time>2016-03-22T15:25:38Z</time>
      </trkpt>
      <trkpt lat="45.27762" lon="0.35846">
        <ele>100</ele>
        <time>2016-03-22T15:25:42Z</time>
      </trkpt>
      <trkpt lat="45.27761" lon="0.35841">
        <ele>99</ele>
        <time>2016-03-22T15:25:46Z</time>
      </trkpt>
      <trkpt lat="45.2776" lon="0.35835">
        <ele>100</ele>
        <time>2016-03-22T15:25:50Z</time>
      </trkpt>
      <trkpt lat="45.27759" lon="0.35827">
        <ele>101</ele>
        <time>2016-03-22T15:25:55Z</time>
      </trkpt>
      <trkpt lat="45.27758" lon="0.35821">
        <ele>102</ele>
        <time>2016-03-22T15:25:59Z</time>
      </trkpt>
      <trkpt lat="45.27756" lon="0.35816">
        <ele>103</ele>
        <time>2016-03-22T15:26:03Z</time>
      </trkpt>
      <trkpt lat="45.27754" lon="0.3581">
        <ele>103</ele>
        <time>2016-03-22T15:26:07Z</time>
      </trkpt>
      <trkpt lat="45.27753" lon="0.35802">
        <ele>104</ele>
        <time>2016-03-22T15:26:12Z</time>
      </trkpt>
      <trkpt lat="45.27749" lon="0.35798">
        <ele>105</ele>
        <time>2016-03-22T15:26:16Z</time>
      </trkpt>
      <trkpt lat="45.27748" lon="0.35792">
        <ele>106</ele>
        <time>2016-03-22T15:26:20Z</time>
      </trkpt>
      <trkpt lat="45.27747" lon="0.35784">
        <ele>106</ele>
        <time>2016-03-22T15:26:25Z</time>
      </trkpt>
      <trkpt lat="45.27743" lon="0.35777">
        <ele>106</ele>
        <time>2016-03-22T15:26:29Z</time>
      </trkpt>
      <trkpt lat="45.27737" lon="0.35774">
        <ele>104</ele>
        <time>2016-03-22T15:26:33Z</time>
      </trkpt>
      <trkpt lat="45.27732" lon="0.3577">
        <ele>104</ele>
        <time>2016-03-22T15:26:38Z</time>
      </trkpt>
      <trkpt lat="45.27727" lon="0.35767">
        <ele>103</ele>
        <time>2016-03-22T15:26:42Z</time>
      </trkpt>
      <trkpt lat="45.27722" lon="0.35767">
        <ele>104</ele>
        <time>2016-03-22T15:26:46Z</time>
      </trkpt>
      <trkpt lat="45.27718" lon="0.35765">
        <ele>103</ele>
        <time>2016-03-22T15:26:50Z</time>
      </trkpt>
      <trkpt lat="45.27712" lon="0.35763">
        <ele>102</ele>
        <time>2016-03-22T15:26:55Z</time>
      </trkpt>
      <trkpt lat="45.27707" lon="0.35765">
        <ele>102</ele>
        <time>2016-03-22T15:26:59Z</time>
      </trkpt>
      <trkpt lat="45.27705" lon="0.35772">
        <ele>102</ele>
        <time>2016-03-22T15:27:03Z</time>
      </trkpt>
      <trkpt lat="45.27702" lon="0.35776">
        <ele>100</ele>
        <time>2016-03-22T15:27:07Z</time>
      </trkpt>
      <trkpt lat="45.27699" lon="0.35781">
        <ele>99</ele>
        <time>2016-03-22T15:27:11Z</time>
      </trkpt>
      <trkpt lat="45.27695" lon="0.35789">
        <ele>97</ele>
        <time>2016-03-22T15:27:16Z</time>
      </trkpt>
      <trkpt lat="45.27692" lon="0.35794">
        <ele>96</ele>
        <time>2016-03-22T15:27:20Z</time>
      </trkpt>
      <trkpt lat="45.27691" lon="0.35802">
        <ele>95</ele>
        <time>2016-03-22T15:27:24Z</time>
      </trkpt>
      <trkpt lat="45.27685" lon="0.35803">
        <ele>95</ele>
        <time>2016-03-22T15:27:29Z</time>
      </trkpt>
      <trkpt lat="45.27681" lon="0.35807">
        <ele>95</ele>
        <time>2016-03-22T15:27:33Z</time>
      </trkpt>
      <trkpt lat="45.27678" lon="0.35807">
        <ele>95</ele>
        <time>2016-03-22T15:27:37Z</time>
      </trkpt>
      <trkpt lat="45.27673" lon="0.35804">
        <ele>94</ele>
        <time>2016-03-22T15:27:42Z</time>
      </trkpt>
      <trkpt lat="45.27668" lon="0.35801">
        <ele>95</ele>
        <time>2016-03-22T15:27:46Z</time>
      </trkpt>
      <trkpt lat="45.27662" lon="0.35797">
        <ele>95</ele>
        <time>2016-03-22T15:27:51Z</time>
      </trkpt>
      <trkpt lat="45.27657" lon="0.35795">
        <ele>94</ele>
        <time>2016-03-22T15:27:55Z</time>
      </trkpt>
      <trkpt lat="45.27652" lon="0.35792">
        <ele>92</ele>
        <time>2016-03-22T15:27:59Z</time>
      </trkpt>
      <trkpt lat="45.27647" lon="0.35789">
        <ele>92</ele>
        <time>2016-03-22T15:28:03Z</time>
      </trkpt>
      <trkpt lat="45.27643" lon="0.35788">
        <ele>91</ele>
        <time>2016-03-22T15:28:07Z</time>
      </trkpt>
      <trkpt lat="45.27638" lon="0.35786">
        <ele>91</ele>
        <time>2016-03-22T15:28:11Z</time>
      </trkpt>
      <trkpt lat="45.27634" lon="0.35785">
        <ele>92</ele>
        <time>2016-03-22T15:28:15Z</time>
      </trkpt>
      <trkpt lat="45.2763" lon="0.3578">
        <ele>93</ele>
        <time>2016-03-22T15:28:20Z</time>
      </trkpt>
      <trkpt lat="45.27628" lon="0.35774">
        <ele>95</ele>
        <time>2016-03-22T15:28:25Z</time>
      </trkpt>
      <trkpt lat="45.27628" lon="0.35768">
        <ele>96</ele>
        <time>2016-03-22T15:28:29Z</time>
      </trkpt>
      <trkpt lat="45.27627" lon="0.35762">
        <ele>97</ele>
        <time>2016-03-22T15:28:33Z</time>
      </trkpt>
      <trkpt lat="45.27626" lon="0.35754">
        <ele>100</ele>
        <time>2016-03-22T15:28:38Z</time>
      </trkpt>
      <trkpt lat="45.27626" lon="0.35747">
        <ele>101</ele>
        <time>2016-03-22T15:28:42Z</time>
      </trkpt>
      <trkpt lat="45.27626" lon="0.35739">
        <ele>101</ele>
        <time>2016-03-22T15:28:47Z</time>
      </trkpt>
      <trkpt lat="45.27625" lon="0.35733">
        <ele>103</ele>
        <time>2016-03-22T15:28:51Z</time>
      </trkpt>
      <trkpt lat="45.27625" lon="0.35727">
        <ele>102</ele>
        <time>2016-03-22T15:28:55Z</time>
      </trkpt>
      <trkpt lat="45.27625" lon="0.3572">
        <ele>102</ele>
        <time>2016-03-22T15:29:00Z</time>
      </trkpt>
      <trkpt lat="45.27625" lon="0.35713">
        <ele>102</ele>
        <time>2016-03-22T15:29:04Z</time>
      </trkpt>
      <trkpt lat="45.27625" lon="0.35706">
        <ele>101</ele>
        <time>2016-03-22T15:29:09Z</time>
      </trkpt>
      <trkpt lat="45.27625" lon="0.35698">
        <ele>101</ele>
        <time>2016-03-22T15:29:14Z</time>
      </trkpt>
      <trkpt lat="45.27624" lon="0.35692">
        <ele>100</ele>
        <time>2016-03-22T15:29:18Z</time>
      </trkpt>
      <trkpt lat="45.27624" lon="0.35684">
        <ele>99</ele>
        <time>2016-03-22T15:29:23Z</time>
      </trkpt>
      <trkpt lat="45.27623" lon="0.35677">
        <ele>99</ele>
        <time>2016-03-22T15:29:27Z</time>
      </trkpt>
      <trkpt lat="45.27623" lon="0.35672">
        <ele>100</ele>
        <time>2016-03-22T15:29:31Z</time>
      </trkpt>
      <trkpt lat="45.27621" lon="0.35667">
        <ele>100</ele>
        <time>2016-03-22T15:29:35Z</time>
      </trkpt>
      <trkpt lat="45.27618" lon="0.35663">
        <ele>100</ele>
        <time>2016-03-22T15:29:39Z</time>
      </trkpt>
      <trkpt lat="45.27615" lon="0.3566">
        <ele>102</ele>
        <time>2016-03-22T15:29:43Z</time>
      </trkpt>
      <trkpt lat="45.27612" lon="0.35656">
        <ele>106</ele>
        <time>2016-03-22T15:29:49Z</time>
      </trkpt>
      <trkpt lat="45.27609" lon="0.35653">
        <ele>105</ele>
        <time>2016-03-22T15:29:54Z</time>
      </trkpt>
      <trkpt lat="45.27604" lon="0.35651">
        <ele>106</ele>
        <time>2016-03-22T15:29:58Z</time>
      </trkpt>
      <trkpt lat="45.27599" lon="0.3565">
        <ele>106</ele>
        <time>2016-03-22T15:30:02Z</time>
      </trkpt>
      <trkpt lat="45.27593" lon="0.3565">
        <ele>107</ele>
        <time>2016-03-22T15:30:07Z</time>
      </trkpt>
      <trkpt lat="45.27588" lon="0.35649">
        <ele>107</ele>
        <time>2016-03-22T15:30:11Z</time>
      </trkpt>
      <trkpt lat="45.27583" lon="0.35648">
        <ele>107</ele>
        <time>2016-03-22T15:30:15Z</time>
      </trkpt>
      <trkpt lat="45.27579" lon="0.35649">
        <ele>106</ele>
        <time>2016-03-22T15:30:19Z</time>
      </trkpt>
      <trkpt lat="45.27571" lon="0.35651">
        <ele>106</ele>
        <time>2016-03-22T15:30:24Z</time>
      </trkpt>
      <trkpt lat="45.27567" lon="0.35652">
        <ele>106</ele>
        <time>2016-03-22T15:30:28Z</time>
      </trkpt>
      <trkpt lat="45.27562" lon="0.35652">
        <ele>108</ele>
        <time>2016-03-22T15:30:33Z</time>
      </trkpt>
      <trkpt lat="45.27558" lon="0.35653">
        <ele>108</ele>
        <time>2016-03-22T15:30:37Z</time>
      </trkpt>
      <trkpt lat="45.27552" lon="0.35655">
        <ele>105</ele>
        <time>2016-03-22T15:30:41Z</time>
      </trkpt>
      <trkpt lat="45.27547" lon="0.35657">
        <ele>104</ele>
        <time>2016-03-22T15:30:45Z</time>
      </trkpt>
      <trkpt lat="45.27542" lon="0.35658">
        <ele>103</ele>
        <time>2016-03-22T15:30:49Z</time>
      </trkpt>
      <trkpt lat="45.27537" lon="0.35659">
        <ele>103</ele>
        <time>2016-03-22T15:30:53Z</time>
      </trkpt>
      <trkpt lat="45.27531" lon="0.35659">
        <ele>103</ele>
        <time>2016-03-22T15:30:58Z</time>
      </trkpt>
      <trkpt lat="45.27526" lon="0.35659">
        <ele>103</ele>
        <time>2016-03-22T15:31:02Z</time>
      </trkpt>
      <trkpt lat="45.2752" lon="0.3566">
        <ele>103</ele>
        <time>2016-03-22T15:31:07Z</time>
      </trkpt>
      <trkpt lat="45.27514" lon="0.3566">
        <ele>103</ele>
        <time>2016-03-22T15:31:11Z</time>
      </trkpt>
      <trkpt lat="45.2751" lon="0.35661">
        <ele>104</ele>
        <time>2016-03-22T15:31:16Z</time>
      </trkpt>
      <trkpt lat="45.27506" lon="0.3566">
        <ele>104</ele>
        <time>2016-03-22T15:31:20Z</time>
      </trkpt>
      <trkpt lat="45.275" lon="0.3566">
        <ele>104</ele>
        <time>2016-03-22T15:31:24Z</time>
      </trkpt>
      <trkpt lat="45.27495" lon="0.35659">
        <ele>104</ele>
        <time>2016-03-22T15:31:28Z</time>
      </trkpt>
      <trkpt lat="45.27489" lon="0.35662">
        <ele>104</ele>
        <time>2016-03-22T15:31:33Z</time>
      </trkpt>
      <trkpt lat="45.27484" lon="0.35662">
        <ele>103</ele>
        <time>2016-03-22T15:31:37Z</time>
      </trkpt>
      <trkpt lat="45.27478" lon="0.35664">
        <ele>103</ele>
        <time>2016-03-22T15:31:42Z</time>
      </trkpt>
      <trkpt lat="45.27474" lon="0.35664">
        <ele>102</ele>
        <time>2016-03-22T15:31:47Z</time>
      </trkpt>
      <trkpt lat="45.27467" lon="0.35663">
        <ele>102</ele>
        <time>2016-03-22T15:31:52Z</time>
      </trkpt>
      <trkpt lat="45.27461" lon="0.35662">
        <ele>102</ele>
        <time>2016-03-22T15:31:57Z</time>
      </trkpt>
      <trkpt lat="45.27457" lon="0.35661">
        <ele>103</ele>
        <time>2016-03-22T15:32:01Z</time>
      </trkpt>
      <trkpt lat="45.2745" lon="0.35661">
        <ele>103</ele>
        <time>2016-03-22T15:32:06Z</time>
      </trkpt>
      <trkpt lat="45.27444" lon="0.35658">
        <ele>103</ele>
        <time>2016-03-22T15:32:11Z</time>
      </trkpt>
      <trkpt lat="45.27438" lon="0.35657">
        <ele>102</ele>
        <time>2016-03-22T15:32:16Z</time>
      </trkpt>
      <trkpt lat="45.27434" lon="0.35655">
        <ele>102</ele>
        <time>2016-03-22T15:32:20Z</time>
      </trkpt>
      <trkpt lat="45.27428" lon="0.35654">
        <ele>101</ele>
        <time>2016-03-22T15:32:24Z</time>
      </trkpt>
      <trkpt lat="45.27423" lon="0.35653">
        <ele>101</ele>
        <time>2016-03-22T15:32:28Z</time>
      </trkpt>
      <trkpt lat="45.27418" lon="0.35651">
        <ele>101</ele>
        <time>2016-03-22T15:32:33Z</time>
      </trkpt>
      <trkpt lat="45.27413" lon="0.35649">
        <ele>101</ele>
        <time>2016-03-22T15:32:37Z</time>
      </trkpt>
      <trkpt lat="45.27408" lon="0.35649">
        <ele>102</ele>
        <time>2016-03-22T15:32:42Z</time>
      </trkpt>
      <trkpt lat="45.27402" lon="0.35651">
        <ele>103</ele>
        <time>2016-03-22T15:32:47Z</time>
      </trkpt>
      <trkpt lat="45.27397" lon="0.35655">
        <ele>103</ele>
        <time>2016-03-22T15:32:51Z</time>
      </trkpt>
      <trkpt lat="45.27393" lon="0.35659">
        <ele>103</ele>
        <time>2016-03-22T15:32:55Z</time>
      </trkpt>
      <trkpt lat="45.27387" lon="0.35662">
        <ele>101</ele>
        <time>2016-03-22T15:33:00Z</time>
      </trkpt>
      <trkpt lat="45.27383" lon="0.35666">
        <ele>100</ele>
        <time>2016-03-22T15:33:05Z</time>
      </trkpt>
      <trkpt lat="45.2738" lon="0.35667">
        <ele>100</ele>
        <time>2016-03-22T15:33:09Z</time>
      </trkpt>
      <trkpt lat="45.27375" lon="0.35666">
        <ele>99</ele>
        <time>2016-03-22T15:33:14Z</time>
      </trkpt>
      <trkpt lat="45.27373" lon="0.35662">
        <ele>99</ele>
        <time>2016-03-22T15:33:19Z</time>
      </trkpt>
      <trkpt lat="45.27371" lon="0.35658">
        <ele>98</ele>
        <time>2016-03-22T15:33:23Z</time>
      </trkpt>
      <trkpt lat="45.27368" lon="0.35651">
        <ele>100</ele>
        <time>2016-03-22T15:33:28Z</time>
      </trkpt>
      <trkpt lat="45.27367" lon="0.35643">
        <ele>98</ele>
        <time>2016-03-22T15:33:33Z</time>
      </trkpt>
      <trkpt lat="45.27366" lon="0.35636">
        <ele>99</ele>
        <time>2016-03-22T15:33:37Z</time>
      </trkpt>
      <trkpt lat="45.27365" lon="0.35627">
        <ele>98</ele>
        <time>2016-03-22T15:33:42Z</time>
      </trkpt>
      <trkpt lat="45.27361" lon="0.35621">
        <ele>97</ele>
        <time>2016-03-22T15:33:46Z</time>
      </trkpt>
      <trkpt lat="45.27356" lon="0.35617">
        <ele>98</ele>
        <time>2016-03-22T15:33:50Z</time>
      </trkpt>
      <trkpt lat="45.27351" lon="0.35616">
        <ele>99</ele>
        <time>2016-03-22T15:33:54Z</time>
      </trkpt>
      <trkpt lat="45.27346" lon="0.35614">
        <ele>97</ele>
        <time>2016-03-22T15:33:58Z</time>
      </trkpt>
      <trkpt lat="45.27339" lon="0.35615">
        <ele>95</ele>
        <time>2016-03-22T15:34:03Z</time>
      </trkpt>
      <trkpt lat="45.27335" lon="0.35614">
        <ele>95</ele>
        <time>2016-03-22T15:34:07Z</time>
      </trkpt>
      <trkpt lat="45.2733" lon="0.35614">
        <ele>93</ele>
        <time>2016-03-22T15:34:11Z</time>
      </trkpt>
      <trkpt lat="45.27326" lon="0.35612">
        <ele>92</ele>
        <time>2016-03-22T15:34:15Z</time>
      </trkpt>
      <trkpt lat="45.27322" lon="0.35609">
        <ele>91</ele>
        <time>2016-03-22T15:34:19Z</time>
      </trkpt>
      <trkpt lat="45.2732" lon="0.35604">
        <ele>90</ele>
        <time>2016-03-22T15:34:23Z</time>
      </trkpt>
      <trkpt lat="45.27319" lon="0.35598">
        <ele>91</ele>
        <time>2016-03-22T15:34:28Z</time>
      </trkpt>
      <trkpt lat="45.2732" lon="0.35593">
        <ele>91</ele>
        <time>2016-03-22T15:34:32Z</time>
      </trkpt>
      <trkpt lat="45.27321" lon="0.35587">
        <ele>93</ele>
        <time>2016-03-22T15:34:39Z</time>
      </trkpt>
      <trkpt lat="45.27322" lon="0.35582">
        <ele>95</ele>
        <time>2016-03-22T15:34:44Z</time>
      </trkpt>
      <trkpt lat="45.27322" lon="0.35574">
        <ele>96</ele>
        <time>2016-03-22T15:34:48Z</time>
      </trkpt>
      <trkpt lat="45.27322" lon="0.35566">
        <ele>96</ele>
        <time>2016-03-22T15:34:52Z</time>
      </trkpt>
      <trkpt lat="45.2732" lon="0.35555">
        <ele>95</ele>
        <time>2016-03-22T15:34:57Z</time>
      </trkpt>
      <trkpt lat="45.2732" lon="0.35549">
        <ele>96</ele>
        <time>2016-03-22T15:35:01Z</time>
      </trkpt>
      <trkpt lat="45.27319" lon="0.35543">
        <ele>94</ele>
        <time>2016-03-22T15:35:06Z</time>
      </trkpt>
      <trkpt lat="45.27317" lon="0.3554">
        <ele>94</ele>
        <time>2016-03-22T15:35:24Z</time>
      </trkpt>
      <trkpt lat="45.27312" lon="0.35534">
        <ele>92</ele>
        <time>2016-03-22T15:35:29Z</time>
      </trkpt>
      <trkpt lat="45.27308" lon="0.35532">
        <ele>93</ele>
        <time>2016-03-22T15:35:33Z</time>
      </trkpt>
      <trkpt lat="45.27302" lon="0.3553">
        <ele>94</ele>
        <time>2016-03-22T15:35:38Z</time>
      </trkpt>
      <trkpt lat="45.27298" lon="0.35529">
        <ele>95</ele>
        <time>2016-03-22T15:35:42Z</time>
      </trkpt>
      <trkpt lat="45.27294" lon="0.35528">
        <ele>94</ele>
        <time>2016-03-22T15:35:47Z</time>
      </trkpt>
      <trkpt lat="45.2729" lon="0.35528">
        <ele>95</ele>
        <time>2016-03-22T15:35:52Z</time>
      </trkpt>
      <trkpt lat="45.27286" lon="0.35527">
        <ele>95</ele>
        <time>2016-03-22T15:35:56Z</time>
      </trkpt>
      <trkpt lat="45.27282" lon="0.35525">
        <ele>95</ele>
        <time>2016-03-22T15:36:00Z</time>
      </trkpt>
      <trkpt lat="45.27278" lon="0.35524">
        <ele>95</ele>
        <time>2016-03-22T15:36:06Z</time>
      </trkpt>
      <trkpt lat="45.27274" lon="0.35523">
        <ele>101</ele>
        <time>2016-03-22T15:36:12Z</time>
      </trkpt>
      <trkpt lat="45.2727" lon="0.35521">
        <ele>105</ele>
        <time>2016-03-22T15:36:18Z</time>
      </trkpt>
      <trkpt lat="45.27266" lon="0.3552">
        <ele>106</ele>
        <time>2016-03-22T15:36:22Z</time>
      </trkpt>
      <trkpt lat="45.27261" lon="0.35519">
        <ele>105</ele>
        <time>2016-03-22T15:36:26Z</time>
      </trkpt>
      <trkpt lat="45.27258" lon="0.35517">
        <ele>107</ele>
        <time>2016-03-22T15:36:30Z</time>
      </trkpt>
      <trkpt lat="45.27252" lon="0.35517">
        <ele>106</ele>
        <time>2016-03-22T15:36:34Z</time>
      </trkpt>
      <trkpt lat="45.27246" lon="0.35515">
        <ele>105</ele>
        <time>2016-03-22T15:36:38Z</time>
      </trkpt>
      <trkpt lat="45.27241" lon="0.35514">
        <ele>105</ele>
        <time>2016-03-22T15:36:42Z</time>
      </trkpt>
      <trkpt lat="45.27235" lon="0.35511">
        <ele>107</ele>
        <time>2016-03-22T15:36:47Z</time>
      </trkpt>
      <trkpt lat="45.27231" lon="0.35512">
        <ele>107</ele>
        <time>2016-03-22T15:36:51Z</time>
      </trkpt>
      <trkpt lat="45.27224" lon="0.35512">
        <ele>107</ele>
        <time>2016-03-22T15:36:56Z</time>
      </trkpt>
      <trkpt lat="45.27217" lon="0.35511">
        <ele>108</ele>
        <time>2016-03-22T15:37:01Z</time>
      </trkpt>
      <trkpt lat="45.27212" lon="0.35514">
        <ele>108</ele>
        <time>2016-03-22T15:37:05Z</time>
      </trkpt>
      <trkpt lat="45.27207" lon="0.35516">
        <ele>107</ele>
        <time>2016-03-22T15:37:09Z</time>
      </trkpt>
      <trkpt lat="45.27201" lon="0.35515">
        <ele>106</ele>
        <time>2016-03-22T15:37:14Z</time>
      </trkpt>
      <trkpt lat="45.27196" lon="0.35516">
        <ele>106</ele>
        <time>2016-03-22T15:37:18Z</time>
      </trkpt>
      <trkpt lat="45.2719" lon="0.35515">
        <ele>107</ele>
        <time>2016-03-22T15:37:23Z</time>
      </trkpt>
      <trkpt lat="45.27185" lon="0.35515">
        <ele>107</ele>
        <time>2016-03-22T15:37:27Z</time>
      </trkpt>
      <trkpt lat="45.27181" lon="0.35514">
        <ele>107</ele>
        <time>2016-03-22T15:37:31Z</time>
      </trkpt>
      <trkpt lat="45.27176" lon="0.35517">
        <ele>107</ele>
        <time>2016-03-22T15:37:35Z</time>
      </trkpt>
      <trkpt lat="45.27171" lon="0.35519">
        <ele>106</ele>
        <time>2016-03-22T15:37:39Z</time>
      </trkpt>
      <trkpt lat="45.27165" lon="0.3552">
        <ele>108</ele>
        <time>2016-03-22T15:37:44Z</time>
      </trkpt>
      <trkpt lat="45.2716" lon="0.35522">
        <ele>108</ele>
        <time>2016-03-22T15:37:48Z</time>
      </trkpt>
      <trkpt lat="45.27155" lon="0.35522">
        <ele>110</ele>
        <time>2016-03-22T15:37:53Z</time>
      </trkpt>
      <trkpt lat="45.27152" lon="0.35522">
        <ele>112</ele>
        <time>2016-03-22T15:37:58Z</time>
      </trkpt>
      <trkpt lat="45.27148" lon="0.35519">
        <ele>114</ele>
        <time>2016-03-22T15:38:03Z</time>
      </trkpt>
      <trkpt lat="45.27141" lon="0.35517">
        <ele>114</ele>
        <time>2016-03-22T15:38:08Z</time>
      </trkpt>
      <trkpt lat="45.27136" lon="0.35515">
        <ele>113</ele>
        <time>2016-03-22T15:38:12Z</time>
      </trkpt>
      <trkpt lat="45.27131" lon="0.35513">
        <ele>113</ele>
        <time>2016-03-22T15:38:16Z</time>
      </trkpt>
      <trkpt lat="45.27125" lon="0.3551">
        <ele>112</ele>
        <time>2016-03-22T15:38:21Z</time>
      </trkpt>
      <trkpt lat="45.27121" lon="0.35508">
        <ele>112</ele>
        <time>2016-03-22T15:38:25Z</time>
      </trkpt>
      <trkpt lat="45.27116" lon="0.35507">
        <ele>112</ele>
        <time>2016-03-22T15:38:29Z</time>
      </trkpt>
      <trkpt lat="45.27111" lon="0.35508">
        <ele>110</ele>
        <time>2016-03-22T15:38:33Z</time>
      </trkpt>
      <trkpt lat="45.27106" lon="0.35506">
        <ele>110</ele>
        <time>2016-03-22T15:38:37Z</time>
      </trkpt>
      <trkpt lat="45.27099" lon="0.35505">
        <ele>109</ele>
        <time>2016-03-22T15:38:42Z</time>
      </trkpt>
      <trkpt lat="45.27092" lon="0.35505">
        <ele>108</ele>
        <time>2016-03-22T15:38:47Z</time>
      </trkpt>
      <trkpt lat="45.27087" lon="0.35504">
        <ele>109</ele>
        <time>2016-03-22T15:38:51Z</time>
      </trkpt>
      <trkpt lat="45.27081" lon="0.35504">
        <ele>107</ele>
        <time>2016-03-22T15:38:56Z</time>
      </trkpt>
      <trkpt lat="45.27075" lon="0.35502">
        <ele>107</ele>
        <time>2016-03-22T15:39:00Z</time>
      </trkpt>
      <trkpt lat="45.2707" lon="0.355">
        <ele>107</ele>
        <time>2016-03-22T15:39:04Z</time>
      </trkpt>
      <trkpt lat="45.27064" lon="0.35498">
        <ele>106</ele>
        <time>2016-03-22T15:39:09Z</time>
      </trkpt>
      <trkpt lat="45.27057" lon="0.35496">
        <ele>105</ele>
        <time>2016-03-22T15:39:14Z</time>
      </trkpt>
      <trkpt lat="45.27051" lon="0.35493">
        <ele>104</ele>
        <time>2016-03-22T15:39:19Z</time>
      </trkpt>
      <trkpt lat="45.27047" lon="0.35492">
        <ele>105</ele>
        <time>2016-03-22T15:39:23Z</time>
      </trkpt>
      <trkpt lat="45.27042" lon="0.35491">
        <ele>105</ele>
        <time>2016-03-22T15:39:27Z</time>
      </trkpt>
      <trkpt lat="45.27036" lon="0.35489">
        <ele>102</ele>
        <time>2016-03-22T15:39:31Z</time>
      </trkpt>
      <trkpt lat="45.27031" lon="0.35487">
        <ele>102</ele>
        <time>2016-03-22T15:39:35Z</time>
      </trkpt>
      <trkpt lat="45.27028" lon="0.35485">
        <ele>105</ele>
        <time>2016-03-22T15:39:39Z</time>
      </trkpt>
      <trkpt lat="45.27023" lon="0.35482">
        <ele>106</ele>
        <time>2016-03-22T15:39:44Z</time>
      </trkpt>
      <trkpt lat="45.27019" lon="0.35479">
        <ele>106</ele>
        <time>2016-03-22T15:39:48Z</time>
      </trkpt>
      <trkpt lat="45.27015" lon="0.35477">
        <ele>107</ele>
        <time>2016-03-22T15:39:52Z</time>
      </trkpt>
      <trkpt lat="45.27011" lon="0.35474">
        <ele>108</ele>
        <time>2016-03-22T15:39:56Z</time>
      </trkpt>
      <trkpt lat="45.27006" lon="0.35472">
        <ele>109</ele>
        <time>2016-03-22T15:40:01Z</time>
      </trkpt>
      <trkpt lat="45.27001" lon="0.3547">
        <ele>109</ele>
        <time>2016-03-22T15:40:05Z</time>
      </trkpt>
      <trkpt lat="45.26996" lon="0.35469">
        <ele>109</ele>
        <time>2016-03-22T15:40:09Z</time>
      </trkpt>
      <trkpt lat="45.2699" lon="0.35468">
        <ele>109</ele>
        <time>2016-03-22T15:40:14Z</time>
      </trkpt>
      <trkpt lat="45.26984" lon="0.35468">
        <ele>109</ele>
        <time>2016-03-22T15:40:19Z</time>
      </trkpt>
      <trkpt lat="45.2698" lon="0.35468">
        <ele>111</ele>
        <time>2016-03-22T15:40:23Z</time>
      </trkpt>
      <trkpt lat="45.26975" lon="0.35467">
        <ele>110</ele>
        <time>2016-03-22T15:40:27Z</time>
      </trkpt>
      <trkpt lat="45.2697" lon="0.35465">
        <ele>110</ele>
        <time>2016-03-22T15:40:31Z</time>
      </trkpt>
      <trkpt lat="45.26966" lon="0.35465">
        <ele>110</ele>
        <time>2016-03-22T15:40:35Z</time>
      </trkpt>
      <trkpt lat="45.26962" lon="0.35465">
        <ele>109</ele>
        <time>2016-03-22T15:40:39Z</time>
      </trkpt>
      <trkpt lat="45.26956" lon="0.35463">
        <ele>108</ele>
        <time>2016-03-22T15:40:44Z</time>
      </trkpt>
      <trkpt lat="45.26953" lon="0.3546">
        <ele>108</ele>
        <time>2016-03-22T15:40:51Z</time>
      </trkpt>
      <trkpt lat="45.26946" lon="0.35457">
        <ele>107</ele>
        <time>2016-03-22T15:40:55Z</time>
      </trkpt>
      <trkpt lat="45.2694" lon="0.35455">
        <ele>108</ele>
        <time>2016-03-22T15:41:00Z</time>
      </trkpt>
      <trkpt lat="45.26933" lon="0.35451">
        <ele>109</ele>
        <time>2016-03-22T15:41:05Z</time>
      </trkpt>
      <trkpt lat="45.26927" lon="0.35449">
        <ele>107</ele>
        <time>2016-03-22T15:41:09Z</time>
      </trkpt>
      <trkpt lat="45.26922" lon="0.3545">
        <ele>107</ele>
        <time>2016-03-22T15:41:13Z</time>
      </trkpt>
      <trkpt lat="45.26916" lon="0.3545">
        <ele>109</ele>
        <time>2016-03-22T15:41:18Z</time>
      </trkpt>
      <trkpt lat="45.26912" lon="0.3545">
        <ele>110</ele>
        <time>2016-03-22T15:41:22Z</time>
      </trkpt>
      <trkpt lat="45.26906" lon="0.35456">
        <ele>109</ele>
        <time>2016-03-22T15:41:27Z</time>
      </trkpt>
      <trkpt lat="45.26903" lon="0.35461">
        <ele>107</ele>
        <time>2016-03-22T15:41:32Z</time>
      </trkpt>
      <trkpt lat="45.26898" lon="0.35466">
        <ele>103</ele>
        <time>2016-03-22T15:41:36Z</time>
      </trkpt>
      <trkpt lat="45.26895" lon="0.35473">
        <ele>101</ele>
        <time>2016-03-22T15:41:40Z</time>
      </trkpt>
      <trkpt lat="45.26892" lon="0.35481">
        <ele>103</ele>
        <time>2016-03-22T15:41:45Z</time>
      </trkpt>
      <trkpt lat="45.26891" lon="0.35488">
        <ele>102</ele>
        <time>2016-03-22T15:41:49Z</time>
      </trkpt>
      <trkpt lat="45.26889" lon="0.35497">
        <ele>103</ele>
        <time>2016-03-22T15:41:53Z</time>
      </trkpt>
      <trkpt lat="45.26886" lon="0.35501">
        <ele>102</ele>
        <time>2016-03-22T15:41:57Z</time>
      </trkpt>
      <trkpt lat="45.26885" lon="0.35508">
        <ele>103</ele>
        <time>2016-03-22T15:42:01Z</time>
      </trkpt>
      <trkpt lat="45.26886" lon="0.35512">
        <ele>105</ele>
        <time>2016-03-22T15:42:07Z</time>
      </trkpt>
      <trkpt lat="45.26883" lon="0.35527">
        <ele>106</ele>
        <time>2016-03-22T15:42:12Z</time>
      </trkpt>
      <trkpt lat="45.2688" lon="0.35532">
        <ele>102</ele>
        <time>2016-03-22T15:42:21Z</time>
      </trkpt>
      <trkpt lat="45.26877" lon="0.35532">
        <ele>101</ele>
        <time>2016-03-22T15:42:25Z</time>
      </trkpt>
      <trkpt lat="45.26874" lon="0.35537">
        <ele>100</ele>
        <time>2016-03-22T15:42:33Z</time>
      </trkpt>
      <trkpt lat="45.26872" lon="0.35542">
        <ele>103</ele>
        <time>2016-03-22T15:43:34Z</time>
      </trkpt>
      <trkpt lat="45.2687" lon="0.35546">
        <ele>103</ele>
        <time>2016-03-22T15:43:40Z</time>
      </trkpt>
      <trkpt lat="45.2687" lon="0.35552">
        <ele>104</ele>
        <time>2016-03-22T15:43:45Z</time>
      </trkpt>
      <trkpt lat="45.26871" lon="0.35558">
        <ele>105</ele>
        <time>2016-03-22T15:43:49Z</time>
      </trkpt>
      <trkpt lat="45.26869" lon="0.35567">
        <ele>102</ele>
        <time>2016-03-22T15:43:53Z</time>
      </trkpt>
      <trkpt lat="45.26869" lon="0.35573">
        <ele>98</ele>
        <time>2016-03-22T15:43:58Z</time>
      </trkpt>
      <trkpt lat="45.2687" lon="0.35578">
        <ele>98</ele>
        <time>2016-03-22T15:44:02Z</time>
      </trkpt>
      <trkpt lat="45.2687" lon="0.35586">
        <ele>98</ele>
        <time>2016-03-22T15:44:07Z</time>
      </trkpt>
      <trkpt lat="45.26873" lon="0.35591">
        <ele>98</ele>
        <time>2016-03-22T15:44:11Z</time>
      </trkpt>
      <trkpt lat="45.26876" lon="0.35593">
        <ele>99</ele>
        <time>2016-03-22T15:44:15Z</time>
      </trkpt>
      <trkpt lat="45.26883" lon="0.35598">
        <ele>97</ele>
        <time>2016-03-22T15:44:20Z</time>
      </trkpt>
      <trkpt lat="45.26886" lon="0.356">
        <ele>97</ele>
        <time>2016-03-22T15:44:24Z</time>
      </trkpt>
      <trkpt lat="45.26887" lon="0.3561">
        <ele>95</ele>
        <time>2016-03-22T15:44:29Z</time>
      </trkpt>
      <trkpt lat="45.26885" lon="0.35617">
        <ele>96</ele>
        <time>2016-03-22T15:44:33Z</time>
      </trkpt>
      <trkpt lat="45.26885" lon="0.35623">
        <ele>96</ele>
        <time>2016-03-22T15:44:37Z</time>
      </trkpt>
      <trkpt lat="45.26886" lon="0.35629">
        <ele>94</ele>
        <time>2016-03-22T15:44:41Z</time>
      </trkpt>
      <trkpt lat="45.26891" lon="0.35634">
        <ele>96</ele>
        <time>2016-03-22T15:44:46Z</time>
      </trkpt>
      <trkpt lat="45.26897" lon="0.35633">
        <ele>96</ele>
        <time>2016-03-22T15:44:50Z</time>
      </trkpt>
      <trkpt lat="45.26901" lon="0.35635">
        <ele>96</ele>
        <time>2016-03-22T15:44:54Z</time>
      </trkpt>
      <trkpt lat="45.26906" lon="0.35639">
        <ele>96</ele>
        <time>2016-03-22T15:44:59Z</time>
      </trkpt>
      <trkpt lat="45.2691" lon="0.35641">
        <ele>95</ele>
        <time>2016-03-22T15:45:03Z</time>
      </trkpt>
      <trkpt lat="45.26913" lon="0.35647">
        <ele>94</ele>
        <time>2016-03-22T15:45:08Z</time>
      </trkpt>
      <trkpt lat="45.26913" lon="0.35652">
        <ele>92</ele>
        <time>2016-03-22T15:45:12Z</time>
      </trkpt>
      <trkpt lat="45.26911" lon="0.35657">
        <ele>92</ele>
        <time>2016-03-22T15:45:16Z</time>
      </trkpt>
      <trkpt lat="45.2691" lon="0.35662">
        <ele>93</ele>
        <time>2016-03-22T15:45:20Z</time>
      </trkpt>
      <trkpt lat="45.2691" lon="0.35668">
        <ele>91</ele>
        <time>2016-03-22T15:45:25Z</time>
      </trkpt>
      <trkpt lat="45.26908" lon="0.35673">
        <ele>91</ele>
        <time>2016-03-22T15:45:33Z</time>
      </trkpt>
      <trkpt lat="45.26905" lon="0.35678">
        <ele>89</ele>
        <time>2016-03-22T15:45:37Z</time>
      </trkpt>
      <trkpt lat="45.26903" lon="0.35685">
        <ele>92</ele>
        <time>2016-03-22T15:45:42Z</time>
      </trkpt>
      <trkpt lat="45.26898" lon="0.35688">
        <ele>90</ele>
        <time>2016-03-22T15:45:46Z</time>
      </trkpt>
      <trkpt lat="45.26893" lon="0.35696">
        <ele>88</ele>
        <time>2016-03-22T15:45:51Z</time>
      </trkpt>
      <trkpt lat="45.2689" lon="0.35699">
        <ele>87</ele>
        <time>2016-03-22T15:45:55Z</time>
      </trkpt>
      <trkpt lat="45.26886" lon="0.35704">
        <ele>86</ele>
        <time>2016-03-22T15:45:59Z</time>
      </trkpt>
      <trkpt lat="45.2688" lon="0.35708">
        <ele>84</ele>
        <time>2016-03-22T15:46:04Z</time>
      </trkpt>
      <trkpt lat="45.26876" lon="0.35711">
        <ele>82</ele>
        <time>2016-03-22T15:46:08Z</time>
      </trkpt>
      <trkpt lat="45.26871" lon="0.35716">
        <ele>82</ele>
        <time>2016-03-22T15:46:13Z</time>
      </trkpt>
      <trkpt lat="45.26867" lon="0.3572">
        <ele>81</ele>
        <time>2016-03-22T15:46:17Z</time>
      </trkpt>
      <trkpt lat="45.26863" lon="0.35725">
        <ele>82</ele>
        <time>2016-03-22T15:46:21Z</time>
      </trkpt>
      <trkpt lat="45.26858" lon="0.3573">
        <ele>82</ele>
        <time>2016-03-22T15:46:26Z</time>
      </trkpt>
      <trkpt lat="45.26856" lon="0.35733">
        <ele>82</ele>
        <time>2016-03-22T15:46:30Z</time>
      </trkpt>
      <trkpt lat="45.2685" lon="0.35737">
        <ele>79</ele>
        <time>2016-03-22T15:46:34Z</time>
      </trkpt>
      <trkpt lat="45.26845" lon="0.35743">
        <ele>79</ele>
        <time>2016-03-22T15:46:39Z</time>
      </trkpt>
      <trkpt lat="45.26841" lon="0.35747">
        <ele>80</ele>
        <time>2016-03-22T15:46:44Z</time>
      </trkpt>
      <trkpt lat="45.26837" lon="0.35753">
        <ele>81</ele>
        <time>2016-03-22T15:46:48Z</time>
      </trkpt>
      <trkpt lat="45.26831" lon="0.3576">
        <ele>84</ele>
        <time>2016-03-22T15:46:53Z</time>
      </trkpt>
      <trkpt lat="45.2683" lon="0.35766">
        <ele>87</ele>
        <time>2016-03-22T15:46:57Z</time>
      </trkpt>
      <trkpt lat="45.2683" lon="0.35772">
        <ele>86</ele>
        <time>2016-03-22T15:47:02Z</time>
      </trkpt>
      <trkpt lat="45.26831" lon="0.35779">
        <ele>85</ele>
        <time>2016-03-22T15:47:06Z</time>
      </trkpt>
      <trkpt lat="45.2683" lon="0.35786">
        <ele>85</ele>
        <time>2016-03-22T15:47:10Z</time>
      </trkpt>
      <trkpt lat="45.2683" lon="0.35795">
        <ele>85</ele>
        <time>2016-03-22T15:47:15Z</time>
      </trkpt>
      <trkpt lat="45.2683" lon="0.35804">
        <ele>86</ele>
        <time>2016-03-22T15:47:19Z</time>
      </trkpt>
      <trkpt lat="45.26828" lon="0.35812">
        <ele>84</ele>
        <time>2016-03-22T15:47:24Z</time>
      </trkpt>
      <trkpt lat="45.26829" lon="0.35817">
        <ele>81</ele>
        <time>2016-03-22T15:47:28Z</time>
      </trkpt>
      <trkpt lat="45.2683" lon="0.35824">
        <ele>81</ele>
        <time>2016-03-22T15:47:32Z</time>
      </trkpt>
      <trkpt lat="45.2683" lon="0.35829">
        <ele>82</ele>
        <time>2016-03-22T15:47:37Z</time>
      </trkpt>
      <trkpt lat="45.26829" lon="0.35836">
        <ele>81</ele>
        <time>2016-03-22T15:47:42Z</time>
      </trkpt>
      <trkpt lat="45.26828" lon="0.35842">
        <ele>81</ele>
        <time>2016-03-22T15:47:46Z</time>
      </trkpt>
      <trkpt lat="45.26827" lon="0.3585">
        <ele>83</ele>
        <time>2016-03-22T15:47:51Z</time>
      </trkpt>
      <trkpt lat="45.26826" lon="0.35858">
        <ele>84</ele>
        <time>2016-03-22T15:47:55Z</time>
      </trkpt>
      <trkpt lat="45.26824" lon="0.35863">
        <ele>84</ele>
        <time>2016-03-22T15:47:59Z</time>
      </trkpt>
      <trkpt lat="45.26822" lon="0.35872">
        <ele>83</ele>
        <time>2016-03-22T15:48:04Z</time>
      </trkpt>
      <trkpt lat="45.26821" lon="0.35879">
        <ele>82</ele>
        <time>2016-03-22T15:48:08Z</time>
      </trkpt>
      <trkpt lat="45.26819" lon="0.35887">
        <ele>82</ele>
        <time>2016-03-22T15:48:12Z</time>
      </trkpt>
      <trkpt lat="45.26819" lon="0.35895">
        <ele>81</ele>
        <time>2016-03-22T15:48:16Z</time>
      </trkpt>
      <trkpt lat="45.26817" lon="0.35901">
        <ele>80</ele>
        <time>2016-03-22T15:48:20Z</time>
      </trkpt>
      <trkpt lat="45.26813" lon="0.35904">
        <ele>79</ele>
        <time>2016-03-22T15:48:25Z</time>
      </trkpt>
      <trkpt lat="45.26808" lon="0.35905">
        <ele>79</ele>
        <time>2016-03-22T15:48:30Z</time>
      </trkpt>
      <trkpt lat="45.26803" lon="0.35907">
        <ele>78</ele>
        <time>2016-03-22T15:48:34Z</time>
      </trkpt>
      <trkpt lat="45.26798" lon="0.35907">
        <ele>79</ele>
        <time>2016-03-22T15:48:39Z</time>
      </trkpt>
      <trkpt lat="45.26794" lon="0.35907">
        <ele>79</ele>
        <time>2016-03-22T15:48:43Z</time>
      </trkpt>
      <trkpt lat="45.26788" lon="0.35909">
        <ele>79</ele>
        <time>2016-03-22T15:48:48Z</time>
      </trkpt>
      <trkpt lat="45.26783" lon="0.35909">
        <ele>79</ele>
        <time>2016-03-22T15:48:53Z</time>
      </trkpt>
      <trkpt lat="45.26778" lon="0.35908">
        <ele>80</ele>
        <time>2016-03-22T15:48:57Z</time>
      </trkpt>
      <trkpt lat="45.26773" lon="0.3591">
        <ele>80</ele>
        <time>2016-03-22T15:49:01Z</time>
      </trkpt>
      <trkpt lat="45.26767" lon="0.35912">
        <ele>80</ele>
        <time>2016-03-22T15:49:06Z</time>
      </trkpt>
      <trkpt lat="45.26762" lon="0.35912">
        <ele>80</ele>
        <time>2016-03-22T15:49:10Z</time>
      </trkpt>
      <trkpt lat="45.26758" lon="0.35912">
        <ele>81</ele>
        <time>2016-03-22T15:49:14Z</time>
      </trkpt>
      <trkpt lat="45.26753" lon="0.35916">
        <ele>79</ele>
        <time>2016-03-22T15:49:19Z</time>
      </trkpt>
      <trkpt lat="45.26748" lon="0.35916">
        <ele>78</ele>
        <time>2016-03-22T15:49:23Z</time>
      </trkpt>
      <trkpt lat="45.26741" lon="0.35915">
        <ele>79</ele>
        <time>2016-03-22T15:49:27Z</time>
      </trkpt>
      <trkpt lat="45.26735" lon="0.35918">
        <ele>78</ele>
        <time>2016-03-22T15:49:32Z</time>
      </trkpt>
      <trkpt lat="45.26729" lon="0.35918">
        <ele>77</ele>
        <time>2016-03-22T15:49:36Z</time>
      </trkpt>
      <trkpt lat="45.26724" lon="0.35916">
        <ele>79</ele>
        <time>2016-03-22T15:49:41Z</time>
      </trkpt>
      <trkpt lat="45.26718" lon="0.35919">
        <ele>77</ele>
        <time>2016-03-22T15:49:45Z</time>
      </trkpt>
      <trkpt lat="45.26712" lon="0.35917">
        <ele>80</ele>
        <time>2016-03-22T15:49:50Z</time>
      </trkpt>
      <trkpt lat="45.26706" lon="0.35921">
        <ele>78</ele>
        <time>2016-03-22T15:49:54Z</time>
      </trkpt>
      <trkpt lat="45.267" lon="0.35926">
        <ele>77</ele>
        <time>2016-03-22T15:49:59Z</time>
      </trkpt>
      <trkpt lat="45.26695" lon="0.35925">
        <ele>79</ele>
        <time>2016-03-22T15:50:03Z</time>
      </trkpt>
      <trkpt lat="45.2669" lon="0.35924">
        <ele>83</ele>
        <time>2016-03-22T15:50:08Z</time>
      </trkpt>
      <trkpt lat="45.26683" lon="0.35925">
        <ele>86</ele>
        <time>2016-03-22T15:50:13Z</time>
      </trkpt>
      <trkpt lat="45.26678" lon="0.35928">
        <ele>87</ele>
        <time>2016-03-22T15:50:17Z</time>
      </trkpt>
      <trkpt lat="45.26673" lon="0.35932">
        <ele>87</ele>
        <time>2016-03-22T15:50:21Z</time>
      </trkpt>
      <trkpt lat="45.26669" lon="0.35932">
        <ele>89</ele>
        <time>2016-03-22T15:50:25Z</time>
      </trkpt>
      <trkpt lat="45.26664" lon="0.35936">
        <ele>91</ele>
        <time>2016-03-22T15:50:30Z</time>
      </trkpt>
      <trkpt lat="45.2666" lon="0.35937">
        <ele>94</ele>
        <time>2016-03-22T15:50:34Z</time>
      </trkpt>
      <trkpt lat="45.26656" lon="0.35942">
        <ele>93</ele>
        <time>2016-03-22T15:50:38Z</time>
      </trkpt>
      <trkpt lat="45.26652" lon="0.35943">
        <ele>94</ele>
        <time>2016-03-22T15:50:42Z</time>
      </trkpt>
      <trkpt lat="45.26648" lon="0.35946">
        <ele>95</ele>
        <time>2016-03-22T15:50:46Z</time>
      </trkpt>
      <trkpt lat="45.26643" lon="0.3595">
        <ele>94</ele>
        <time>2016-03-22T15:50:50Z</time>
      </trkpt>
      <trkpt lat="45.26637" lon="0.35964">
        <ele>88</ele>
        <time>2016-03-22T15:50:54Z</time>
      </trkpt>
      <trkpt lat="45.26633" lon="0.35971">
        <ele>85</ele>
        <time>2016-03-22T15:50:58Z</time>
      </trkpt>
      <trkpt lat="45.26629" lon="0.35976">
        <ele>85</ele>
        <time>2016-03-22T15:51:02Z</time>
      </trkpt>
      <trkpt lat="45.26624" lon="0.3598">
        <ele>85</ele>
        <time>2016-03-22T15:51:06Z</time>
      </trkpt>
      <trkpt lat="45.2662" lon="0.35983">
        <ele>87</ele>
        <time>2016-03-22T15:51:11Z</time>
      </trkpt>
      <trkpt lat="45.26617" lon="0.35986">
        <ele>88</ele>
        <time>2016-03-22T15:51:15Z</time>
      </trkpt>
      <trkpt lat="45.26612" lon="0.35994">
        <ele>85</ele>
        <time>2016-03-22T15:51:19Z</time>
      </trkpt>
      <trkpt lat="45.26607" lon="0.36001">
        <ele>83</ele>
        <time>2016-03-22T15:51:24Z</time>
      </trkpt>
      <trkpt lat="45.26602" lon="0.36005">
        <ele>80</ele>
        <time>2016-03-22T15:51:28Z</time>
      </trkpt>
      <trkpt lat="45.26597" lon="0.36012">
        <ele>80</ele>
        <time>2016-03-22T15:51:33Z</time>
      </trkpt>
      <trkpt lat="45.26593" lon="0.36016">
        <ele>80</ele>
        <time>2016-03-22T15:51:37Z</time>
      </trkpt>
      <trkpt lat="45.26589" lon="0.36018">
        <ele>81</ele>
        <time>2016-03-22T15:51:42Z</time>
      </trkpt>
      <trkpt lat="45.26583" lon="0.36028">
        <ele>78</ele>
        <time>2016-03-22T15:51:47Z</time>
      </trkpt>
      <trkpt lat="45.26579" lon="0.36035">
        <ele>78</ele>
        <time>2016-03-22T15:51:51Z</time>
      </trkpt>
      <trkpt lat="45.26573" lon="0.36042">
        <ele>76</ele>
        <time>2016-03-22T15:51:56Z</time>
      </trkpt>
      <trkpt lat="45.26569" lon="0.3605">
        <ele>76</ele>
        <time>2016-03-22T15:52:00Z</time>
      </trkpt>
      <trkpt lat="45.26564" lon="0.36054">
        <ele>76</ele>
        <time>2016-03-22T15:52:05Z</time>
      </trkpt>
      <trkpt lat="45.2656" lon="0.36058">
        <ele>77</ele>
        <time>2016-03-22T15:52:09Z</time>
      </trkpt>
      <trkpt lat="45.26556" lon="0.36064">
        <ele>78</ele>
        <time>2016-03-22T15:52:13Z</time>
      </trkpt>
      <trkpt lat="45.26552" lon="0.3607">
        <ele>78</ele>
        <time>2016-03-22T15:52:17Z</time>
      </trkpt>
      <trkpt lat="45.26548" lon="0.36075">
        <ele>77</ele>
        <time>2016-03-22T15:52:21Z</time>
      </trkpt>
      <trkpt lat="45.26544" lon="0.3608">
        <ele>77</ele>
        <time>2016-03-22T15:52:25Z</time>
      </trkpt>
      <trkpt lat="45.2654" lon="0.36084">
        <ele>78</ele>
        <time>2016-03-22T15:52:30Z</time>
      </trkpt>
      <trkpt lat="45.26537" lon="0.3609">
        <ele>78</ele>
        <time>2016-03-22T15:52:34Z</time>
      </trkpt>
      <trkpt lat="45.26534" lon="0.36091">
        <ele>79</ele>
        <time>2016-03-22T15:52:38Z</time>
      </trkpt>
      <trkpt lat="45.26528" lon="0.36101">
        <ele>74</ele>
        <time>2016-03-22T15:52:43Z</time>
      </trkpt>
      <trkpt lat="45.26525" lon="0.36104">
        <ele>76</ele>
        <time>2016-03-22T15:52:47Z</time>
      </trkpt>
      <trkpt lat="45.26521" lon="0.3611">
        <ele>76</ele>
        <time>2016-03-22T15:52:51Z</time>
      </trkpt>
      <trkpt lat="45.26517" lon="0.36115">
        <ele>75</ele>
        <time>2016-03-22T15:52:56Z</time>
      </trkpt>
      <trkpt lat="45.26514" lon="0.36117">
        <ele>77</ele>
        <time>2016-03-22T15:53:00Z</time>
      </trkpt>
      <trkpt lat="45.26509" lon="0.36121">
        <ele>76</ele>
        <time>2016-03-22T15:53:04Z</time>
      </trkpt>
      <trkpt lat="45.26504" lon="0.36126">
        <ele>76</ele>
        <time>2016-03-22T15:53:09Z</time>
      </trkpt>
      <trkpt lat="45.265" lon="0.36129">
        <ele>76</ele>
        <time>2016-03-22T15:53:13Z</time>
      </trkpt>
      <trkpt lat="45.26494" lon="0.36137">
        <ele>76</ele>
        <time>2016-03-22T15:53:18Z</time>
      </trkpt>
      <trkpt lat="45.26489" lon="0.36143">
        <ele>75</ele>
        <time>2016-03-22T15:53:22Z</time>
      </trkpt>
      <trkpt lat="45.26484" lon="0.36146">
        <ele>73</ele>
        <time>2016-03-22T15:53:26Z</time>
      </trkpt>
      <trkpt lat="45.26481" lon="0.36149">
        <ele>73</ele>
        <time>2016-03-22T15:53:30Z</time>
      </trkpt>
      <trkpt lat="45.26475" lon="0.36152">
        <ele>74</ele>
        <time>2016-03-22T15:53:35Z</time>
      </trkpt>
      <trkpt lat="45.26471" lon="0.36156">
        <ele>75</ele>
        <time>2016-03-22T15:53:39Z</time>
      </trkpt>
      <trkpt lat="45.26465" lon="0.36162">
        <ele>74</ele>
        <time>2016-03-22T15:53:44Z</time>
      </trkpt>
      <trkpt lat="45.26462" lon="0.36164">
        <ele>74</ele>
        <time>2016-03-22T15:53:48Z</time>
      </trkpt>
      <trkpt lat="45.26457" lon="0.36169">
        <ele>73</ele>
        <time>2016-03-22T15:53:52Z</time>
      </trkpt>
      <trkpt lat="45.26452" lon="0.36171">
        <ele>75</ele>
        <time>2016-03-22T15:53:57Z</time>
      </trkpt>
      <trkpt lat="45.26446" lon="0.36173">
        <ele>75</ele>
        <time>2016-03-22T15:54:01Z</time>
      </trkpt>
      <trkpt lat="45.26442" lon="0.36175">
        <ele>75</ele>
        <time>2016-03-22T15:54:05Z</time>
      </trkpt>
      <trkpt lat="45.26437" lon="0.36178">
        <ele>75</ele>
        <time>2016-03-22T15:54:09Z</time>
      </trkpt>
      <trkpt lat="45.26431" lon="0.36183">
        <ele>74</ele>
        <time>2016-03-22T15:54:14Z</time>
      </trkpt>
      <trkpt lat="45.26426" lon="0.36183">
        <ele>75</ele>
        <time>2016-03-22T15:54:18Z</time>
      </trkpt>
      <trkpt lat="45.2642" lon="0.36183">
        <ele>75</ele>
        <time>2016-03-22T15:54:23Z</time>
      </trkpt>
      <trkpt lat="45.26414" lon="0.36187">
        <ele>76</ele>
        <time>2016-03-22T15:54:28Z</time>
      </trkpt>
      <trkpt lat="45.2641" lon="0.3619">
        <ele>76</ele>
        <time>2016-03-22T15:54:32Z</time>
      </trkpt>
      <trkpt lat="45.26405" lon="0.36193">
        <ele>77</ele>
        <time>2016-03-22T15:54:36Z</time>
      </trkpt>
      <trkpt lat="45.264" lon="0.36195">
        <ele>78</ele>
        <time>2016-03-22T15:54:40Z</time>
      </trkpt>
      <trkpt lat="45.26397" lon="0.36197">
        <ele>79</ele>
        <time>2016-03-22T15:54:44Z</time>
      </trkpt>
      <trkpt lat="45.26392" lon="0.36196">
        <ele>82</ele>
        <time>2016-03-22T15:54:49Z</time>
      </trkpt>
      <trkpt lat="45.26387" lon="0.36195">
        <ele>84</ele>
        <time>2016-03-22T15:54:53Z</time>
      </trkpt>
      <trkpt lat="45.26384" lon="0.36202">
        <ele>83</ele>
        <time>2016-03-22T15:54:57Z</time>
      </trkpt>
      <trkpt lat="45.26379" lon="0.36208">
        <ele>82</ele>
        <time>2016-03-22T15:55:02Z</time>
      </trkpt>
      <trkpt lat="45.26373" lon="0.36212">
        <ele>79</ele>
        <time>2016-03-22T15:55:06Z</time>
      </trkpt>
      <trkpt lat="45.2637" lon="0.36214">
        <ele>77</ele>
        <time>2016-03-22T15:55:11Z</time>
      </trkpt>
      <trkpt lat="45.26369" lon="0.3622">
        <ele>75</ele>
        <time>2016-03-22T15:55:22Z</time>
      </trkpt>
      <trkpt lat="45.26369" lon="0.36225">
        <ele>71</ele>
        <time>2016-03-22T15:55:29Z</time>
      </trkpt>
      <trkpt lat="45.26367" lon="0.3623">
        <ele>71</ele>
        <time>2016-03-22T15:55:37Z</time>
      </trkpt>
      <trkpt lat="45.26366" lon="0.36236">
        <ele>75</ele>
        <time>2016-03-22T15:55:42Z</time>
      </trkpt>
      <trkpt lat="45.26366" lon="0.36242">
        <ele>76</ele>
        <time>2016-03-22T15:55:47Z</time>
      </trkpt>
      <trkpt lat="45.26363" lon="0.36245">
        <ele>76</ele>
        <time>2016-03-22T15:55:52Z</time>
      </trkpt>
      <trkpt lat="45.26354" lon="0.36248">
        <ele>76</ele>
        <time>2016-03-22T15:55:57Z</time>
      </trkpt>
      <trkpt lat="45.26351" lon="0.36251">
        <ele>75</ele>
        <time>2016-03-22T15:56:01Z</time>
      </trkpt>
      <trkpt lat="45.26349" lon="0.36256">
        <ele>77</ele>
        <time>2016-03-22T15:56:05Z</time>
      </trkpt>
      <trkpt lat="45.26345" lon="0.36259">
        <ele>75</ele>
        <time>2016-03-22T15:56:10Z</time>
      </trkpt>
      <trkpt lat="45.26344" lon="0.36263">
        <ele>74</ele>
        <time>2016-03-22T15:56:15Z</time>
      </trkpt>
      <trkpt lat="45.26349" lon="0.36272">
        <ele>78</ele>
        <time>2016-03-22T15:56:19Z</time>
      </trkpt>
      <trkpt lat="45.26352" lon="0.36281">
        <ele>81</ele>
        <time>2016-03-22T15:56:24Z</time>
      </trkpt>
      <trkpt lat="45.26356" lon="0.36286">
        <ele>81</ele>
        <time>2016-03-22T15:56:28Z</time>
      </trkpt>
      <trkpt lat="45.26359" lon="0.3629">
        <ele>81</ele>
        <time>2016-03-22T15:56:32Z</time>
      </trkpt>
      <trkpt lat="45.26362" lon="0.36296">
        <ele>81</ele>
        <time>2016-03-22T15:56:36Z</time>
      </trkpt>
      <trkpt lat="45.26366" lon="0.36301">
        <ele>82</ele>
        <time>2016-03-22T15:56:40Z</time>
      </trkpt>
      <trkpt lat="45.26368" lon="0.36304">
        <ele>82</ele>
        <time>2016-03-22T15:56:43Z</time>
      </trkpt>
      <trkpt lat="45.26368" lon="0.36304">
        <ele>82</ele>
        <time>2016-03-22T15:56:43Z</time>
      </trkpt>
    </trkseg>
  </trk>
</gpx>